[[{"header":{"parameterUnit":"m.s-1","parameterCategory":1,"la1":31.0,"la2":29.5877,"lo1":-88.7671,"lo2":-86.6584,"dy":0.0162,"dx":0.0185,"nx":115,"ny":88,"refTime":"2024-07-30T00:00:00:Z","depth":0,"parameterNumber":2,"parameterNumberName":"U-component_of_WINDS"},"data":[0.0,0.0,0.0,0.0,0.0,0.0,0.0,0.0,0.0,0.0,0.0,0.0,0.0,0.0,0.0,0.0,0.0,0.0,0.0,0.0,0.0,0.0,0.0,0.0,0.0,0.0,0.0,0.0,0.0,0.0,0.0,0.0,0.0,0.0,0.0,0.0,0.0,0.0,0.0,0.0,0.0,0.0,0.0,0.0,0.0,0.0,0.0,0.0,0.0,0.0,0.0,0.0,0.0,0.0,0.0,0.0,0.0,0.0,0.0,0.0,0.0,0.0,0.0,0.0,0.0,0.0,0.0,0.0,0.0,0.0,0.0,0.0,0.0,0.0,0.0,0.0,0.0,0.0,0.0,0.0,0.0,0.0,0.0,0.0,0.0,0.0,0.0,0.0,0.0,0.0,0.0,0.0,0.0,0.0,0.0,0.0,0.0,0.0,0.0,0.0,0.0,0.0,0.0,0.0,0.0,0.0,0.0,0.0,0.0,0.0,0.0,0.0,0.0,0.0,0.0,0.0,0.0,0.0,0.0,0.0,0.0,0.0,0.0,0.0,0.0,0.0,0.0,0.0,0.0,0.0,0.0,0.0,0.0,0.0,0.0,0.0,0.0,0.0,0.0,0.0,0.0,0.0,0.0,0.0,0.0,0.0,0.0,0.0,0.0,0.0,0.0,0.0,0.0,0.0,0.0,0.0,0.0,0.0,0.0,0.0,0.0,0.0,0.0,0.0,0.0,0.0,0.0,0.0,0.0,0.0,0.0,0.0,0.0,0.0,0.0,0.0,0.0,0.0,0.0,0.0,0.0,0.0,0.0,0.0,0.0,0.0,0.0,0.0,0.0,0.0,0.0,0.0,0.0,0.0,0.0,0.0,0.0,0.0,0.0,0.0,0.0,0.0,0.0,0.0,0.0,0.0,0.0,0.0,0.0,0.0,0.0,0.0,0.0,0.0,0.0,0.0,0.0,0.0,0.0,0.0,0.0,0.0,0.0,0.0,0.0,0.0,0.0,0.0,0.0,0.0,0.0,0.0,0.0,0.0,0.0,0.0,0.0,0.0,0.0,0.0,0.0,0.0,0.0,0.0,0.0,0.0,0.0,0.0,0.0,0.0,0.0,0.0,0.0,0.0,0.0,0.0,0.0,0.0,0.0,0.0,0.0,0.0,0.0,0.0,0.0,0.0,0.0,0.0,0.0,0.0,0.0,0.0,0.0,0.0,0.0,0.0,0.0,0.0,0.0,0.0,0.0,0.0,0.0,0.0,0.0,0.0,0.0,0.0,0.0,0.0,0.0,0.0,0.0,0.0,0.0,0.0,0.0,0.0,0.0,0.0,0.0,0.0,0.0,0.0,0.0,0.0,0.0,0.0,0.0,0.0,0.0,0.0,0.0,0.0,0.0,0.0,0.0,0.0,0.0,0.0,0.0,0.0,0.0,0.0,0.0,0.0,0.0,0.0,0.0,0.0,0.0,0.0,0.0,0.0,0.0,0.0,0.0,0.0,0.0,0.0,0.0,0.0,0.0,0.0,0.0,0.0,0.0,0.0,0.0,0.0,0.0,0.0,0.0,0.0,0.0,0.0,0.0,0.0,0.0,0.0,0.0,0.0,0.0,0.0,0.0,0.0,0.0,0.0,0.0,0.0,0.0,0.0,0.0,0.0,0.0,0.0,0.0,0.0,0.0,0.0,0.0,0.0,0.0,0.0,0.0,0.0,0.0,0.0,0.0,0.0,0.0,0.0,0.0,0.0,0.0,0.0,0.0,0.0,0.0,0.0,0.0,0.0,0.0,0.0,0.0,0.0,0.0,0.0,0.0,0.0,0.0,0.0,0.0,0.0,0.0,0.0,0.0,0.0,0.0,0.0,0.0,0.0,0.0,0.0,0.0,0.0,0.0,0.0,0.0,0.0,0.0,0.0,0.0,0.0,0.0,0.0,0.0,0.0,0.0,0.0,0.0,0.0,0.0,0.0,0.0,0.0,0.0,0.0,0.0,0.0,0.0,0.0,0.0,0.0,0.0,0.0,0.0,0.0,0.0,0.0,0.0,0.0,0.0,0.0,0.0,0.0,0.0,0.0,0.0,0.0,0.0,0.0,0.0,0.0,0.0,0.0,0.0,0.0,0.0,0.0,0.0,0.0,0.0,0.0,0.0,0.0,0.0,0.0,0.0,0.0,0.0,0.0,0.0,0.0,0.0,0.0,0.0,0.0,0.0,0.0,0.0,0.0,0.0,0.0,0.0,0.0,0.0,0.0,0.0,0.0,0.0,0.0,0.0,0.0,0.0,0.0,0.0,0.0,0.0,0.0,0.0,0.0,0.0,0.0,0.0,0.0,0.0,0.0,0.0,0.0,0.0,0.0,0.0,0.0,0.0,0.0,0.0,0.0,0.0,0.0,0.0,0.0,0.0,0.0,0.0,0.0,0.0,0.0,0.0,0.0,0.0,0.0,0.0,0.0,0.0,0.0,0.0,0.0,0.0,0.0,0.0,0.0,0.0,0.0,0.0,0.0,0.0,0.0,0.0,0.0,0.0,0.0,0.0,0.0,0.0,0.0,0.0,0.0,0.0,0.0,0.0,0.0,0.0,0.0,0.0,0.0,0.0,0.0,0.0,0.0,0.0,0.0,0.0,0.0,0.0,0.0,0.0,0.0,0.0,0.0,0.0,0.0,0.0,0.0,0.0,0.0,0.0,0.0,0.0,0.0,0.0,0.0,0.0,0.0,0.0,0.0,0.0,0.0,0.0,0.0,0.0,0.0,0.0,0.0,0.0,0.0,0.0,0.0,0.0,0.0,0.0,0.0,0.0,0.0,0.0,0.0,0.0,0.0,0.0,0.0,0.0,0.0,0.0,0.0,0.0,0.0,0.0,0.0,0.0,0.0,0.0,0.0,0.0,0.0,0.0,0.0,0.0,0.0,0.0,0.0,0.0,0.0,0.0,0.0,0.0,0.0,0.0,0.0,0.0,0.0,0.0,0.0,0.0,0.0,0.0,0.0,0.0,0.0,0.0,0.0,0.0,0.0,0.0,0.0,0.0,0.0,0.0,0.0,0.0,0.0,0.0,0.0,0.0,0.0,0.0,0.0,0.0,0.0,0.0,0.0,0.0,0.0,0.0,0.0,0.0,0.0,0.0,0.0,0.0,0.0,0.0,0.0,0.0,0.0,0.0,0.0,0.0,0.0,0.0,0.0,0.0,0.0,0.0,0.0,0.0,0.0,0.0,0.0,0.0,0.0,0.0,0.0,0.0,0.0,0.0,0.0,0.0,0.0,0.0,0.0,0.0,0.0,0.0,0.0,0.0,0.0,0.0,0.0,0.0,0.0,0.0,0.0,0.0,0.0,0.0,0.0,0.0,0.0,0.0,0.0,0.0,0.0,0.0,0.0,0.0,0.0,0.0,0.0,0.0,0.0,0.0,0.0,0.0,0.0,0.0,0.0,0.0,0.0,0.0,0.0,0.0,0.0,0.0,0.0,0.0,0.0,0.0,0.0,0.0,0.0,0.0,0.0,0.0,0.0,0.0,0.0,0.0,0.0,0.0,0.0,0.0,0.0,0.0,0.0,0.0,0.0,0.0,0.0,0.0,0.0,0.0,0.0,0.0,0.0,0.0,0.0,0.0,0.0,0.0,0.0,0.0,0.0,0.0,0.0,0.0,0.0,0.0,0.0,0.0,0.0,0.0,0.0,0.0,0.0,0.0,0.0,0.0,0.0,0.0,0.0,0.0,0.0,0.0,0.0,0.0,0.0,0.0,0.0,0.0,0.0,0.0,0.0,0.0,0.0,0.0,0.0,0.0,0.0,0.0,0.0,0.0,0.0,0.0,0.0,0.0,0.0,0.0,0.0,0.0,0.0,0.0,0.0,0.0,0.0,0.0,0.0,0.0,0.0,0.0,0.0,0.0,0.0,0.0,0.0,0.0,0.0,0.0,0.0,0.0,0.0,0.0,0.0,0.0,0.0,0.0,0.0,0.0,0.0,0.0,0.0,0.0,0.0,0.0,0.0,0.0,0.0,0.0,0.0,0.0,0.0,0.0,0.0,0.0,0.0,0.0,0.0,0.0,0.0,0.0,0.0,0.0,0.0,0.0,0.0,0.0,0.0,0.0,0.0,0.0,0.0,0.0,0.0,0.0,0.0,0.0,0.0,0.0,0.0,0.0,0.0,0.0,0.0,0.0,0.0,0.0,0.0,0.0,0.0,0.0,0.0,0.0,0.0,0.0,0.0,0.0,0.0,0.0,0.0,0.0,0.0,0.0,0.0,0.0,0.0,0.0,0.0,0.4814,0.0,0.0,0.0,0.0,0.0,0.0,0.0,0.0,0.0,0.0,0.0,0.0,0.0,0.0,0.0,0.0,0.0,0.0,0.0,0.0,0.0,0.0,0.0,0.0,0.0,0.0,0.0,0.0,0.0,0.0,0.0,0.0,0.0,0.0,0.0,0.0,0.0,0.0,0.0,0.0,0.0,0.0,0.0,0.0,0.0,0.0,0.0,0.0,0.0,0.0,0.0,0.0,0.0,0.0,0.0,0.0,0.0,0.0,0.0,0.0,0.0,0.0,0.0,0.0,0.0,0.0,0.0,0.0,0.0,0.0,0.0,0.0,0.0,0.0,0.0,0.0,0.0,0.0,0.0,0.0,0.0,0.0,0.0,0.0,0.0,0.0,0.0,0.0,0.0,0.0,0.0,0.0,0.0,0.0,0.0,0.0,0.0,0.0,0.0,0.0,0.0,0.0,0.0,0.0,0.0,0.0,0.0,0.0,0.0,0.0,0.5932,0.5762,0.5462,0.5088,0.4714,0.0,0.0,0.0,0.0,0.0,0.0,0.0,0.0,0.0,0.0,0.0,0.0,0.0,0.0,0.0,0.0,0.0,0.0,0.0,0.0,0.0,0.0,0.0,0.0,0.0,0.0,0.0,0.0,0.0,0.0,0.0,0.0,0.0,0.0,0.0,0.0,0.0,0.0,0.0,0.0,0.0,0.0,0.0,0.0,0.0,0.0,0.0,0.0,0.0,0.0,0.0,0.0,0.0,0.0,0.0,0.0,0.0,0.0,0.0,0.0,0.0,0.0,0.0,0.0,0.0,0.0,0.0,0.0,0.0,0.0,0.0,0.0,0.0,0.0,0.0,0.0,0.0,0.0,0.0,0.0,0.0,0.0,0.0,0.0,0.0,0.0,0.0,0.0,0.0,0.0,0.0,0.0,0.0,0.0,0.0,0.0,0.0,0.0,0.0,0.0,0.0,0.0,0.0,0.0,0.0,0.0,0.0,0.0,0.0,0.0,0.0,0.0,0.5295,0.5022,0.4698,0.0,0.0,0.0,0.0,0.0,0.0,0.0,0.0,0.0,0.0,0.0,0.0,0.0,0.0,0.0,0.0,0.0,0.0,0.0,0.0,0.0,0.0,0.0,0.0,0.0,0.0,0.0,0.0,0.0,0.0,0.0,0.0,0.0,0.0,0.0,0.0,0.0,0.0,0.0,0.0,0.0,0.0,0.0,0.0,0.0,0.0,0.0,0.0,0.0,0.0,0.0,0.0,0.0,0.0,0.0,0.0,0.0,0.0,0.0,0.0,0.0,0.0,0.0,0.0,0.0,0.0,0.0,0.0,0.0,0.0,0.0,0.0,0.0,0.0,0.0,0.0,0.0,0.0,0.0,0.0,0.0,0.0,0.0,0.0,0.0,0.0,0.0,0.0,0.0,0.0,0.0,0.0,0.0,0.0,0.0,0.0,0.0,0.0,0.0,0.0,0.0,0.0,0.0,0.0,0.0,0.0,0.0,0.0,0.0,0.0,0.5495,0.5495,0.5456,0.0,0.4907,0.0,0.0,0.0,0.0,0.0,0.0,0.0,0.0,0.0,0.0,0.0,0.0,0.0,0.0,0.0,0.0,0.0,0.0,0.0,0.0,0.0,0.0,0.0,0.0,0.0,0.0,0.0,0.0,0.0,0.0,0.0,0.0,0.0,0.0,0.0,0.0,0.0,0.0,0.0,0.0,0.0,0.0,0.0,0.0,0.0,0.0,0.0,0.0,0.0,0.0,0.0,0.0,0.0,0.0,0.0,0.0,0.0,0.0,0.0,0.0,0.0,0.0,0.0,0.0,0.0,0.0,0.0,0.0,0.0,0.0,0.0,0.0,0.0,0.0,0.0,0.0,0.0,0.0,0.0,0.0,0.0,0.0,0.0,0.0,0.0,0.0,0.0,0.0,0.0,0.0,0.0,0.0,0.0,0.0,0.0,0.0,0.0,0.0,0.0,0.0,0.0,0.0,0.0,0.0,0.0,0.0,0.0,0.0,0.0,0.0,0.5321,0.5077,0.4933,0.475,0.0,0.0,0.0,0.0,0.0,0.0,0.0,0.0,0.0,0.0,0.0,0.0,0.0,0.0,0.0,0.0,0.0,0.0,0.0,0.0,0.0,0.0,0.0,0.0,0.0,0.0,0.0,0.0,0.0,0.0,0.0,0.0,0.0,0.0,0.0,0.0,0.0,0.0,0.0,0.0,0.0,0.0,0.0,0.0,0.0,0.0,0.0,0.0,0.0,0.0,0.0,0.0,0.0,0.0,0.0,0.0,0.0,0.0,0.0,0.0,0.0,0.0,0.0,0.0,0.0,0.0,0.0,0.0,0.0,0.0,0.0,0.0,0.0,0.0,0.0,0.0,0.0,0.0,0.0,0.0,0.0,0.0,0.0,0.0,0.0,0.0,0.0,0.0,0.0,0.0,0.0,0.0,0.0,0.0,0.0,0.0,0.0,0.0,0.0,0.0,0.0,0.0,0.0,0.0,0.0,0.0,0.0,0.0,0.0,0.0,0.5107,0.5057,0.4782,0.4629,0.4468,0.4238,0.0,0.0,0.0,0.0,0.0,0.0,0.0,0.0,0.0,0.0,0.0,0.0,0.0,0.0,0.0,0.0,0.0,0.0,0.0,0.0,0.0,0.0,0.0,0.0,0.0,0.0,0.0,0.0,0.0,0.0,0.0,0.0,0.0,0.0,0.0,0.0,0.0,0.0,0.0,0.0,0.0,0.0,0.0,0.0,0.0,0.0,0.0,0.0,0.0,0.0,0.0,0.0,0.0,0.0,0.0,0.0,0.0,0.0,0.0,0.0,0.0,0.0,0.0,0.0,0.0,0.0,0.0,0.0,0.0,0.0,0.0,0.0,0.0,0.0,0.0,0.0,0.0,0.0,0.0,0.0,0.0,0.0,0.0,0.0,0.0,0.0,0.0,0.0,0.0,0.0,0.0,0.0,0.0,0.0,0.0,0.0,0.0,0.0,0.0,0.0,0.0,0.0,0.0,0.0,0.0,0.0,0.0,0.0,0.4733,0.4723,0.4727,0.4717,0.4867,0.4705,0.0,0.0,0.0,0.0,0.0,0.0,0.0,0.0,0.0,0.0,0.0,0.0,0.0,0.0,0.0,0.0,0.0,0.0,0.0,0.0,0.0,0.0,0.0,0.0,0.0,0.0,0.0,0.0,0.0,0.0,0.0,0.0,0.0,0.0,0.0,0.0,0.0,0.0,0.0,0.0,0.0,0.0,0.0,0.0,0.0,0.0,0.0,0.0,0.0,0.0,0.0,0.0,0.0,0.0,0.0,0.0,0.0,0.0,0.0,0.0,0.0,0.0,0.0,0.0,0.0,0.0,0.0,0.0,0.0,0.0,0.0,0.0,0.0,0.0,0.0,0.0,0.0,0.0,0.0,0.0,0.0,0.0,0.0,0.0,0.0,0.0,0.0,0.0,0.0,0.0,0.0,0.0,0.0,0.0,0.0,0.0,0.0,0.0,0.0,0.0,0.0,0.0,0.0,0.0,0.0,0.0,0.0,0.0,0.0,0.4414,0.454,0.4779,0.4995,0.4718,0.4482,0.0,0.0,0.0,0.0,0.0,0.0,0.0,0.0,0.0,0.0,0.0,0.0,0.0,0.0,0.0,0.0,0.0,0.0,0.0,0.0,0.0,0.0,0.0,0.0,0.0,0.0,0.0,0.0,0.0,0.0,0.0,0.0,0.0,0.0,0.0,0.0,0.0,0.0,0.0,0.0,0.0,0.0,0.0,0.0,0.0,0.0,0.0,0.0,0.0,0.0,0.0,0.0,0.0,0.0,0.0,0.0,0.0,0.0,0.0,0.0,0.0,0.0,0.0,0.0,0.0,0.0,0.0,0.0,0.0,0.0,0.0,0.0,0.0,0.0,0.0,0.0,0.0,0.0,0.0,0.0,0.0,0.0,0.0,0.0,0.0,0.0,0.0,0.0,0.0,0.0,0.0,0.0,0.0,0.0,0.0,0.0,0.0,0.0,0.0,0.0,0.0,0.0,0.0,0.0,0.0,0.0,0.0,0.0,0.0,0.4313,0.0,0.4755,0.5127,0.4594,0.4323,0.0,0.0,0.0,0.0,0.0,0.0,0.0,0.0,0.0,0.0,0.0,0.0,0.0,0.0,0.0,0.0,0.0,0.0,0.0,0.0,0.0,0.0,0.0,0.0,0.0,0.0,0.0,0.0,0.0,0.0,0.0,0.0,0.0,0.0,0.0,0.0,0.0,0.0,0.0,0.0,0.0,0.0,0.0,0.0,0.0,0.0,0.0,0.0,0.0,0.0,0.0,0.0,0.0,0.0,0.0,0.0,0.0,0.0,0.0,0.0,0.0,0.0,0.0,0.0,0.0,0.0,0.0,0.0,0.0,0.0,0.0,0.0,0.0,0.0,0.0,0.0,0.0,0.0,0.0,0.0,0.0,0.0,0.0,0.0,0.0,0.0,0.0,0.0,0.0,0.0,0.0,0.0,0.0,0.0,0.0,0.0,0.0,0.0,0.0,0.0,0.0,0.0,0.0,0.0,0.0,0.0,0.0,0.0,0.4283,0.4474,0.4517,0.472,0.5075,0.46,0.424,0.0,0.0,0.0,0.0,0.0,0.0,0.0,0.0,0.0,0.0,0.0,0.0,0.0,0.0,0.0,0.0,0.0,0.0,0.0,0.0,0.0,0.0,0.0,0.0,0.0,0.0,0.0,0.0,0.0,0.0,0.0,0.0,0.0,0.0,0.0,0.0,0.0,0.0,0.0,0.0,0.0,0.0,0.0,0.0,0.0,0.0,0.0,0.0,0.0,0.0,0.0,0.0,0.0,0.0,0.0,0.0,0.0,0.0,0.0,0.0,0.0,0.0,0.0,0.0,0.0,0.0,0.0,0.0,0.0,0.0,0.0,0.0,0.0,0.0,0.0,0.0,0.0,0.0,0.0,0.0,0.0,0.0,0.0,0.0,0.0,0.0,0.0,0.0,0.0,0.0,0.0,0.0,0.0,0.0,0.0,0.0,0.0,0.0,0.0,0.0,0.0,0.0,0.0,0.0,0.0,0.0,0.0,0.0,0.0,0.4227,0.4619,0.4986,0.5229,0.4769,0.4459,0.0,0.0,0.0,0.0,0.0,0.0,0.0,0.0,0.0,0.0,0.0,0.0,0.0,0.0,0.0,0.0,0.0,0.0,0.0,0.0,0.0,0.0,0.0,0.0,0.0,0.0,0.0,0.0,0.0,0.0,0.0,0.0,0.0,0.0,0.0,0.0,0.0,0.0,0.0,0.0,0.0,0.0,0.0,0.0,0.0,0.0,0.0,0.0,0.0,0.0,0.0,0.0,0.0,0.0,0.0,0.0,0.0,0.0,0.0,0.0,0.0,0.0,0.0,0.0,0.0,0.0,0.0,0.0,0.0,0.0,0.0,0.0,0.0,0.0,0.0,0.0,0.0,0.0,0.0,0.0,0.0,0.0,0.0,0.0,0.0,0.0,0.0,0.0,0.0,0.0,0.0,0.0,0.0,0.0,0.0,0.0,0.0,0.0,0.0,0.0,0.0,0.0,0.0,0.0,0.0,0.0,0.0,0.0,0.0,0.4341,0.4876,0.5236,0.5397,0.4993,0.4731,0.4627,0.0,0.0,0.0,0.0,0.0,0.0,0.0,0.0,0.0,0.0,0.0,0.0,0.0,0.0,0.0,0.0,0.0,0.0,0.0,0.0,0.0,0.0,0.0,0.0,0.0,0.0,0.0,0.0,0.0,0.0,0.0,0.0,0.0,0.0,0.0,0.0,0.0,0.0,0.0,0.0,0.0,0.0,0.0,0.0,0.0,0.0,0.0,0.0,0.0,0.0,0.0,0.0,0.0,0.0,0.0,0.0,0.0,0.0,0.0,0.0,0.0,0.0,0.0,0.0,0.0,0.0,0.0,0.0,0.0,0.0,0.0,0.0,0.0,0.0,0.0,0.0,0.0,0.0,0.0,0.0,0.0,0.0,0.0,0.0,0.0,0.0,0.0,0.0,0.0,0.0,0.0,0.0,0.0,0.0,0.0,0.0,0.0,0.0,0.0,0.0,0.0,0.0,0.0,0.0,0.0,0.0,0.0,0.0,0.4678,0.5233,0.5547,0.5599,0.5307,0.5051,0.0,0.0,0.0,0.0,0.0,0.0,0.0,0.0,0.0,0.0,0.0,0.0,0.0,0.0,0.0,0.0,0.0,0.0,0.0,0.0,0.0,0.0,0.0,0.0,0.0,0.0,0.0,0.0,0.0,0.0,0.0,0.0,0.0,0.0,0.0,0.0,0.0,0.0,0.0,0.0,0.0,0.0,0.0,0.0,0.0,0.0,0.0,0.0,0.0,0.0,0.0,0.0,0.0,0.0,0.0,0.0,0.0,0.0,0.0,0.0,0.0,0.0,0.0,0.0,0.0,0.0,0.0,0.0,0.0,0.0,0.0,0.0,0.0,0.0,0.0,0.0,0.0,0.0,0.0,0.0,0.0,0.0,0.0,0.0,0.0,0.0,0.0,0.0,0.0,0.0,0.0,0.0,0.0,0.0,0.0,0.0,0.0,0.0,0.0,0.0,0.0,0.0,0.0,0.0,0.0,0.0,0.0,0.0,0.0,0.4574,0.5408,0.5862,0.5895,0.5726,0.5516,0.0,0.0,0.0,0.0,0.0,0.0,0.0,0.0,0.0,0.0,0.0,0.0,0.0,0.0,0.0,0.0,0.0,0.0,0.0,0.0,0.0,0.0,0.0,0.0,0.0,0.0,0.0,0.0,0.0,0.0,0.0,0.0,0.0,0.0,0.0,0.0,0.0,0.0,0.0,0.0,0.0,0.0,0.0,0.0,0.0,0.0,0.0,0.0,0.0,0.0,0.0,0.0,0.0,0.0,0.0,0.0,0.0,0.0,0.0,0.0,0.0,0.0,0.0,0.0,0.0,0.0,0.0,0.0,0.0,0.0,0.0,0.0,0.0,0.0,0.0,0.0,0.0,0.0,0.0,0.0,0.0,0.0,0.0,0.0,0.0,0.0,0.0,0.0,0.0,0.0,0.0,0.0,0.0,0.0,0.0,0.0,0.0,0.0,0.0,0.0,0.0,0.0,0.0,0.0,0.0,0.0,0.0,0.0,0.5001,0.4926,0.5943,0.6546,0.6593,0.6194,0.5907,0.0,0.0,0.0,0.0,0.0,0.0,0.0,0.0,0.0,0.0,0.0,0.0,0.0,0.0,0.0,0.0,0.0,0.0,0.0,0.0,0.0,0.0,0.0,0.0,0.0,0.0,0.0,0.0,0.0,0.0,0.0,0.0,0.0,0.0,0.0,0.0,0.0,0.0,0.0,0.0,0.0,0.0,0.0,0.0,0.0,0.0,0.0,0.0,0.0,0.0,0.0,0.0,0.0,0.0,0.0,0.0,0.0,0.0,0.0,0.0,0.0,0.0,0.0,0.0,0.0,0.0,0.0,0.0,0.0,0.0,0.0,0.0,0.0,0.0,0.0,0.0,0.0,0.0,0.0,0.0,0.0,0.0,0.0,0.0,0.0,0.0,0.0,0.0,0.0,0.0,0.0,0.0,0.0,0.0,0.0,0.0,0.0,0.0,0.0,0.0,0.0,0.0,0.0,0.0,0.0,0.0,0.0,0.0,0.5509,0.5559,0.6579,0.7233,0.7416,0.6698,0.6268,0.0,0.0,0.0,0.0,0.0,0.0,0.0,0.0,0.0,0.0,0.0,0.0,0.0,0.0,0.0,0.0,0.0,0.0,0.0,0.0,0.0,0.0,0.0,0.0,0.0,0.0,0.0,0.0,0.0,0.0,0.0,0.0,0.0,0.0,0.0,0.0,0.0,0.0,0.0,0.0,0.0,0.0,0.0,0.0,0.0,0.0,0.0,0.0,0.0,0.0,0.0,0.0,0.0,0.0,0.0,0.0,0.0,0.0,0.0,0.0,0.0,0.0,0.0,0.0,0.0,0.0,0.0,0.0,0.0,0.0,0.0,0.0,0.0,0.0,0.0,0.0,0.0,0.0,0.0,0.0,0.0,0.0,0.0,0.0,0.0,0.0,0.0,0.0,0.0,0.0,0.0,0.0,0.0,0.0,0.0,0.0,0.0,0.0,0.0,0.0,0.0,0.0,0.0,0.0,0.0,0.0,0.0,0.0,0.5521,0.5819,0.6422,0.7047,0.7772,0.7128,0.6743,0.0,0.0,0.0,0.0,0.0,0.0,0.0,0.0,0.0,0.0,0.0,0.0,0.0,0.0,0.0,0.0,0.0,0.0,0.0,0.0,0.0,0.0,0.0,0.0,0.0,0.0,0.0,0.0,0.0,0.0,0.0,0.0,0.0,0.0,0.0,0.0,0.0,0.0,0.0,0.0,0.0,0.0,0.0,0.0,0.0,0.0,0.0,0.0,0.4779,0.0,0.0,0.0,0.0,0.0,0.0,0.0,0.0,0.0,0.0,0.0,0.0,0.0,0.0,0.0,0.0,0.0,0.0,0.0,0.0,0.0,0.0,0.0,0.0,0.0,0.0,0.0,0.0,0.0,0.0,0.0,0.0,0.0,0.0,0.0,0.0,0.0,0.0,0.0,0.0,0.0,0.0,0.0,0.0,0.0,0.0,0.0,0.0,0.0,0.0,0.0,0.0,0.0,0.0,0.0,0.0,0.0,0.0,0.0,0.5949,0.6277,0.6791,0.7401,0.8091,0.7488,0.7147,0.0,0.0,0.0,0.0,0.0,0.0,0.0,0.0,0.0,0.0,0.0,0.0,0.0,0.0,0.0,0.0,0.0,0.0,0.0,0.0,0.0,0.0,0.0,0.0,0.0,0.0,0.0,0.0,0.0,0.0,0.0,0.0,0.0,0.0,0.0,0.0,0.0,0.0,0.0,0.0,0.0,0.0,0.0,0.0,0.0,0.0,0.0,0.0,0.0,0.0,0.0,0.0,0.0,0.0,0.0,0.0,0.0,0.0,0.0,0.0,0.0,0.0,0.0,0.0,0.0,0.0,0.0,0.0,0.0,0.0,0.0,0.0,0.0,0.0,0.0,0.0,0.0,0.0,0.0,0.0,0.0,0.0,0.0,0.0,0.0,0.0,0.0,0.0,0.0,0.0,0.0,0.0,0.0,0.0,0.0,0.0,0.0,0.0,0.0,0.0,0.0,0.0,0.0,0.0,0.0,0.0,0.0,0.5882,0.6426,0.6716,0.7159,0.7706,0.8294,0.7672,0.7349,0.7372,0.0,0.0,0.0,0.0,0.0,0.0,0.0,0.0,0.0,0.0,0.0,0.0,0.0,0.0,0.0,0.0,0.0,0.0,0.0,0.0,0.0,0.0,0.0,0.0,0.0,0.0,0.0,0.0,0.0,0.0,0.0,0.0,0.0,0.0,0.0,0.0,0.0,0.0,0.2457,0.3281,0.0,0.0,0.0,0.0,0.0,0.0,0.0,0.0,0.5483,0.0,0.0,0.0,0.0,0.0,0.0,0.0,0.0,0.0,0.0,0.0,0.0,0.0,0.0,0.0,0.0,0.0,0.0,0.0,0.0,0.0,0.0,0.0,0.0,0.0,0.0,0.0,0.0,0.0,0.0,0.0,0.0,0.0,0.0,0.0,0.0,0.0,0.0,0.0,0.0,0.0,0.0,0.0,0.0,0.0,0.0,0.0,0.0,0.0,0.0,0.0,0.0,0.0,0.0,0.0,0.0,0.6197,0.6211,0.6433,0.6849,0.6939,0.7295,0.7932,0.7341,0.7123,0.7313,0.0,0.0,0.0,0.0,0.0,0.0,0.0,0.0,0.0,0.0,0.0,0.0,0.0,0.0,0.0,0.0,0.0,0.0,0.0,0.0,0.0,0.0,0.0,0.0,0.0,0.0,0.0,0.0,0.0,0.0,0.0,0.0,0.0,0.0,0.0,0.0,0.0,0.0,0.0,0.3542,0.4137,0.0,0.0,0.0,0.0,0.0,0.0,0.0,0.0,0.6336,0.0,0.0,0.0,0.0,0.0,0.0,0.0,0.0,0.0,0.0,0.0,0.0,0.0,0.0,0.0,0.0,0.0,0.0,0.0,0.0,0.0,0.0,0.0,0.0,0.0,0.0,0.0,0.0,0.0,0.0,0.0,0.0,0.0,0.0,0.0,0.0,0.0,0.0,0.0,0.0,0.0,0.0,0.0,0.0,0.0,0.0,0.0,0.0,0.0,0.0,0.0,0.0,0.0,0.0,0.0,0.6097,0.5976,0.6226,0.6887,0.6754,0.7053,0.7871,0.7251,0.7044,0.0,0.0,0.0,0.0,0.0,0.0,0.0,0.0,0.0,0.0,0.0,0.0,0.0,0.0,0.0,0.0,0.0,0.0,0.0,0.0,0.0,0.0,0.0,0.0,0.0,0.0,0.0,0.0,0.0,0.0,0.0,0.0,0.0,0.0,0.0,0.0,0.0,0.0,0.0,0.0,0.3653,0.4136,0.4655,0.0,0.0,0.0,0.0,0.0,0.0,0.6064,0.6454,0.0,0.0,0.0,0.0,0.0,0.0,0.0,0.0,0.0,0.0,0.0,0.0,0.0,0.0,0.0,0.0,0.0,0.0,0.0,0.0,0.0,0.0,0.0,0.0,0.0,0.0,0.0,0.0,0.0,0.0,0.0,0.0,0.0,0.0,0.0,0.0,0.0,0.0,0.0,0.0,0.0,0.0,0.0,0.0,0.0,0.0,0.0,0.0,0.0,0.0,0.0,0.0,0.0,0.0,0.0,0.5759,0.5673,0.5955,0.665,0.6522,0.6804,0.7652,0.7107,0.6961,0.0,0.0,0.0,0.0,0.0,0.0,0.0,0.0,0.0,0.0,0.0,0.0,0.0,0.0,0.0,0.0,0.0,0.0,0.0,0.0,0.0,0.0,0.0,0.0,0.0,0.0,0.0,0.0,0.0,0.0,0.0,0.0,0.0,0.0,0.0,0.0,0.0,0.0,0.0,0.0,0.0,0.4166,0.4826,0.5106,0.0,0.0,0.0,0.0,0.5639,0.6051,0.0,0.0,0.0,0.0,0.0,0.0,0.0,0.0,0.0,0.0,0.0,0.0,0.0,0.0,0.0,0.0,0.0,0.0,0.0,0.0,0.0,0.0,0.0,0.0,0.0,0.0,0.0,0.0,0.0,0.0,0.0,0.0,0.0,0.0,0.0,0.0,0.0,0.0,0.0,0.0,0.0,0.0,0.0,0.0,0.0,0.0,0.0,0.0,0.0,0.0,0.0,0.0,0.0,0.0,0.0,0.0,0.549,0.5576,0.5762,0.6089,0.6103,0.6329,0.6895,0.6665,0.665,0.0,0.0,0.0,0.0,0.0,0.0,0.0,0.0,0.0,0.0,0.0,0.0,0.0,0.0,0.0,0.0,0.0,0.0,0.0,0.0,0.0,0.0,0.0,0.0,0.0,0.0,0.0,0.0,0.0,0.0,0.0,0.0,0.0,0.0,0.0,0.0,0.0,0.0,0.0,0.0,0.0,0.442,0.4609,0.4908,0.5081,0.0,0.0,0.5568,0.538,0.5707,0.0,0.0,0.0,0.0,0.0,0.0,0.0,0.0,0.0,0.0,0.0,0.0,0.0,0.0,0.0,0.0,0.0,0.0,0.0,0.0,0.0,0.0,0.0,0.0,0.0,0.0,0.0,0.0,0.0,0.0,0.0,0.0,0.0,0.0,0.0,0.0,0.0,0.0,0.0,0.0,0.0,0.0,0.0,0.0,0.0,0.0,0.0,0.0,0.0,0.0,0.0,0.0,0.0,0.0,0.0,0.4539,0.5439,0.5361,0.5518,0.5974,0.5916,0.6082,0.6526,0.6438,0.6344,0.0,0.0,0.0,0.0,0.0,0.0,0.0,0.0,0.0,0.0,0.0,0.0,0.0,0.0,0.0,0.0,0.0,0.0,0.0,0.0,0.0,0.0,0.0,0.0,0.0,0.0,0.0,0.0,0.0,0.0,0.0,0.0,0.0,0.0,0.0,0.0,0.0,0.0,0.0,0.0,0.0,0.0,0.4559,0.4719,0.0,0.0,0.0,0.5481,0.5588,0.0,0.0,0.0,0.0,0.0,0.0,0.0,0.0,0.0,0.0,0.0,0.0,0.0,0.0,0.0,0.0,0.0,0.0,0.0,0.0,0.0,0.0,0.0,0.0,0.0,0.0,0.0,0.0,0.0,0.0,0.0,0.0,0.0,0.0,0.0,0.0,0.0,0.0,0.0,0.0,0.0,0.0,0.0,0.0,0.0,0.0,0.0,0.0,0.0,0.0,0.0,0.0,0.0,0.0,0.0,0.0,0.0,0.535,0.5132,0.5287,0.5851,0.5698,0.5781,0.6145,0.6179,0.0,0.0,0.0,0.0,0.0,0.0,0.0,0.0,0.0,0.0,0.0,0.0,0.0,0.0,0.0,0.0,0.0,0.0,0.0,0.0,0.0,0.0,0.0,0.0,0.0,0.0,0.0,0.2705,0.0,0.0,0.0,0.0,0.0,0.0,0.0,0.0,0.0,0.0,0.0,0.0,0.0,0.0,0.4228,0.4647,0.4645,0.4755,0.0,0.0,0.5314,0.5615,0.5793,0.5794,0.0,0.0,0.0,0.0,0.0,0.0,0.0,0.0,0.0,0.0,0.0,0.0,0.0,0.0,0.0,0.0,0.0,0.0,0.0,0.0,0.0,0.0,0.0,0.0,0.0,0.0,0.0,0.0,0.0,0.0,0.0,0.0,0.0,0.0,0.0,0.0,0.0,0.0,0.0,0.0,0.0,0.0,0.0,0.0,0.0,0.0,0.0,0.0,0.0,0.0,0.0,0.0,0.0,0.0,0.4331,0.4998,0.5004,0.5195,0.5487,0.5227,0.5262,0.5715,0.5916,0.5781,0.0,0.0,0.0,0.0,0.0,0.0,0.0,0.0,0.0,0.0,0.0,0.0,0.0,0.0,0.0,0.0,0.0,0.0,0.0,0.0,0.0,0.0,0.0,0.0,0.0,0.0,0.0,0.0,0.0,0.0,0.0,0.0,0.0,0.0,0.0,0.0,0.0,0.0,0.0,0.0,0.0,0.4541,0.49,0.4825,0.4632,0.0,0.4706,0.499,0.5227,0.4934,0.4971,0.5681,0.0,0.0,0.0,0.0,0.0,0.0,0.0,0.0,0.0,0.0,0.0,0.0,0.0,0.0,0.0,0.0,0.0,0.0,0.0,0.0,0.0,0.0,0.0,0.0,0.0,0.0,0.0,0.0,0.0,0.0,0.0,0.0,0.0,0.0,0.0,0.0,0.0,0.0,0.0,0.0,0.0,0.0,0.0,0.0,0.0,0.0,0.0,0.0,0.0,0.0,0.0,0.0,0.0,0.4625,0.5305,0.5381,0.5548,0.5792,0.5447,0.5286,0.5327,0.5696,0.5642,0.0,0.0,0.0,0.0,0.0,0.0,0.0,0.0,0.0,0.0,0.0,0.0,0.0,0.0,0.0,0.0,0.0,0.0,0.0,0.0,0.0,0.0,0.0,0.0,0.0,0.0,0.0,0.0,0.2893,0.308,0.3103,0.0,0.0,0.0,0.0,0.0,0.0,0.0,0.0,0.0,0.0,0.4978,0.5017,0.4815,0.0,0.0,0.4711,0.4779,0.4982,0.5044,0.5043,0.4833,0.5093,0.0,0.0,0.0,0.0,0.0,0.0,0.0,0.0,0.0,0.0,0.0,0.0,0.0,0.0,0.0,0.0,0.0,0.0,0.0,0.0,0.0,0.0,0.0,0.0,0.0,0.0,0.0,0.0,0.0,0.0,0.0,0.0,0.0,0.0,0.0,0.0,0.0,0.0,0.0,0.0,0.0,0.0,0.0,0.0,0.0,0.0,0.0,0.0,0.0,0.0,0.0,0.0,0.4969,0.5515,0.5739,0.5909,0.6022,0.5603,0.5286,0.5126,0.5427,0.5356,0.0,0.0,0.0,0.0,0.0,0.0,0.0,0.0,0.0,0.0,0.0,0.0,0.0,0.0,0.0,0.0,0.0,0.0,0.0,0.0,0.0,0.0,0.0,0.0,0.0,0.0,0.0,0.0,0.3354,0.3447,0.3191,0.0,0.0,0.0,0.0,0.0,0.0,0.0,0.0,0.0,0.0,0.5156,0.5031,0.4891,0.4848,0.4896,0.4723,0.4673,0.5009,0.5292,0.5259,0.458,0.0,0.0,0.0,0.0,0.0,0.0,0.0,0.0,0.0,0.0,0.0,0.0,0.0,0.0,0.0,0.0,0.0,0.0,0.0,0.0,0.0,0.0,0.0,0.0,0.0,0.0,0.0,0.4412,0.0,0.0,0.4465,0.0,0.0,0.0,0.0,0.0,0.0,0.0,0.0,0.0,0.0,0.0,0.0,0.0,0.0,0.0,0.0,0.0,0.0,0.0,0.0,0.0,0.0,0.5268,0.5597,0.5976,0.6156,0.5998,0.5539,0.5251,0.511,0.5101,0.493,0.4557,0.0,0.0,0.0,0.0,0.0,0.0,0.0,0.0,0.0,0.0,0.0,0.0,0.0,0.0,0.0,0.0,0.0,0.0,0.0,0.0,0.0,0.0,0.0,0.0,0.0,0.0,0.3856,0.3891,0.3607,0.0,0.0,0.0,0.0,0.0,0.0,0.0,0.0,0.0,0.4952,0.5021,0.5003,0.5001,0.5047,0.5048,0.4937,0.4694,0.4735,0.5307,0.558,0.5644,0.0,0.0,0.0,0.0,0.0,0.0,0.0,0.0,0.0,0.0,0.0,0.0,0.0,0.0,0.0,0.0,0.0,0.0,0.0,0.0,0.0,0.0,0.0,0.0,0.0,0.0,0.0,0.5664,0.5431,0.0,0.0,0.0,0.0,0.0,0.0,0.0,0.0,0.0,0.0,0.0,0.5255,0.5651,0.0,0.0,0.0,0.0,0.0,0.0,0.0,0.0,0.0,0.0,0.0,0.0,0.5609,0.5691,0.6409,0.6697,0.6528,0.5805,0.5302,0.5107,0.5104,0.5095,0.5094,0.0,0.0,0.0,0.0,0.0,0.0,0.0,0.0,0.0,0.0,0.0,0.0,0.0,0.0,0.0,0.0,0.0,0.0,0.0,0.0,0.0,0.0,0.0,0.0,0.0,0.3805,0.0,0.0,0.0,0.0,0.0,0.0,0.0,0.0,0.0,0.0,0.0,0.531,0.544,0.5752,0.573,0.5275,0.5319,0.5356,0.0,0.0,0.0,0.0,0.0,0.0,0.0,0.0,0.0,0.0,0.0,0.0,0.0,0.0,0.6197,0.6016,0.5442,0.5068,0.5379,0.0,0.0,0.0,0.0,0.0,0.0,0.0,0.0,0.0,0.0,0.0,0.0,0.0,0.0,0.6347,0.0,0.6082,0.0,0.0,0.0,0.0,0.0,0.0,0.0,0.0,0.636,0.6297,0.5727,0.6101,0.6055,0.0,0.5528,0.5485,0.0,0.0,0.0,0.0,0.0,0.0,0.0,0.0,0.6036,0.6125,0.6866,0.7169,0.6992,0.6167,0.5622,0.5418,0.5074,0.4998,0.5196,0.5423,0.535,0.0,0.0,0.0,0.0,0.0,0.0,0.0,0.0,0.0,0.0,0.0,0.0,0.0,0.0,0.0,0.0,0.0,0.0,0.0,0.0,0.0,0.0,0.0,0.4208,0.0,0.0,0.0,0.0,0.0,0.0,0.0,0.0,0.0,0.499,0.5265,0.548,0.5569,0.5752,0.5716,0.5256,0.0,0.0,0.0,0.0,0.0,0.0,0.0,0.4954,0.5341,0.5183,0.5116,0.5448,0.5874,0.6094,0.5872,0.0,0.0,0.5874,0.5366,0.5045,0.5357,0.5445,0.5604,0.5979,0.6191,0.6285,0.0,0.0,0.0,0.0,0.0,0.0,0.0,0.0,0.6969,0.6789,0.0,0.6526,0.0,0.0,0.0,0.0,0.0,0.6498,0.0,0.0,0.7149,0.7092,0.6538,0.648,0.6313,0.6019,0.6007,0.6013,0.6002,0.5384,0.0,0.0,0.0,0.0,0.0,0.0,0.6587,0.6891,0.7293,0.7466,0.7352,0.6533,0.6063,0.5922,0.5015,0.4603,0.4784,0.4894,0.5015,0.5182,0.4921,0.0,0.0,0.0,0.0,0.0,0.0,0.0,0.0,0.0,0.0,0.0,0.0,0.0,0.0,0.0,0.0,0.0,0.0,0.0,0.0,0.4608,0.0,0.0,0.0,0.0,0.0,0.0,0.0,0.0,0.0,0.0,0.5005,0.5053,0.5091,0.5262,0.0,0.0,0.0,0.0,0.5621,0.5685,0.5665,0.5664,0.5757,0.6499,0.6772,0.5762,0.0,0.0,0.5951,0.6188,0.6303,0.6078,0.5791,0.5722,0.5952,0.5723,0.5595,0.569,0.5885,0.612,0.6217,0.6412,0.6663,0.698,0.0,0.0,0.0,0.0,0.7719,0.7933,0.8236,0.7865,0.7776,0.7839,0.7798,0.0,0.0,0.0,0.0,0.0,0.0,0.73,0.7297,0.7224,0.7068,0.6855,0.6613,0.6444,0.6282,0.6282,0.638,0.6544,0.6363,0.6058,0.5652,0.0,0.0,0.0,0.0,0.6839,0.6738,0.7347,0.7372,0.6683,0.6446,0.5949,0.5229,0.4755,0.4533,0.458,0.5105,0.53,0.5074,0.5497,0.0,0.0,0.0,0.0,0.0,0.0,0.0,0.0,0.0,0.0,0.0,0.0,0.0,0.0,0.0,0.0,0.0,0.0,0.0,0.3987,0.459,0.4908,0.0,0.0,0.0,0.0,0.0,0.0,0.0,0.0,0.0,0.5402,0.531,0.5221,0.0,0.0,0.561,0.5285,0.5577,0.5874,0.5913,0.6076,0.0,0.6467,0.657,0.6413,0.5841,0.5457,0.5188,0.5249,0.518,0.502,0.487,0.4749,0.4742,0.4918,0.4862,0.4961,0.5407,0.5295,0.5279,0.5804,0.6026,0.6075,0.6965,0.7159,0.7463,0.7702,0.7786,0.7885,0.8053,0.8336,0.8206,0.8151,0.8148,0.8178,0.8031,0.7736,0.7613,0.0,0.0,0.0,0.786,0.7752,0.758,0.7392,0.7235,0.6968,0.6851,0.6864,0.6774,0.685,0.7047,0.7009,0.6754,0.631,0.0,0.0,0.6269,0.6776,0.6993,0.6951,0.7332,0.7291,0.691,0.657,0.6071,0.5328,0.5133,0.5114,0.521,0.5693,0.5901,0.5726,0.5985,0.5877,0.0,0.0,0.0,0.0,0.0,0.0,0.0,0.0,0.0,0.0,0.0,0.3724,0.3392,0.0,0.0,0.0,0.4031,0.4254,0.4621,0.4948,0.0,0.0,0.0,0.0,0.0,0.0,0.0,0.5591,0.5417,0.5373,0.5512,0.5499,0.5499,0.5545,0.5793,0.5804,0.5504,0.0,0.6027,0.6027,0.6242,0.6468,0.6626,0.6572,0.6451,0.6275,0.5717,0.5356,0.5461,0.5203,0.4971,0.487,0.4742,0.4759,0.5054,0.5047,0.5047,0.5317,0.5244,0.532,0.575,0.5924,0.6056,0.7066,0.7136,0.7351,0.7729,0.8115,0.8165,0.8049,0.7906,0.8127,0.8159,0.801,0.8136,0.8176,0.8153,0.8248,0.0,0.841,0.8404,0.8303,0.8091,0.8068,0.7924,0.7631,0.7494,0.7487,0.7596,0.7347,0.7305,0.742,0.7327,0.7246,0.7267,0.7124,0.7149,0.7271,0.7077,0.7101,0.7439,0.7237,0.7262,0.7484,0.6762,0.623,0.5949,0.5916,0.6049,0.6338,0.6525,0.6692,0.6758,0.6355,0.6121,0.615,0.0,0.0,0.0,0.0,0.0,0.0,0.0,0.0,0.0,0.0,0.0,0.0,0.0,0.0,0.0,0.4515,0.0,0.5525,0.5447,0.0,0.0,0.0,0.544,0.5707,0.597,0.6184,0.6213,0.0,0.0,0.5477,0.5621,0.5805,0.5992,0.5898,0.5752,0.5717,0.5895,0.6019,0.6024,0.6236,0.6413,0.6434,0.6508,0.659,0.675,0.652,0.6181,0.6212,0.5913,0.5701,0.5658,0.543,0.543,0.5989,0.6105,0.5964,0.5435,0.5681,0.5962,0.5924,0.6131,0.6338,0.6921,0.7136,0.7195,0.7249,0.7408,0.7676,0.7777,0.7768,0.7814,0.8193,0.8732,0.8776,0.8733,0.8612,0.8359,0.8365,0.8586,0.8531,0.8642,0.8733,0.8565,0.8323,0.8045,0.7775,0.7631,0.7596,0.7541,0.7559,0.7707,0.7666,0.7667,0.7753,0.7712,0.7562,0.7257,0.7452,0.7281,0.6727,0.7212,0.7218,0.6694,0.6301,0.6195,0.6347,0.6116,0.6236,0.6797,0.698,0.6941,0.6734,0.6781,0.661,0.6068,0.5625,0.0,0.0,0.0,0.0,0.0,0.0,0.0,0.0,0.0,0.4819,0.4037,0.0,0.5244,0.0,0.5898,0.6042,0.5566,0.5664,0.0,0.0,0.568,0.5834,0.5971,0.6287,0.649,0.6487,0.6476,0.6393,0.6165,0.6225,0.6219,0.6031,0.5875,0.5717,0.575,0.589,0.6059,0.6147,0.6282,0.6413,0.641,0.6145,0.6179,0.6666,0.6139,0.5833,0.6207,0.5996,0.5701,0.5709,0.5658,0.5794,0.6265,0.7247,0.7692,0.6959,0.6414,0.6157,0.6382,0.6327,0.6251,0.6659,0.6772,0.6775,0.6775,0.684,0.7256,0.7456,0.7456,0.7613,0.788,0.8156,0.8362,0.8629,0.8893,0.8633,0.8685,0.8942,0.8939,0.8949,0.9001,0.8889,0.8707,0.8445,0.8286,0.8164,0.812,0.8014,0.8044,0.8136,0.8094,0.8065,0.8109,0.8115,0.801,0.7769,0.778,0.7546,0.6991,0.7175,0.7028,0.6522,0.6361,0.6469,0.691,0.6983,0.7256,0.7783,0.8024,0.7856,0.7278,0.7301,0.7077,0.661,0.609,0.5809,0.0,0.0,0.0,0.0,0.0,0.0,0.0,0.0,0.0,0.0,0.0,0.5974,0.64,0.6603,0.6563,0.6222,0.6263,0.6297,0.6325,0.6281,0.6272,0.644,0.6566,0.6712,0.6799,0.6847,0.6747,0.6557,0.6521,0.6418,0.623,0.6032,0.5924,0.5996,0.6052,0.6134,0.6369,0.6391,0.641,0.6401,0.6227,0.6264,0.6663,0.6398,0.6221,0.655,0.6425,0.6298,0.6267,0.6413,0.6623,0.6888,0.7646,0.8183,0.7763,0.7177,0.6898,0.702,0.6884,0.6731,0.643,0.6408,0.6466,0.6442,0.6474,0.6842,0.7015,0.7052,0.7418,0.7438,0.7256,0.7605,0.8262,0.9012,0.8956,0.9106,0.9364,0.9361,0.9263,0.9057,0.9159,0.9061,0.886,0.8857,0.8808,0.8752,0.859,0.853,0.8626,0.8474,0.8424,0.8368,0.8368,0.8421,0.8412,0.805,0.7782,0.7613,0.7104,0.6801,0.6687,0.6637,0.6913,0.7557,0.8075,0.8477,0.8901,0.9186,0.8967,0.8091,0.7845,0.7666,0.7409,0.6781,0.6635,0.0,0.6323,0.0,0.0,0.0,0.0,0.0,0.0,0.0,0.0,0.6072,0.6688,0.7168,0.707,0.7039,0.7162,0.7071,0.7094,0.7253,0.7008,0.686,0.6931,0.6924,0.7012,0.7224,0.719,0.711,0.6854,0.6629,0.6436,0.642,0.6326,0.6288,0.6293,0.6343,0.6399,0.6635,0.6573,0.6559,0.6542,0.6582,0.6693,0.6864,0.6907,0.695,0.695,0.694,0.6975,0.7005,0.7214,0.7438,0.7525,0.7686,0.785,0.8044,0.7844,0.7607,0.7568,0.7457,0.7426,0.6588,0.6552,0.6607,0.6662,0.663,0.6751,0.6678,0.6525,0.6621,0.7082,0.7843,0.8168,0.8533,0.8956,0.8639,0.8745,0.9061,0.9057,0.9159,0.9309,0.9364,0.9208,0.8956,0.9061,0.9008,0.8808,0.8857,0.8791,0.8626,0.857,0.8524,0.8421,0.8368,0.8471,0.856,0.0,0.0,0.0,0.6941,0.6731,0.7072,0.6803,0.7121,0.8035,0.8214,0.0,0.9407,0.96,0.9372,0.8697,0.869,0.0,0.0,0.0,0.0,0.0,0.0,0.0,0.0,0.0,0.0,0.0,0.6932,0.665,0.6127,0.7009,0.7632,0.7753,0.822,0.8408,0.8154,0.8206,0.821,0.8146,0.7983,0.7699,0.7169,0.7766,0.8202,0.814,0.7827,0.7545,0.7482,0.702,0.6673,0.6643,0.6567,0.6601,0.6812,0.6858,0.6884,0.702,0.7039,0.7013,0.7064,0.7095,0.7019,0.6974,0.7077,0.7119,0.696,0.6999,0.7024,0.7041,0.7068,0.7308,0.7732,0.7485,0.7502,0.8077,0.7967,0.7714,0.7744,0.7675,0.7508,0.6986,0.0,0.6976,0.7,0.0,0.6994,0.6936,0.685,0.69,0.7433,0.8335,0.828,0.86,0.9104,0.8703,0.8786,0.9242,0.9238,0.927,0.9409,0.9462,0.9364,0.911,0.9208,0.9079,0.8745,0.8888,0.8874,0.8584,0.8619,0.8639,0.8593,0.8586,0.8567,0.8509,0.8185,0.7812,0.7565,0.709,0.6972,0.7269,0.7364,0.7661,0.8267,0.8514,0.0,0.0,0.0,0.0,0.0,0.0,0.0,0.0,0.0,0.0,0.8253,0.7761,0.7327,0.7197,0.7912,0.8201,0.775,0.817,0.8079,0.7297,0.8301,0.8875,0.8655,0.9054,0.9274,0.9103,0.8941,0.8862,0.893,0.8629,0.8248,0.8022,0.8237,0.8646,0.8848,0.8228,0.767,0.767,0.7139,0.6746,0.6735,0.6938,0.7145,0.7235,0.7364,0.7379,0.7208,0.7185,0.7265,0.7461,0.7358,0.7213,0.7058,0.7119,0.7093,0.6957,0.7108,0.7325,0.7539,0.7623,0.7814,0.85,0.848,0.8415,0.8855,0.8763,0.8483,0.84,0.819,0.8154,0.739,0.7358,0.7356,0.7373,0.7377,0.7346,0.7416,0.7471,0.0,0.0,0.0,0.8342,0.8609,0.9275,0.8889,0.8995,0.9395,0.9362,0.9337,0.9386,0.9486,0.9382,0.9183,0.9279,0.9115,0.864,0.883,0.8775,0.8495,0.8683,0.878,0.878,0.878,0.865,0.8382,0.7989,0.7664,0.747,0.7332,0.7327,0.7526,0.7822,0.8148,0.8485,0.877,0.9017,0.9249,0.9808,0.9806,0.9233,0.9488,0.9487,0.9109,0.8593,0.8582,0.9274,0.8968,0.8622,0.838,0.9506,0.9776,0.861,0.944,0.9591,0.8703,0.9571,0.995,0.9491,0.9764,0.9935,0.9935,0.9618,0.9418,0.9639,0.9156,0.8834,0.89,0.8738,0.8871,0.9359,0.8675,0.7999,0.7934,0.7451,0.6981,0.6999,0.7333,0.775,0.7823,0.7911,0.7775,0.7451,0.7386,0.7468,0.772,0.7759,0.7423,0.7413,0.7344,0.7331,0.7419,0.7463,0.7781,0.8435,0.8562,0.8908,0.9506,0.9616,0.9741,0.9813,0.9613,0.9312,0.9135,0.8997,0.894,0.774,0.7466,0.759,0.7637,0.7634,0.7668,0.7893,0.822,0.7845,0.7946,0.8353,0.8535,0.8892,0.9279,0.9032,0.9012,0.9058,0.8888,0.8978,0.9233,0.9233,0.9176,0.8955,0.913,0.8918,0.8375,0.8491,0.8491,0.8348,0.8567,0.8712,0.8712,0.8712,0.8432,0.7948,0.7823,0.7656,0.7401,0.7398,0.7551,0.79,0.763,0.7962,0.8876,0.8949,0.9278,0.9879,1.0288,1.0319,0.9887,1.0314,1.0372,0.9954,0.9781,1.0013,1.0695,0.9771,0.9555,1.028,1.0121,1.0039,1.0268,1.0774,1.0744,0.9946,1.0213,1.0204,0.9757,1.024,1.0547,1.0573,1.0375,1.0265,1.0273,0.9803,0.9458,0.9465,0.9406,0.9417,0.9595,0.9467,0.9155,0.8742,0.837,0.7909,0.7796,0.7754,0.8033,0.8517,0.8483,0.8178,0.7882,0.7792,0.7835,0.8044,0.8364,0.8406,0.827,0.8187,0.8236,0.8599,0.8069,0.8065,0.9156,0.9609,0.9947,1.0011,1.0132,1.0128,0.9955,0.968,0.9552,0.966,0.9794,0.9695,0.8582,0.8634,0.8541,0.8468,0.8431,0.85,0.861,0.8825,0.8629,0.8595,0.87,0.8805,0.8972,0.9101,0.9058,0.9029,0.9116,0.8993,0.9097,0.9276,0.9236,0.9133,0.8974,0.9085,0.8772,0.8303,0.845,0.8389,0.8183,0.8354,0.8501,0.8487,0.8391,0.8158,0.7795,0.7751,0.7642,0.7447,0.7447,0.7769,0.8415,0.8319,0.8643,0.9419,0.9446,0.9512,0.9686,1.0092,1.0267,1.0134,1.0424,1.0505,1.0269,1.0098,1.014,1.0482,1.0129,0.9871,0.9927,0.9858,1.0405,1.1569,1.1491,1.1205,1.1002,1.0669,1.0442,1.0351,1.0763,1.1023,1.1028,1.073,1.0522,1.0522,0.9984,0.9618,0.9618,0.9618,0.9618,0.9625,0.9627,0.9439,0.9071,0.8502,0.8037,0.778,0.797,0.8505,0.9173,0.9253,0.9145,0.8899,0.8687,0.8672,0.8827,0.9047,0.9109,0.8984,0.892,0.8875,0.894,0.8494,0.8784,0.9355,0.9881,1.0195,1.0301,1.0419,1.0421,1.0458,1.0262,1.0127,1.0115,1.014,1.0207,0.9517,0.9775,0.9584,0.9438,0.9351,0.9434,0.9471,0.9516,0.9401,0.9307,0.9217,0.9099,0.9056,0.902,0.8984,0.9014,0.9076,0.9062,0.908,0.918,0.9207,0.9154,0.8971,0.8967,0.8708,0.8319,0.8427,0.8323,0.8154,0.8316,0.8421,0.8393,0.8229,0.8117,0.7943,0.7878,0.7829,0.781,0.7807,0.8047,0.8582,0.8878,0.9251,0.9805,0.9891,0.9913,0.9845,1.0108,1.0303,1.0371,1.0482,1.0587,1.0539,1.0317,1.0249,1.041,1.0415,1.0259,0.9911,1.0145,1.1013,1.2502,1.196,1.1588,1.1665,1.1125,1.078,1.0959,1.1135,1.1259,1.1209,1.0812,1.0522,1.047,0.9932,0.9618,0.9618,0.9618,0.9618,0.9621,0.9613,0.9463,0.9121,0.8592,0.8131,0.7865,0.8205,0.8835,0.9373,0.9757,0.9887,0.9835,0.9544,0.9532,0.9862,0.9832,0.9734,0.9585,0.9489,0.9408,0.9195,0.9203,0.9362,0.9659,0.9868,1.0204,1.0624,1.0652,1.0689,1.0775,1.0744,1.059,1.0343,1.029,1.048,1.0379,1.0414,1.0366,1.0388,1.0312,1.0366,1.0357,1.0321,0.9986,0.9835,0.9758,0.9374,0.9203,0.9136,0.9005,0.8909,0.8807,0.8614,0.8696,0.8862,0.8977,0.8973,0.8845,0.8845,0.8668,0.8431,0.8409,0.8425,0.8397,0.8606,0.871,0.8758,0.8727,0.8594,0.8377,0.8356,0.8439,0.8655,0.8659,0.8496,0.8136,0.8735,0.9341,0.9862,1.019,1.0588,1.0957,1.0874,1.0814,1.0862,1.104,1.1114,1.1104,1.0812,1.0943,1.1567,1.0943,1.0842,1.1607,1.188,1.2063,1.2458,1.2316,1.2073,1.1895,1.158,1.1282,1.1169,1.121,1.1263,1.1272,1.0816,1.0518,1.0419,0.9936,0.9618,0.9618,0.9618,0.9618,0.9618,0.9573,0.9573,0.9481,0.9181,0.876,0.8094,0.8377,0.8753,0.9177,0.9726,1.0214,1.0364,1.002,1.0089,1.0697,1.0645,1.0229,1.0003,0.9833,0.9881,0.9902,0.9527,0.9148,0.9948,1.0193,1.0139,1.0539,1.0848,1.0813,1.0737,1.0741,1.0754,1.0669,1.0459,1.0448,1.0635,1.0862,1.0696,1.0678,1.0718,1.0633,1.0633,1.0611,1.0511,1.0487,1.0465,1.0311,0.9985,0.9609,0.9525,0.9433,0.9383,0.9345,0.9252,0.9118,0.9156,0.9068,0.891,0.8915,0.8787,0.8574,0.8484,0.8476,0.8549,0.8591,0.8614,0.8652,0.8848,0.877,0.8459,0.899,0.9222,0.9009,0.9398,0.9508,0.9354,0.9587,0.9987,1.0504,1.0819,1.1062,1.1335,1.1314,1.1276,1.1234,1.1341,1.1383,1.1389,1.1255,1.1335,1.1605,1.0991,1.0986,1.1876,1.1786,1.195,1.2423,1.2461,1.2314,1.2026,1.1859,1.1639,1.15,1.134,1.1226,1.1074,1.0726,1.0419,1.0205,0.9832,0.9618,0.9618,0.9618,0.9618,0.9614,0.9562,0.9514,0.9489,0.9186,0.8637,0.815,0.8323,0.8724,0.9078,0.975,1.0408,1.0889,1.0773,1.0777,1.1188,1.0877,1.0548,1.0402,1.0153,1.0116,0.9917,0.9857,0.9632,0.9953,0.9776,0.9724,0.9842,1.0114,1.0205,1.0248,1.0187,1.0099,0.9784,0.9839,0.9848,1.1161,1.1368,1.1274,1.1237,1.1333,1.1246,1.12,1.1187,1.1177,1.1173,1.1162,1.1046,1.0814,1.0474,1.0226,1.0037,0.9897,0.9931,0.9709,0.9323,0.9332,0.9252,0.9096,0.9088,0.9007,0.8882,0.8756,0.8837,0.9026,0.8958,0.8954,0.9106,0.9368,0.9337,0.9119,0.9776,0.9953,0.9709,1.0176,1.0456,1.056,1.0636,1.0799,1.1089,1.1314,1.151,1.1553,1.1547,1.1516,1.1516,1.1547,1.159,1.1584,1.159,1.1516,1.1404,1.1019,1.1062,1.1699,1.1473,1.1624,1.2325,1.2358,1.226,1.2152,1.1977,1.1823,1.1719,1.1469,1.1221,1.1023,1.0773,1.0518,1.0253,0.9932,0.9725,0.9725,0.9673,0.9618,0.9614,0.9514,0.9327,0.9184,0.8851,0.837,0.7859,0.808,0.8613,0.9044,0.9724,1.0385,1.0947,1.0965,1.096,1.1042,1.0885,1.0711,1.0381,1.009,0.9829,0.9572,0.965,0.9694,0.9563,0.9386,0.9355,0.9515,0.9582,0.9659,0.9683,0.9674,0.9534,0.9325,0.9386,0.9377,1.2236,1.2223,1.237,1.2371,1.2414,1.236,1.237,1.2275,1.1974,1.1851,1.1798,1.1488,1.1498,1.1705,1.1026,1.0422,0.9989,1.009,0.9897,0.947,0.947,0.9435,0.9288,0.9284,0.9288,0.9279,0.9244,0.9505,0.9962,0.9864,1.0108,1.0524,1.0524,1.0495,1.0418,1.0534,1.0682,1.0819,1.0928,1.1159,1.1488,1.1715,1.1605,1.1383,1.1616,1.1805,1.178,1.1632,1.1516,1.1516,1.1695,1.1774,1.1774,1.1774,1.1638,1.1292,1.1067,1.1129,1.1358,1.1239,1.1443,1.2059,1.2025,1.1968,1.2232,1.1972,1.1778,1.1669,1.1473,1.1322,1.1217,1.0922,1.0773,1.0718,1.0253,0.9995,0.9947,0.9669,0.9618,0.9566,0.9462,0.914,0.8514,0.8315,0.8091,0.7727,0.7795,0.8268,0.8848,0.9347,0.9847,1.0212,1.031,1.0201,1.0462,1.0467,1.0287,1.0049,0.98,0.9597,0.944,0.9341,0.9293,0.9297,0.9293,0.9288,0.9288,0.931,0.9363,0.9381,0.9398,0.927,0.9185,0.9185,0.9203,1.2407,1.2431,1.2573,1.2583,1.2513,1.2586,1.2616,1.2652,1.2618,1.2589,1.2493,1.2381,1.2358,1.2392,1.2001,1.1612,1.118,1.095,1.0709,1.0545,1.0311,1.0193,1.0153,1.0143,0.9966,0.9758,0.966,0.9839,1.0215,1.023,1.0457,1.0862,1.1126,1.1089,1.0905,1.1399,1.1653,1.1462,1.1763,1.2029,1.2108,1.23,1.2288,1.2029,1.2113,1.2191,1.2191,1.2113,1.2066,1.2077,1.2066,1.206,1.2024,1.2029,1.1884,1.1606,1.1319,1.1257,1.1403,1.1241,1.1379,1.1962,1.1897,1.1926,1.2181,1.2076,1.1877,1.1728,1.1623,1.1418,1.107,1.0824,1.0569,1.0304,0.9991,0.9725,0.9625,0.9517,0.9462,0.9364,0.9302,0.8966,0.8449,0.8247,0.8046,0.7556,0.7557,0.7853,0.8241,0.8624,0.907,0.9394,0.9585,0.9614,0.944,0.9665,0.9722,0.9619,0.949,0.9277,0.9118,0.9172,0.9177,0.9096,0.9132,0.9252,0.9252,0.9324,0.9319,0.9248,0.9248,0.9208,0.9136,0.9177,0.9136,1.2701,1.2764,1.2808,1.2822,1.2749,1.2822,1.2847,1.2885,1.3012,1.3022,1.3002,1.3007,1.2958,1.2861,1.2856,1.2667,1.2257,1.1741,1.146,1.1364,1.1045,1.0929,1.092,1.0892,1.0732,1.0474,1.0236,1.0346,1.0725,1.0759,1.1051,1.1573,1.1842,1.1794,1.161,1.2138,1.2288,1.2054,1.2348,1.255,1.2556,1.2745,1.2832,1.2814,1.272,1.2579,1.2449,1.2478,1.252,1.2484,1.2502,1.2455,1.2383,1.2294,1.2102,1.1816,1.159,1.1405,1.13,1.114,1.1246,1.1779,1.1712,1.1766,1.2185,1.2071,1.1877,1.1728,1.1573,1.1368,1.0968,1.0667,1.0415,1.0154,0.9884,0.961,0.9569,0.9472,0.9323,0.9218,0.9162,0.8817,0.8365,0.8187,0.7929,0.7537,0.7412,0.7461,0.7847,0.8202,0.8483,0.8706,0.899,0.8995,0.8856,0.8921,0.9003,0.8951,0.9044,0.8901,0.8899,0.898,0.9016,0.8935,0.8975,0.9096,0.9212,0.9324,0.9284,0.9252,0.9177,0.9136,0.9136,0.9132,0.9212,1.3089,1.3218,1.3218,1.3238,1.323,1.322,1.3205,1.3298,1.3281,1.3329,1.3395,1.3286,1.3314,1.3261,1.3457,1.3437,1.3087,1.2591,1.2099,1.1772,1.1644,1.1641,1.1581,1.1572,1.1533,1.1426,1.1019,1.1119,1.1582,1.1538,1.1884,1.2585,1.2656,1.2585,1.2668,1.2704,1.2716,1.2698,1.2883,1.2948,1.2875,1.3225,1.3484,1.3647,1.3495,1.3197,1.2644,1.2691,1.2774,1.2797,1.2988,1.3029,1.2826,1.2615,1.2282,1.1957,1.1811,1.1558,1.1115,1.1044,1.124,1.1599,1.1396,1.1591,1.2213,1.1972,1.1728,1.1678,1.1477,1.1171,1.0922,1.062,1.0466,1.0415,0.9984,0.9714,0.9718,0.9528,0.9337,0.912,0.9005,0.883,0.8447,0.8051,0.7789,0.753,0.7301,0.7291,0.7659,0.8015,0.829,0.831,0.8355,0.8363,0.8261,0.8167,0.8253,0.8311,0.8466,0.8537,0.8696,0.8777,0.8895,0.8854,0.8858,0.8975,0.9172,0.9204,0.9164,0.9132,0.9096,0.9101,0.9136,0.9217,0.9461,1.3795,1.3789,1.3842,1.3857,1.3745,1.3841,1.4061,1.4322,1.4143,1.4185,1.4312,1.4247,1.4055,1.3868,1.4055,1.4107,1.3915,1.3965,1.36,1.2858,1.2654,1.2482,1.2388,1.2453,1.2355,1.2067,1.1706,1.1932,1.2391,1.2201,1.236,1.2943,1.3084,1.306,1.3122,1.3442,1.3707,1.3839,1.4326,1.4627,1.476,1.5107,1.5083,1.4707,1.5244,1.5094,1.4026,1.359,1.3502,1.3696,1.3756,1.3663,1.3408,1.2947,1.265,1.2473,1.218,1.192,1.1684,1.1569,1.1811,1.2256,1.19,1.1982,1.2541,1.2107,1.1673,1.1578,1.1326,1.1019,1.0667,1.036,1.0158,1.015,0.9781,0.9503,0.9329,0.9033,0.884,0.8794,0.8689,0.8456,0.8097,0.782,0.756,0.7319,0.7077,0.7006,0.7214,0.7437,0.7392,0.7398,0.7528,0.7933,0.8117,0.8161,0.8117,0.8319,0.847,0.8345,0.8488,0.8692,0.8809,0.889,0.8854,0.8975,0.9128,0.9083,0.9043,0.8967,0.8935,0.902,0.9136,0.9341,0.9625,1.4463,1.4321,1.4553,1.4653,1.4553,1.468,1.4974,1.5351,1.5197,1.5145,1.5152,1.5223,1.4988,1.4715,1.4982,1.5123,1.4988,1.5413,1.5141,1.4438,1.4232,1.3988,1.3664,1.3526,1.3313,1.2974,1.2877,1.314,1.3613,1.3489,1.3653,1.4162,1.4227,1.4252,1.4246,1.4556,1.4809,1.502,1.5442,1.5745,1.5914,1.6325,1.6395,1.6126,1.6718,1.6771,1.6125,1.5662,1.5092,1.4543,1.4333,1.4212,1.4018,1.3569,1.3195,1.2953,1.2702,1.2449,1.2162,1.1962,1.22,1.268,1.2319,1.2208,1.2712,1.2255,1.1751,1.1355,1.107,1.0718,1.0293,1.0087,0.9884,0.9688,0.9469,0.9148,0.8871,0.852,0.8355,0.831,0.8338,0.8257,0.8111,0.7813,0.7541,0.7316,0.7042,0.6861,0.6965,0.7075,0.7091,0.7127,0.7394,0.7814,0.8222,0.8219,0.8055,0.8306,0.8604,0.843,0.8353,0.8643,0.8801,0.9007,0.9047,0.9332,0.9487,0.9168,0.9007,0.889,0.8854,0.9056,0.9257,0.9581,0.9867,1.5143,1.4878,1.5404,1.564,1.5626,1.5635,1.594,1.6384,1.6373,1.6094,1.5836,1.6086,1.5954,1.5691,1.6034,1.6244,1.6317,1.6579,1.662,1.6405,1.625,1.5972,1.5311,1.4835,1.4446,1.424,1.4369,1.464,1.4986,1.5036,1.5564,1.58,1.573,1.5871,1.577,1.5948,1.5995,1.6148,1.6339,1.6507,1.6566,1.7076,1.7423,1.7667,1.7993,1.83,1.8389,1.8169,1.7167,1.5334,1.5134,1.5071,1.4746,1.4401,1.4,1.3514,1.3346,1.3045,1.2638,1.2531,1.2577,1.2927,1.2717,1.2614,1.2916,1.2412,1.162,1.0859,1.0643,1.03,0.9869,0.9658,0.9458,0.9204,0.9054,0.8762,0.8156,0.7992,0.8163,0.8362,0.8437,0.8842,0.9354,0.9167,0.8984,0.8614,0.8303,0.7865,0.7842,0.7967,0.7422,0.7278,0.7179,0.7303,0.7625,0.9723,0.9475,0.8871,0.9096,0.8888,0.8596,0.8776,0.8837,0.9043,0.9164,0.9487,0.9487,0.9043,0.8837,0.8797,0.8882,0.9132,0.9377,0.962,0.9906,1.6285,1.6225,1.6729,1.6967,1.6991,1.6991,1.7226,1.7635,1.7434,1.729,1.7075,1.7076,1.6846,1.6361,1.6737,1.6976,1.717,1.7626,1.7875,1.7946,1.827,1.7545,1.6514,1.5902,1.5761,1.5855,1.5666,1.5743,1.64,1.614,1.6193,1.6494,1.6513,1.6422,1.6501,1.699,1.7317,1.7626,1.8106,1.8396,1.8593,1.9101,1.9237,1.8954,1.9799,1.9951,1.9528,1.9448,1.9,1.7863,1.7403,1.6984,1.6436,1.5756,1.5063,1.4424,1.4057,1.3809,1.3482,1.3588,1.3685,1.357,1.3336,1.3081,1.3197,1.2543,1.1371,1.0285,0.9993,1.0124,0.939,0.9192,0.8909,0.8501,0.8998,0.8644,0.797,0.7781,0.8423,1.0574,1.1714,1.2437,1.2887,1.3353,1.3466,1.3071,1.1713,1.0214,1.0283,0.9189,0.8672,0.7118,0.6667,0.6695,0.7547,1.004,1.0872,0.986,0.9672,0.9628,0.9351,0.9248,0.9093,0.8963,0.8922,0.9164,0.8918,0.8508,0.8545,0.8545,0.8675,0.8801,0.9083,0.9324,0.9783,1.7137,1.7048,1.7804,1.8147,1.8121,1.8117,1.8417,1.8779,1.8802,1.8566,1.8417,1.8331,1.8112,1.7717,1.7815,1.8006,1.8274,1.8712,1.8944,1.9137,1.9442,1.8825,1.7718,1.7198,1.7151,1.7267,1.7163,1.7388,1.7761,1.7616,1.7655,1.7892,1.7827,1.7791,1.7899,1.8274,1.8643,1.8973,1.9456,1.9861,2.0085,2.0734,2.0852,2.0719,2.1458,2.1532,2.1053,2.1063,2.0584,1.9495,1.8872,1.8474,1.8,1.7154,1.6391,1.575,1.5291,1.4916,1.4931,1.5177,1.4957,1.4477,1.4293,1.4146,1.3842,1.3448,1.2991,1.3763,1.332,1.29,1.2496,1.2162,1.1922,1.197,1.1311,1.0137,0.804,0.7345,0.9337,1.2339,1.4611,1.524,1.5482,1.5988,1.6272,1.5807,1.4405,1.3659,1.3279,1.1589,1.0297,0.9442,0.8208,0.8363,0.9806,1.222,1.2757,1.175,1.0419,1.0333,1.0333,0.9919,0.8742,0.846,0.859,0.8635,0.8345,0.814,0.8062,0.8103,0.8226,0.8431,0.8716,0.9035,0.9487,1.7867,1.7682,1.8693,1.91,1.9181,1.9212,1.9515,1.9985,2.013,1.9959,1.9621,1.9659,1.9394,1.9231,1.9024,1.922,1.9515,1.9709,1.9908,2.0059,2.0187,1.976,1.9023,1.8551,1.8436,1.8471,1.8873,1.8979,1.9112,1.9439,1.957,1.9478,1.9589,1.9615,1.9471,1.9733,1.9919,2.0012,2.0517,2.0927,2.118,2.1694,2.1922,2.2017,2.2444,2.2728,2.2682,2.2688,2.2101,2.0422,1.9881,1.97,1.9473,1.8612,1.7998,1.7593,1.6886,1.6538,1.6905,1.7068,1.6713,1.5889,1.6316,1.5958,1.5059,1.5315,1.6434,1.7773,1.7853,1.6673,1.6322,1.6651,1.6127,1.5403,1.5174,1.2844,0.9387,0.7631,0.9589,1.5024,1.7264,1.7329,1.6878,1.6808,1.7662,1.9416,1.7881,1.6794,1.6147,1.4837,1.402,1.3541,1.2156,1.0603,1.25,1.4692,1.4395,1.3701,1.1865,1.1225,1.1493,1.073,0.8697,0.7792,0.7972,0.8058,0.7931,0.7769,0.7646,0.752,0.7637,0.7972,0.8349,0.8667,0.9075,1.8335,1.8936,1.9398,1.9986,2.0522,2.0562,2.0811,2.1217,2.1055,2.092,2.0647,2.0612,2.0264,1.9675,2.0059,2.0168,2.0091,2.0384,2.0652,2.0697,2.0807,2.0767,2.033,1.9828,1.9675,1.9776,1.9675,1.9916,2.0261,2.0303,2.0379,2.047,2.0379,2.0379,2.0522,2.0707,2.0798,2.0783,2.1352,2.1869,2.2132,2.2381,2.2556,2.2635,2.3085,2.33,2.3369,2.3597,2.3524,2.3016,2.2216,2.1439,2.0883,2.001,1.9429,1.9102,1.8567,1.8293,1.8743,1.9161,1.9164,1.8313,1.855,1.8438,1.6762,1.7674,1.8629,1.9191,1.8369,1.7931,1.7527,1.6895,1.7215,1.7201,1.6672,1.5493,1.299,1.1842,1.3614,1.7826,2.045,2.1505,2.1141,2.2038,2.2541,2.28,2.1612,2.0072,1.8951,1.7947,1.7399,1.6908,1.5028,1.3556,1.4837,1.6309,1.5694,1.4934,1.3236,1.2037,1.2299,1.1603,0.9545,0.8196,0.7398,0.7602,0.8303,0.7408,0.7291,0.7168,0.7004,0.7259,0.7592,0.8084,0.8663,1.9963,2.073,2.1154,2.1586,2.193,2.1965,2.2144,2.2349,2.2402,2.2193,2.1941,2.1975,2.1684,2.1175,2.1144,2.1061,2.1051,2.1037,2.1182,2.1306,2.1382,2.142,2.1397,2.1022,2.0855,2.0797,2.0692,2.0805,2.0918,2.0983,2.0975,2.1031,2.0942,2.1039,2.1235,2.1472,2.1602,2.1769,2.2294,2.2799,2.2989,2.3168,2.3291,2.336,2.3671,2.3816,2.386,2.4008,2.4145,2.4051,2.3641,2.312,2.2549,2.1688,2.1176,2.0965,2.0271,2.022,2.0716,2.1126,2.0954,1.9903,2.0521,2.0009,1.9341,1.9831,2.1138,2.1818,2.1775,2.1098,2.0755,2.084,2.0742,2.0641,2.0217,1.9709,1.8707,1.5705,1.5245,1.9853,2.2191,2.285,2.3664,2.4667,2.4936,2.4043,2.4036,2.2633,2.1872,2.0933,2.0355,1.9446,1.752,1.6676,1.7546,1.7783,1.6907,1.58,1.4228,1.3275,1.2983,1.1866,1.045,0.9748,0.9286,0.9018,0.935,0.8268,0.7183,0.6584,0.6448,0.6567,0.6952,0.7669,0.8261,2.1783,2.2473,2.2894,2.3148,2.3244,2.3251,2.3338,2.3518,2.3711,2.3381,2.3243,2.3402,2.315,2.2845,2.2501,2.229,2.2102,2.1912,2.187,2.1802,2.1849,2.1903,2.1911,2.1845,2.1672,2.1252,2.1399,2.1485,2.1471,2.1524,2.1562,2.1493,2.1509,2.1642,2.1852,2.2071,2.2325,2.2635,2.3093,2.344,2.3598,2.3798,2.3939,2.4096,2.4182,2.4229,2.4266,2.4356,2.4426,2.4467,2.4474,2.4343,2.397,2.3281,2.2877,2.2841,2.2035,2.1988,2.2571,2.2936,2.2606,2.1073,2.1992,2.2199,2.1706,2.2075,2.3234,2.4327,2.4668,2.4663,2.5487,2.4791,2.4959,2.5055,2.4684,2.4904,2.4074,1.8942,1.9209,2.1272,2.3326,2.3964,2.4242,2.4844,2.5132,2.5359,2.5351,2.5125,2.4243,2.3645,2.2861,2.2631,2.1016,1.8922,1.9394,1.9139,1.8284,1.7503,1.5811,1.5373,1.4835,1.4811,1.4142,1.2425,1.1822,1.1306,1.0569,0.977,0.8469,0.6806,0.6577,0.7372,0.7532,0.744,0.7877,2.237,2.3126,2.2997,2.3325,2.3967,2.4021,2.422,2.4407,2.4277,2.4051,2.3968,2.4298,2.4006,2.353,2.4088,2.3826,2.3129,2.2844,2.2635,2.2357,2.2327,2.231,2.2358,2.233,2.222,2.2135,2.2089,2.2061,2.2057,2.2152,2.2086,2.2115,2.2086,2.2206,2.245,2.2703,2.2916,2.3226,2.3567,2.3775,2.3878,2.4001,2.4164,2.4374,2.4478,2.451,2.4508,2.462,2.4746,2.4818,2.4818,2.4823,2.462,2.3774,2.3589,2.3775,2.3499,2.3413,2.4073,2.4492,2.4648,2.455,2.4494,2.4693,2.4522,2.4643,2.4861,2.5166,2.5526,2.5535,2.559,2.5593,2.5602,2.5559,2.5515,2.5418,2.5192,2.3962,2.2193,2.3392,2.4297,2.4865,2.4931,2.5036,2.5308,2.5485,2.5466,2.5451,2.503,2.486,2.4735,2.4776,2.483,2.2607,2.0956,2.0335,1.9686,1.9507,1.8589,1.8535,1.8358,1.8967,1.8231,1.5775,1.3725,1.2548,1.1834,1.1516,1.0879,1.0042,0.9357,0.8491,0.8579,0.857,0.7691,2.392,2.4614,2.4485,2.4702,2.5035,2.509,2.5245,2.5422,2.5283,2.4965,2.4887,2.5221,2.5069,2.4525,2.4751,2.4613,2.4054,2.3863,2.3718,2.351,2.3173,2.3008,2.2967,2.2774,2.264,2.2632,2.2624,2.2497,2.2386,2.2369,2.2413,2.2377,2.2349,2.2526,2.2857,2.3045,2.3321,2.3603,2.3843,2.3987,2.4034,2.4134,2.4373,2.4561,2.4645,2.4706,2.479,2.4818,2.4925,2.499,2.5016,2.505,2.4895,2.4667,2.4354,2.4624,2.4496,2.4512,2.495,2.5168,2.5157,2.5289,2.5362,2.5372,2.5427,2.536,2.5498,2.5501,2.5497,2.5499,2.5525,2.5554,2.5556,2.5551,2.561,2.5661,2.5696,2.5693,2.5112,2.4418,2.4937,2.5278,2.5208,2.5356,2.5556,2.5615,2.5579,2.5533,2.5492,2.5439,2.5379,2.4861,2.4594,2.305,2.1205,2.0711,2.0372,2.0354,2.032,2.0299,2.0248,2.0106,1.9563,1.8073,1.6206,1.4679,1.4926,1.5207,1.426,1.2957,1.0917,0.9499,0.9747,0.9571,0.846,2.5499,2.6057,2.6063,2.6035,2.6035,2.6035,2.6115,2.6239,2.6214,2.5811,2.5389,2.603,2.5985,2.5513,2.5448,2.5348,2.4661,2.4748,2.4778,2.4411,2.4199,2.4014,2.3698,2.3397,2.3068,2.2927,2.2961,2.2868,2.265,2.2624,2.2632,2.2632,2.2587,2.2764,2.3155,2.3294,2.3562,2.3804,2.4005,2.4074,2.4105,2.4321,2.4554,2.4751,2.4779,2.4851,2.4953,2.4993,2.506,2.5113,2.5138,2.5149,2.5139,2.5182,2.5192,2.5182,2.516,2.5225,2.5284,2.5274,2.5302,2.5383,2.5341,2.5341,2.5351,2.5388,2.5407,2.5392,2.5398,2.5424,2.5473,2.5492,2.5483,2.5504,2.5531,2.5595,2.5652,2.5678,2.5696,2.5449,2.5696,2.5627,2.5476,2.5481,2.5641,2.5668,2.5627,2.5255,2.5216,2.5148,2.4898,2.4075,2.334,2.2245,2.1158,2.0677,2.0453,2.0434,2.0378,2.0331,2.0324,2.0284,1.9685,1.9249,1.927,1.8096,1.8524,1.832,1.7333,1.5383,1.2143,1.0676,1.1139,0.9959,0.8296,2.6411,2.6531,2.6504,2.6511,2.6511,2.6503,2.6511,2.6529,2.6504,2.6262,2.5852,2.633,2.6365,2.6169,2.6531,2.5999,2.5476,2.5613,2.5556,2.4955,2.5038,2.4882,2.4375,2.4208,2.3665,2.3337,2.3163,2.3061,2.3116,2.3125,2.302,2.3012,2.3074,2.3151,2.338,2.3491,2.3676,2.3855,2.3876,2.3939,2.4106,2.4312,2.4479,2.4619,2.4753,2.4884,2.4999,2.5032,2.5118,2.522,2.5253,2.5273,2.5283,2.5283,2.5312,2.5349,2.5377,2.5397,2.5447,2.5394,2.535,2.5376,2.5331,2.5302,2.5312,2.5312,2.5341,2.5387,2.5386,2.5394,2.5419,2.5416,2.5412,2.5439,2.5473,2.5545,2.56,2.5655,2.5671,2.5695,2.5702,2.5693,2.5623,2.5661,2.5697,2.5699,2.561,2.5246,2.4843,2.4706,2.4964,2.4326,2.3397,2.2285,2.1641,2.1089,2.0966,2.0812,2.0506,2.0462,2.0578,2.0585,2.0304,2.0044,2.0277,1.978,1.8623,1.8489,1.9312,1.7121,1.299,1.2259,1.2737,1.0795,0.7936,2.6741,2.6681,2.6657,2.6649,2.6649,2.6657,2.6708,2.675,2.6733,2.6556,2.6357,2.6649,2.6775,2.6799,2.7111,2.6933,2.6575,2.6824,2.6778,2.6076,2.6105,2.5966,2.5553,2.4864,2.4157,2.4052,2.3703,2.3777,2.3845,2.3841,2.3636,2.3358,2.3589,2.3671,2.362,2.3607,2.3716,2.381,2.3885,2.3979,2.4192,2.4338,2.4469,2.4632,2.4753,2.488,2.4976,2.5019,2.5084,2.5177,2.5191,2.5191,2.5212,2.5262,2.5303,2.5331,2.5377,2.5437,2.5524,2.5447,2.5406,2.5383,2.534,2.5303,2.5302,2.5312,2.5313,2.5332,2.5332,2.5359,2.5394,2.5394,2.5427,2.5449,2.5452,2.5496,2.5568,2.5615,2.5652,2.5675,2.5693,2.5691,2.5691,2.5693,2.5693,2.5699,2.5579,2.5262,2.46,2.3971,2.4431,2.4944,2.391,2.2802,2.2323,2.1855,2.194,2.1688,2.0788,2.0803,2.0992,2.0939,2.0618,2.0349,2.0291,1.9527,1.831,1.6816,1.5936,1.4747,1.344,1.2389,1.1244,0.9232,0.7434,2.698,2.6853,2.6815,2.6791,2.6791,2.6767,2.6851,2.6942,2.6923,2.6808,2.6725,2.6949,2.7175,2.7315,2.7422,2.7347,2.7368,2.7672,2.765,2.7423,2.7231,2.6986,2.6517,2.5671,2.5223,2.5108,2.4673,2.4692,2.4983,2.5087,2.4821,2.402,2.4331,2.4299,2.396,2.3772,2.3792,2.3861,2.3944,2.4075,2.4229,2.4311,2.4478,2.461,2.4719,2.4832,2.4957,2.4993,2.5035,2.5158,2.5172,2.5204,2.5245,2.5331,2.5386,2.5408,2.5447,2.5518,2.556,2.5528,2.5444,2.5382,2.533,2.5274,2.5303,2.5322,2.535,2.534,2.5365,2.5382,2.539,2.5393,2.5437,2.5453,2.5461,2.5483,2.5521,2.5556,2.562,2.5675,2.5684,2.5678,2.5676,2.5697,2.5702,2.5693,2.5517,2.5243,2.4587,2.3774,2.3866,2.4555,2.4378,2.3577,2.3601,2.3211,2.3125,2.258,2.1685,2.1237,2.1483,2.1252,2.085,2.0614,2.0463,1.8878,1.7444,1.4758,1.2287,1.2123,1.1683,1.0232,0.876,0.7099,0.7535,2.729,2.7233,2.7135,2.7062,2.7045,2.7074,2.7083,2.7094,2.7023,2.704,2.7068,2.7261,2.747,2.7642,2.7648,2.7492,2.7067,2.776,2.7736,2.7701,2.7754,2.7673,2.7261,2.684,2.6446,2.6069,2.5643,2.5717,2.6193,2.6501,2.6303,2.5979,2.5506,2.5058,2.4712,2.4453,2.4305,2.4322,2.4301,2.426,2.4338,2.4395,2.4475,2.4558,2.4631,2.4732,2.4888,2.5042,2.5095,2.525,2.5224,2.5284,2.5339,2.54,2.5456,2.5482,2.5521,2.5589,2.5624,2.5599,2.5518,2.54,2.5301,2.5253,2.5327,2.543,2.5447,2.5398,2.5405,2.5427,2.542,2.5397,2.5419,2.5463,2.5455,2.5445,2.5476,2.5495,2.5562,2.5659,2.5681,2.5654,2.5632,2.5641,2.5683,2.5681,2.5311,2.5028,2.4756,2.4082,2.368,2.3915,2.4344,2.4463,2.5072,2.4706,2.375,2.333,2.2757,2.2269,2.2082,2.1697,2.1401,2.1074,2.0759,1.8652,1.6284,1.351,1.1441,1.0824,0.9774,0.7777,0.7625,0.7235,0.8535,2.7548,2.7539,2.7483,2.7386,2.7241,2.7207,2.727,2.7338,2.7317,2.7396,2.7452,2.7591,2.7748,2.7922,2.7998,2.7957,2.7817,2.8094,2.8067,2.8049,2.8147,2.8173,2.7814,2.7435,2.7038,2.6814,2.648,2.6551,2.7077,2.7383,2.7692,2.7383,2.6789,2.6277,2.5859,2.5475,2.5433,2.5358,2.5162,2.4982,2.4994,2.5014,2.4902,2.4523,2.5841,2.5511,2.5134,2.5461,2.5405,2.5311,2.5265,2.5399,2.5501,2.5542,2.5549,2.559,2.5646,2.5663,2.5654,2.5644,2.5609,2.5502,2.5345,2.525,2.5403,2.5541,2.5521,2.5471,2.5425,2.5449,2.5412,2.5365,2.5368,2.5439,2.5464,2.543,2.5437,2.5466,2.5502,2.5603,2.5624,2.5615,2.5595,2.5589,2.5626,2.5639,2.5203,2.4856,2.4693,2.4529,2.4169,2.4053,2.452,2.4893,2.5465,2.4881,2.4121,2.395,2.3771,2.3344,2.291,2.2592,2.2268,2.1861,2.0796,1.8671,1.5956,1.2455,1.0165,0.8579,0.6727,0.4709,0.5302,0.7173,0.9883,2.7725,2.7701,2.7704,2.76,2.7421,2.7414,2.749,2.7543,2.7543,2.7657,2.7789,2.7864,2.7959,2.8109,2.8182,2.8255,2.8264,2.838,2.8397,2.8379,2.8405,2.8441,2.826,2.799,2.77,2.7558,2.7345,2.7374,2.792,2.792,2.8217,2.8405,2.8259,2.7538,2.6854,2.6454,2.6417,2.6425,2.6403,2.5788,2.5652,2.5791,2.5606,2.5212,2.6252,2.6542,2.6054,2.622,2.6323,2.6149,2.6046,2.6047,2.6015,2.5942,2.5846,2.587,2.5909,2.5896,2.5712,2.5619,2.562,2.5511,2.5391,2.5385,2.5506,2.5644,2.56,2.5473,2.5446,2.5439,2.541,2.5374,2.5383,2.5459,2.543,2.5405,2.5429,2.5468,2.549,2.5541,2.556,2.5604,2.561,2.5604,2.5615,2.5651,2.5476,2.5217,2.5143,2.499,2.4806,2.48,2.5034,2.5367,2.5642,2.5185,2.4827,2.4818,2.4598,2.4228,2.3829,2.3495,2.3026,2.2501,2.1041,1.8758,1.4932,1.0429,0.7736,0.5641,0.495,0.5134,0.6757,0.9066,1.176,2.7723,2.7715,2.7721,2.7722,2.7707,2.7709,2.7679,2.7722,2.7766,2.7857,2.8016,2.8062,2.8154,2.8237,2.83,2.8344,2.8406,2.8458,2.8501,2.8536,2.8501,2.8536,2.8509,2.8408,2.8272,2.854,2.8336,2.8276,2.8664,2.8611,2.8823,2.8906,2.875,2.843,2.7615,2.6478,2.6232,2.6716,2.7307,2.6708,2.6283,2.6514,2.634,2.6152,2.6905,2.7339,2.6923,2.7119,2.7224,2.7141,2.717,2.7294,2.7505,2.7011,2.6786,2.6705,2.6821,2.6519,2.5851,2.5642,2.5539,2.5537,2.5454,2.5493,2.5589,2.5648,2.564,2.5498,2.5521,2.5488,2.5437,2.5397,2.5432,2.5426,2.5395,2.5396,2.543,2.5447,2.547,2.5512,2.5554,2.5607,2.5625,2.5638,2.5627,2.5632,2.5616,2.5556,2.5483,2.5391,2.5207,2.5242,2.5383,2.5499,2.5693,2.5692,2.5547,2.5567,2.5352,2.4898,2.4597,2.4299,2.3792,2.3214,2.2322,2.0954,1.4572,0.7893,0.762,0.7773,0.7368,0.7735,0.919,1.1117,1.3963,2.8156,2.8148,2.8174,2.8174,2.8136,2.7892,2.7874,2.8017,2.8129,2.8201,2.8264,2.8327,2.838,2.8397,2.8423,2.8475,2.8475,2.8536,2.8587,2.8527,2.8543,2.8578,2.8587,2.8587,2.8612,2.8696,2.8737,2.8776,2.8892,2.8929,2.8929,2.8984,2.9021,2.8915,2.864,2.8141,2.8252,2.8294,2.8133,2.7635,2.7322,2.7453,2.7344,2.6737,2.7913,2.8237,2.7606,2.7937,2.8108,2.7965,2.7953,2.8047,2.8208,2.7757,2.7474,2.7284,2.7274,2.7374,2.6567,2.6062,2.561,2.559,2.5599,2.5607,2.5675,2.5683,2.5615,2.5541,2.5526,2.5464,2.5356,2.5387,2.5396,2.5368,2.536,2.5378,2.5405,2.5423,2.544,2.5487,2.5546,2.555,2.557,2.562,2.5642,2.5644,2.5642,2.5648,2.5595,2.5608,2.5523,2.5539,2.5613,2.5642,2.5698,2.5693,2.567,2.5597,2.5551,2.5389,2.5143,2.4917,2.4833,2.4406,2.3965,2.2923,1.683,1.1831,1.1112,1.0852,1.0747,1.1039,1.2402,1.4283,1.6557,2.8406,2.8422,2.8415,2.8406,2.838,2.8136,2.8119,2.8282,2.8371,2.8415,2.8415,2.8458,2.8484,2.8484,2.8527,2.8552,2.8501,2.8562,2.8587,2.8552,2.8596,2.8587,2.8587,2.8612,2.8628,2.8737,2.8761,2.881,2.8919,2.8943,2.8966,2.9021,2.9089,2.9115,2.9073,2.9061,2.9064,2.8987,2.8702,2.8374,2.8237,2.8258,2.8222,2.8082,2.8549,2.9148,2.8616,2.86,2.8899,2.8612,2.8603,2.8702,2.8833,2.8618,2.8345,2.813,2.7503,2.7673,2.7216,2.6126,2.5741,2.5679,2.57,2.5701,2.5696,2.5698,2.5625,2.5561,2.5519,2.5427,2.534,2.537,2.5361,2.5332,2.536,2.5388,2.5397,2.5406,2.5415,2.5462,2.5532,2.5526,2.5531,2.5583,2.5634,2.565,2.5665,2.5684,2.5697,2.57,2.57,2.5696,2.5693,2.5697,2.5694,2.5692,2.5659,2.5618,2.5576,2.554,2.5506,2.5267,2.5447,2.5526,2.4921,2.3383,1.9638,1.6405,1.4813,1.4345,1.4678,1.5132,1.5854,1.7745,1.9969,2.8404,2.841,2.8422,2.8467,2.8501,2.8396,2.8413,2.8439,2.8492,2.8449,2.8406,2.8484,2.8484,2.8467,2.8475,2.8527,2.8536,2.8596,2.8596,2.8596,2.8587,2.8587,2.8587,2.8612,2.8653,2.8703,2.8761,2.8834,2.8896,2.8975,2.903,2.9089,2.9165,2.9228,2.9262,2.9274,2.9265,2.9251,2.9198,2.8869,2.8695,2.8987,2.8858,2.8821,2.9101,2.9513,2.9396,2.9542,2.9779,2.9898,3.0113,3.0326,3.0254,2.9848,2.9631,2.9085,2.7955,2.76,2.7649,2.651,2.5785,2.5679,2.5697,2.5691,2.5703,2.5693,2.5635,2.5556,2.5508,2.5412,2.534,2.5332,2.5341,2.5351,2.5389,2.5388,2.5397,2.5397,2.5396,2.5451,2.5538,2.5563,2.5572,2.562,2.5656,2.5661,2.5678,2.5683,2.5696,2.5697,2.5697,2.5694,2.5703,2.5701,2.5701,2.5699,2.5663,2.5617,2.5571,2.555,2.5549,2.555,2.5542,2.5532,2.5494,2.3874,2.1279,1.9244,1.7562,1.7634,1.8755,1.9241,1.9982,2.1808,2.3784,2.8543,2.8551,2.8552,2.8571,2.8562,2.8543,2.8562,2.8552,2.8552,2.8571,2.8554,2.8562,2.8536,2.8545,2.8562,2.8562,2.8587,2.8596,2.8587,2.8587,2.8587,2.8587,2.8587,2.8612,2.8662,2.8746,2.8819,2.8858,2.8952,2.904,2.9098,2.9165,2.9231,2.9271,2.9323,2.9326,2.9356,2.9377,2.9398,2.9234,2.9126,2.9372,2.9289,2.9364,2.9474,2.9779,2.9891,2.9865,3.0045,3.0289,3.0318,3.0428,3.061,3.0454,3.0328,3.0146,2.8583,2.7221,2.7697,2.6578,2.5629,2.5675,2.5693,2.5697,2.5701,2.5681,2.5644,2.5566,2.5508,2.5435,2.5358,2.5341,2.5322,2.5341,2.536,2.5378,2.5378,2.5368,2.5368,2.5433,2.5528,2.558,2.56,2.5648,2.5681,2.5687,2.5698,2.5695,2.5695,2.5698,2.57,2.5694,2.5697,2.5698,2.5693,2.5693,2.5664,2.5623,2.5586,2.5566,2.5571,2.5571,2.5554,2.5506,2.5434,2.5017,2.3999,2.2205,2.0659,2.2215,2.3359,2.3683,2.4208,2.5079,2.5642,2.8587,2.8587,2.8587,2.8587,2.8587,2.8587,2.8587,2.8587,2.8587,2.8587,2.8587,2.8587,2.8587,2.8587,2.8587,2.8587,2.8587,2.8587,2.8587,2.8587,2.8587,2.8587,2.8587,2.8612,2.8678,2.877,2.8828,2.8867,2.8984,2.9076,2.9143,2.9187,2.9252,2.9314,2.9356,2.9409,2.944,2.944,2.9461,2.9471,2.9541,2.9626,2.9691,2.9726,2.9862,2.9969,3.0079,3.003,3.0142,3.0364,3.0348,3.045,3.0666,3.0708,3.0694,3.0326,2.8851,2.7921,2.7858,2.6569,2.5906,2.5675,2.5699,2.5697,2.5694,2.5691,2.5631,2.5561,2.5515,2.546,2.5408,2.536,2.5332,2.5303,2.5332,2.5359,2.5349,2.5339,2.5377,2.5433,2.549,2.5548,2.5605,2.5666,2.5694,2.5698,2.5701,2.5698,2.5697,2.5693,2.5693,2.5693,2.5696,2.5698,2.5703,2.5693,2.5677,2.5644,2.5605,2.5595,2.5609,2.5554,2.5497,2.5425,2.5353,2.496,2.462,2.4962,2.4409,2.5479,2.5541,2.5147,2.4875,2.5282,2.5671,2.8587,2.8587,2.8587,2.8587,2.8587,2.8587,2.8587,2.8587,2.8587,2.8587,2.8587,2.8587,2.8587,2.8587,2.8587,2.8587,2.8587,2.8587,2.8587,2.8587,2.8587,2.8587,2.8587,2.8612,2.8653,2.8746,2.8819,2.8881,2.8975,2.9067,2.9134,2.92,2.9316,2.9379,2.9461,2.9541,2.9598,2.9654,2.9635,2.9663,2.9762,2.9907,3.0044,3.0051,3.0099,3.0155,3.0224,3.0238,3.0222,3.0342,3.0419,3.0501,3.0624,3.073,3.0732,3.0111,2.8831,2.8159,2.7571,2.6442,2.5887,2.5675,2.5697,2.5691,2.5701,2.5697,2.5645,2.5566,2.5525,2.5473,2.5422,2.54,2.5374,2.5372,2.5389,2.5406,2.5398,2.5381,2.5392,2.5455,2.5512,2.556,2.5594,2.5648,2.5678,2.5691,2.5696,2.5702,2.5693,2.5702,2.5697,2.5697,2.5701,2.5701,2.5703,2.5693,2.5698,2.5666,2.5625,2.5615,2.5624,2.5543,2.5434,2.5347,2.5272,2.5195,2.5061,2.5264,2.5365,2.5423,2.5508,2.5603,2.5655,2.5693,2.5686,2.8587,2.8587,2.8587,2.8587,2.8587,2.8587,2.8587,2.8587,2.8587,2.8587,2.8587,2.8587,2.8587,2.8587,2.8587,2.8587,2.8587,2.8587,2.8587,2.8587,2.8587,2.8587,2.8612,2.8637,2.8678,2.8712,2.8785,2.8919,2.908,2.9125,2.9156,2.9286,2.9392,2.9513,2.9626,2.9715,2.9808,2.9874,2.9915,2.9867,2.9867,2.9937,3.0034,3.0109,3.0173,3.0289,3.0345,3.0311,3.0392,3.0509,3.0448,3.0491,3.061,3.07,3.0393,2.9734,2.8893,2.8135,2.7444,2.6617,2.6004,2.5784,2.5763,2.5723,2.5694,2.5703,2.5662,2.5595,2.5531,2.5489,2.5453,2.5437,2.543,2.5437,2.546,2.5463,2.5466,2.5444,2.543,2.5464,2.5521,2.557,2.5594,2.5625,2.5648,2.5676,2.5694,2.5692,2.5693,2.5693,2.5693,2.5701,2.5699,2.5693,2.569,2.5684,2.5678,2.5681,2.5654,2.5644,2.5632,2.5503,2.5376,2.5291,2.5197,2.5153,2.5155,2.52,2.5284,2.5398,2.5496,2.5615,2.5659,2.569,2.5693,2.8587,2.8587,2.8587,2.8587,2.8587,2.8587,2.8587,2.8587,2.8587,2.8587,2.8587,2.8587,2.8587,2.8587,2.8587,2.8612,2.8612,2.8587,2.8587,2.8587,2.8587,2.8587,2.8612,2.8703,2.8821,2.8892,2.8975,2.911,2.9258,2.9258,2.931,2.9454,2.957,2.9678,2.9801,2.9921,3.0027,3.0085,3.0159,3.0122,3.0032,3.0118,3.0188,3.027,3.035,3.0457,3.0468,3.0447,3.0509,3.0569,3.0521,3.0521,3.061,3.0676,3.049,2.9881,2.9067,2.8139,2.7633,2.6967,2.6369,2.6437,2.6266,2.6381,2.6247,2.6204,2.5727,2.5632,2.5589,2.5547,2.5521,2.55,2.5486,2.5486,2.5525,2.5546,2.5508,2.547,2.5439,2.5418,2.5492,2.5589,2.5608,2.5649,2.5671,2.5681,2.5693,2.5693,2.5699,2.5693,2.5698,2.5693,2.568,2.5664,2.5642,2.564,2.5649,2.5657,2.5656,2.561,2.556,2.5427,2.5312,2.5242,2.5189,2.519,2.518,2.5243,2.5359,2.5502,2.5565,2.5631,2.5673,2.5693,2.5693,2.8646,2.8612,2.8621,2.8603,2.8587,2.8587,2.8587,2.8587,2.8587,2.8587,2.8587,2.8587,2.8587,2.8587,2.8587,2.8603,2.8603,2.8603,2.8603,2.8612,2.8587,2.8662,2.8776,2.8863,2.8989,2.9126,2.9233,2.9386,2.9532,2.9484,2.9485,2.9688,2.9791,2.9867,2.9952,3.0076,3.0192,3.0248,3.0307,3.0364,3.0386,3.0409,3.0398,3.0449,3.054,3.0607,3.0616,3.0616,3.0616,3.0615,3.0604,3.0594,3.0593,3.0618,3.0232,2.9722,2.8832,2.8424,2.823,2.7358,2.7447,2.7594,2.7284,2.705,2.6919,2.6653,2.6176,2.5939,2.5902,2.5742,2.5716,2.56,2.5591,2.5547,2.559,2.5609,2.5551,2.5498,2.5464,2.542,2.5495,2.5593,2.5625,2.5652,2.5679,2.5693,2.5694,2.5699,2.5693,2.5696,2.5696,2.5677,2.5654,2.5633,2.5622,2.5628,2.5644,2.5628,2.5618,2.5557,2.5483,2.5386,2.5293,2.5214,2.5183,2.5205,2.5265,2.5339,2.5471,2.5583,2.56,2.5631,2.5668,2.5693,2.5693,2.8737,2.8678,2.8678,2.8653,2.8612,2.8587,2.8587,2.8587,2.8587,2.8587,2.8587,2.8587,2.8587,2.8587,2.8587,2.8603,2.8653,2.8644,2.8644,2.8678,2.8709,2.8801,2.891,2.9079,2.9148,2.9307,2.9466,2.9533,2.9698,2.9635,2.9598,2.9748,2.9896,3.0027,3.0154,3.0273,3.0394,3.0439,3.0472,3.053,3.0501,3.0501,3.0482,3.053,3.0594,3.0637,3.0661,3.0668,3.0678,3.0671,3.0637,3.0614,3.0605,3.0537,3.0138,2.9552,2.8645,2.8374,2.8054,2.7628,2.7806,2.8346,2.803,2.7766,2.7694,2.768,2.7269,2.6952,2.6776,2.6363,2.6221,2.5912,2.5808,2.5694,2.5664,2.5644,2.5596,2.5571,2.5532,2.5518,2.5549,2.5591,2.5606,2.5641,2.5662,2.5672,2.5681,2.5681,2.5677,2.5683,2.5742,2.5685,2.5654,2.5669,2.5678,2.5654,2.5657,2.5628,2.5583,2.5541,2.547,2.5379,2.5293,2.5255,2.5245,2.5264,2.5336,2.5432,2.5499,2.56,2.5596,2.5621,2.5672,2.5693,2.5693]},{"header":{"parameterUnit":"m.s-1","parameterCategory":1,"la1":31.0,"la2":29.5877,"lo1":-88.7671,"lo2":-86.6584,"dy":0.0162,"dx":0.0185,"nx":115,"ny":88,"refTime":"2024-07-30T00:00:00:Z","depth":0,"parameterNumber":3,"parameterNumberName":"V-component_of_WINDS"},"data":[0.0,0.0,0.0,0.0,0.0,0.0,0.0,0.0,0.0,0.0,0.0,0.0,0.0,0.0,0.0,0.0,0.0,0.0,0.0,0.0,0.0,0.0,0.0,0.0,0.0,0.0,0.0,0.0,0.0,0.0,0.0,0.0,0.0,0.0,0.0,0.0,0.0,0.0,0.0,0.0,0.0,0.0,0.0,0.0,0.0,0.0,0.0,0.0,0.0,0.0,0.0,0.0,0.0,0.0,0.0,0.0,0.0,0.0,0.0,0.0,0.0,0.0,0.0,0.0,0.0,0.0,0.0,0.0,0.0,0.0,0.0,0.0,0.0,0.0,0.0,0.0,0.0,0.0,0.0,0.0,0.0,0.0,0.0,0.0,0.0,0.0,0.0,0.0,0.0,0.0,0.0,0.0,0.0,0.0,0.0,0.0,0.0,0.0,0.0,0.0,0.0,0.0,0.0,0.0,0.0,0.0,0.0,0.0,0.0,0.0,0.0,0.0,0.0,0.0,0.0,0.0,0.0,0.0,0.0,0.0,0.0,0.0,0.0,0.0,0.0,0.0,0.0,0.0,0.0,0.0,0.0,0.0,0.0,0.0,0.0,0.0,0.0,0.0,0.0,0.0,0.0,0.0,0.0,0.0,0.0,0.0,0.0,0.0,0.0,0.0,0.0,0.0,0.0,0.0,0.0,0.0,0.0,0.0,0.0,0.0,0.0,0.0,0.0,0.0,0.0,0.0,0.0,0.0,0.0,0.0,0.0,0.0,0.0,0.0,0.0,0.0,0.0,0.0,0.0,0.0,0.0,0.0,0.0,0.0,0.0,0.0,0.0,0.0,0.0,0.0,0.0,0.0,0.0,0.0,0.0,0.0,0.0,0.0,0.0,0.0,0.0,0.0,0.0,0.0,0.0,0.0,0.0,0.0,0.0,0.0,0.0,0.0,0.0,0.0,0.0,0.0,0.0,0.0,0.0,0.0,0.0,0.0,0.0,0.0,0.0,0.0,0.0,0.0,0.0,0.0,0.0,0.0,0.0,0.0,0.0,0.0,0.0,0.0,0.0,0.0,0.0,0.0,0.0,0.0,0.0,0.0,0.0,0.0,0.0,0.0,0.0,0.0,0.0,0.0,0.0,0.0,0.0,0.0,0.0,0.0,0.0,0.0,0.0,0.0,0.0,0.0,0.0,0.0,0.0,0.0,0.0,0.0,0.0,0.0,0.0,0.0,0.0,0.0,0.0,0.0,0.0,0.0,0.0,0.0,0.0,0.0,0.0,0.0,0.0,0.0,0.0,0.0,0.0,0.0,0.0,0.0,0.0,0.0,0.0,0.0,0.0,0.0,0.0,0.0,0.0,0.0,0.0,0.0,0.0,0.0,0.0,0.0,0.0,0.0,0.0,0.0,0.0,0.0,0.0,0.0,0.0,0.0,0.0,0.0,0.0,0.0,0.0,0.0,0.0,0.0,0.0,0.0,0.0,0.0,0.0,0.0,0.0,0.0,0.0,0.0,0.0,0.0,0.0,0.0,0.0,0.0,0.0,0.0,0.0,0.0,0.0,0.0,0.0,0.0,0.0,0.0,0.0,0.0,0.0,0.0,0.0,0.0,0.0,0.0,0.0,0.0,0.0,0.0,0.0,0.0,0.0,0.0,0.0,0.0,0.0,0.0,0.0,0.0,0.0,0.0,0.0,0.0,0.0,0.0,0.0,0.0,0.0,0.0,0.0,0.0,0.0,0.0,0.0,0.0,0.0,0.0,0.0,0.0,0.0,0.0,0.0,0.0,0.0,0.0,0.0,0.0,0.0,0.0,0.0,0.0,0.0,0.0,0.0,0.0,0.0,0.0,0.0,0.0,0.0,0.0,0.0,0.0,0.0,0.0,0.0,0.0,0.0,0.0,0.0,0.0,0.0,0.0,0.0,0.0,0.0,0.0,0.0,0.0,0.0,0.0,0.0,0.0,0.0,0.0,0.0,0.0,0.0,0.0,0.0,0.0,0.0,0.0,0.0,0.0,0.0,0.0,0.0,0.0,0.0,0.0,0.0,0.0,0.0,0.0,0.0,0.0,0.0,0.0,0.0,0.0,0.0,0.0,0.0,0.0,0.0,0.0,0.0,0.0,0.0,0.0,0.0,0.0,0.0,0.0,0.0,0.0,0.0,0.0,0.0,0.0,0.0,0.0,0.0,0.0,0.0,0.0,0.0,0.0,0.0,0.0,0.0,0.0,0.0,0.0,0.0,0.0,0.0,0.0,0.0,0.0,0.0,0.0,0.0,0.0,0.0,0.0,0.0,0.0,0.0,0.0,0.0,0.0,0.0,0.0,0.0,0.0,0.0,0.0,0.0,0.0,0.0,0.0,0.0,0.0,0.0,0.0,0.0,0.0,0.0,0.0,0.0,0.0,0.0,0.0,0.0,0.0,0.0,0.0,0.0,0.0,0.0,0.0,0.0,0.0,0.0,0.0,0.0,0.0,0.0,0.0,0.0,0.0,0.0,0.0,0.0,0.0,0.0,0.0,0.0,0.0,0.0,0.0,0.0,0.0,0.0,0.0,0.0,0.0,0.0,0.0,0.0,0.0,0.0,0.0,0.0,0.0,0.0,0.0,0.0,0.0,0.0,0.0,0.0,0.0,0.0,0.0,0.0,0.0,0.0,0.0,0.0,0.0,0.0,0.0,0.0,0.0,0.0,0.0,0.0,0.0,0.0,0.0,0.0,0.0,0.0,0.0,0.0,0.0,0.0,0.0,0.0,0.0,0.0,0.0,0.0,0.0,0.0,0.0,0.0,0.0,0.0,0.0,0.0,0.0,0.0,0.0,0.0,0.0,0.0,0.0,0.0,0.0,0.0,0.0,0.0,0.0,0.0,0.0,0.0,0.0,0.0,0.0,0.0,0.0,0.0,0.0,0.0,0.0,0.0,0.0,0.0,0.0,0.0,0.0,0.0,0.0,0.0,0.0,0.0,0.0,0.0,0.0,0.0,0.0,0.0,0.0,0.0,0.0,0.0,0.0,0.0,0.0,0.0,0.0,0.0,0.0,0.0,0.0,0.0,0.0,0.0,0.0,0.0,0.0,0.0,0.0,0.0,0.0,0.0,0.0,0.0,0.0,0.0,0.0,0.0,0.0,0.0,0.0,0.0,0.0,0.0,0.0,0.0,0.0,0.0,0.0,0.0,0.0,0.0,0.0,0.0,0.0,0.0,0.0,0.0,0.0,0.0,0.0,0.0,0.0,0.0,0.0,0.0,0.0,0.0,0.0,0.0,0.0,0.0,0.0,0.0,0.0,0.0,0.0,0.0,0.0,0.0,0.0,0.0,0.0,0.0,0.0,0.0,0.0,0.0,0.0,0.0,0.0,0.0,0.0,0.0,0.0,0.0,0.0,0.0,0.0,0.0,0.0,0.0,0.0,0.0,0.0,0.0,0.0,0.0,0.0,0.0,0.0,0.0,0.0,0.0,0.0,0.0,0.0,0.0,0.0,0.0,0.0,0.0,0.0,0.0,0.0,0.0,0.0,0.0,0.0,0.0,0.0,0.0,0.0,0.0,0.0,0.0,0.0,0.0,0.0,0.0,0.0,0.0,0.0,0.0,0.0,0.0,0.0,0.0,0.0,0.0,0.0,0.0,0.0,0.0,0.0,0.0,0.0,0.0,0.0,0.0,0.0,0.0,0.0,0.0,0.0,0.0,0.0,0.0,0.0,0.0,0.0,0.0,0.0,0.0,0.0,0.0,0.0,0.0,0.0,0.0,0.0,0.0,0.0,0.0,0.0,0.0,0.0,0.0,0.0,0.0,0.0,0.0,0.0,0.0,0.0,0.0,0.0,0.0,0.0,0.0,0.0,0.0,0.0,0.0,0.0,0.0,0.0,0.0,0.0,0.0,0.0,0.0,0.0,0.0,0.0,0.0,0.0,0.0,0.0,0.0,0.0,0.0,0.0,0.0,0.0,0.0,0.0,0.0,0.0,0.0,0.0,0.0,0.0,0.0,0.0,0.0,0.0,0.0,0.0,0.0,0.0,0.0,0.0,0.0,0.0,0.0,0.0,0.0,0.0,0.0,0.0,0.0,0.0,0.0,0.0,0.0,0.0,0.0,0.0,0.0,0.0,0.0,0.0,0.0,0.0,0.0,0.0,0.0,0.0,0.0,0.0,0.0,0.0,0.0,0.0,0.0,0.0,0.0,0.0,0.0,0.0,0.0,0.0,0.0,0.0,0.0,0.0,0.0,0.0,0.0,0.0,0.0,0.0,0.0,0.0,0.0,0.0,0.0,0.0,-1.1916,0.0,0.0,0.0,0.0,0.0,0.0,0.0,0.0,0.0,0.0,0.0,0.0,0.0,0.0,0.0,0.0,0.0,0.0,0.0,0.0,0.0,0.0,0.0,0.0,0.0,0.0,0.0,0.0,0.0,0.0,0.0,0.0,0.0,0.0,0.0,0.0,0.0,0.0,0.0,0.0,0.0,0.0,0.0,0.0,0.0,0.0,0.0,0.0,0.0,0.0,0.0,0.0,0.0,0.0,0.0,0.0,0.0,0.0,0.0,0.0,0.0,0.0,0.0,0.0,0.0,0.0,0.0,0.0,0.0,0.0,0.0,0.0,0.0,0.0,0.0,0.0,0.0,0.0,0.0,0.0,0.0,0.0,0.0,0.0,0.0,0.0,0.0,0.0,0.0,0.0,0.0,0.0,0.0,0.0,0.0,0.0,0.0,0.0,0.0,0.0,0.0,0.0,0.0,0.0,0.0,0.0,0.0,0.0,0.0,0.0,-1.4233,-1.4261,-1.3518,-1.2753,-1.1966,0.0,0.0,0.0,0.0,0.0,0.0,0.0,0.0,0.0,0.0,0.0,0.0,0.0,0.0,0.0,0.0,0.0,0.0,0.0,0.0,0.0,0.0,0.0,0.0,0.0,0.0,0.0,0.0,0.0,0.0,0.0,0.0,0.0,0.0,0.0,0.0,0.0,0.0,0.0,0.0,0.0,0.0,0.0,0.0,0.0,0.0,0.0,0.0,0.0,0.0,0.0,0.0,0.0,0.0,0.0,0.0,0.0,0.0,0.0,0.0,0.0,0.0,0.0,0.0,0.0,0.0,0.0,0.0,0.0,0.0,0.0,0.0,0.0,0.0,0.0,0.0,0.0,0.0,0.0,0.0,0.0,0.0,0.0,0.0,0.0,0.0,0.0,0.0,0.0,0.0,0.0,0.0,0.0,0.0,0.0,0.0,0.0,0.0,0.0,0.0,0.0,0.0,0.0,0.0,0.0,0.0,0.0,0.0,0.0,0.0,0.0,0.0,-1.3794,-1.2999,-1.2004,0.0,0.0,0.0,0.0,0.0,0.0,0.0,0.0,0.0,0.0,0.0,0.0,0.0,0.0,0.0,0.0,0.0,0.0,0.0,0.0,0.0,0.0,0.0,0.0,0.0,0.0,0.0,0.0,0.0,0.0,0.0,0.0,0.0,0.0,0.0,0.0,0.0,0.0,0.0,0.0,0.0,0.0,0.0,0.0,0.0,0.0,0.0,0.0,0.0,0.0,0.0,0.0,0.0,0.0,0.0,0.0,0.0,0.0,0.0,0.0,0.0,0.0,0.0,0.0,0.0,0.0,0.0,0.0,0.0,0.0,0.0,0.0,0.0,0.0,0.0,0.0,0.0,0.0,0.0,0.0,0.0,0.0,0.0,0.0,0.0,0.0,0.0,0.0,0.0,0.0,0.0,0.0,0.0,0.0,0.0,0.0,0.0,0.0,0.0,0.0,0.0,0.0,0.0,0.0,0.0,0.0,0.0,0.0,0.0,0.0,-1.4408,-1.4408,-1.4307,0.0,-1.1994,0.0,0.0,0.0,0.0,0.0,0.0,0.0,0.0,0.0,0.0,0.0,0.0,0.0,0.0,0.0,0.0,0.0,0.0,0.0,0.0,0.0,0.0,0.0,0.0,0.0,0.0,0.0,0.0,0.0,0.0,0.0,0.0,0.0,0.0,0.0,0.0,0.0,0.0,0.0,0.0,0.0,0.0,0.0,0.0,0.0,0.0,0.0,0.0,0.0,0.0,0.0,0.0,0.0,0.0,0.0,0.0,0.0,0.0,0.0,0.0,0.0,0.0,0.0,0.0,0.0,0.0,0.0,0.0,0.0,0.0,0.0,0.0,0.0,0.0,0.0,0.0,0.0,0.0,0.0,0.0,0.0,0.0,0.0,0.0,0.0,0.0,0.0,0.0,0.0,0.0,0.0,0.0,0.0,0.0,0.0,0.0,0.0,0.0,0.0,0.0,0.0,0.0,0.0,0.0,0.0,0.0,0.0,0.0,0.0,0.0,-1.4233,-1.3761,-1.3283,-1.2455,0.0,0.0,0.0,0.0,0.0,0.0,0.0,0.0,0.0,0.0,0.0,0.0,0.0,0.0,0.0,0.0,0.0,0.0,0.0,0.0,0.0,0.0,0.0,0.0,0.0,0.0,0.0,0.0,0.0,0.0,0.0,0.0,0.0,0.0,0.0,0.0,0.0,0.0,0.0,0.0,0.0,0.0,0.0,0.0,0.0,0.0,0.0,0.0,0.0,0.0,0.0,0.0,0.0,0.0,0.0,0.0,0.0,0.0,0.0,0.0,0.0,0.0,0.0,0.0,0.0,0.0,0.0,0.0,0.0,0.0,0.0,0.0,0.0,0.0,0.0,0.0,0.0,0.0,0.0,0.0,0.0,0.0,0.0,0.0,0.0,0.0,0.0,0.0,0.0,0.0,0.0,0.0,0.0,0.0,0.0,0.0,0.0,0.0,0.0,0.0,0.0,0.0,0.0,0.0,0.0,0.0,0.0,0.0,0.0,0.0,-1.3844,-1.3893,-1.3318,-1.2719,-1.1872,-1.0758,0.0,0.0,0.0,0.0,0.0,0.0,0.0,0.0,0.0,0.0,0.0,0.0,0.0,0.0,0.0,0.0,0.0,0.0,0.0,0.0,0.0,0.0,0.0,0.0,0.0,0.0,0.0,0.0,0.0,0.0,0.0,0.0,0.0,0.0,0.0,0.0,0.0,0.0,0.0,0.0,0.0,0.0,0.0,0.0,0.0,0.0,0.0,0.0,0.0,0.0,0.0,0.0,0.0,0.0,0.0,0.0,0.0,0.0,0.0,0.0,0.0,0.0,0.0,0.0,0.0,0.0,0.0,0.0,0.0,0.0,0.0,0.0,0.0,0.0,0.0,0.0,0.0,0.0,0.0,0.0,0.0,0.0,0.0,0.0,0.0,0.0,0.0,0.0,0.0,0.0,0.0,0.0,0.0,0.0,0.0,0.0,0.0,0.0,0.0,0.0,0.0,0.0,0.0,0.0,0.0,0.0,0.0,0.0,-1.3273,-1.3339,-1.3348,-1.332,-1.3193,-1.242,0.0,0.0,0.0,0.0,0.0,0.0,0.0,0.0,0.0,0.0,0.0,0.0,0.0,0.0,0.0,0.0,0.0,0.0,0.0,0.0,0.0,0.0,0.0,0.0,0.0,0.0,0.0,0.0,0.0,0.0,0.0,0.0,0.0,0.0,0.0,0.0,0.0,0.0,0.0,0.0,0.0,0.0,0.0,0.0,0.0,0.0,0.0,0.0,0.0,0.0,0.0,0.0,0.0,0.0,0.0,0.0,0.0,0.0,0.0,0.0,0.0,0.0,0.0,0.0,0.0,0.0,0.0,0.0,0.0,0.0,0.0,0.0,0.0,0.0,0.0,0.0,0.0,0.0,0.0,0.0,0.0,0.0,0.0,0.0,0.0,0.0,0.0,0.0,0.0,0.0,0.0,0.0,0.0,0.0,0.0,0.0,0.0,0.0,0.0,0.0,0.0,0.0,0.0,0.0,0.0,0.0,0.0,0.0,0.0,-1.264,-1.3093,-1.3589,-1.4009,-1.305,-1.2232,0.0,0.0,0.0,0.0,0.0,0.0,0.0,0.0,0.0,0.0,0.0,0.0,0.0,0.0,0.0,0.0,0.0,0.0,0.0,0.0,0.0,0.0,0.0,0.0,0.0,0.0,0.0,0.0,0.0,0.0,0.0,0.0,0.0,0.0,0.0,0.0,0.0,0.0,0.0,0.0,0.0,0.0,0.0,0.0,0.0,0.0,0.0,0.0,0.0,0.0,0.0,0.0,0.0,0.0,0.0,0.0,0.0,0.0,0.0,0.0,0.0,0.0,0.0,0.0,0.0,0.0,0.0,0.0,0.0,0.0,0.0,0.0,0.0,0.0,0.0,0.0,0.0,0.0,0.0,0.0,0.0,0.0,0.0,0.0,0.0,0.0,0.0,0.0,0.0,0.0,0.0,0.0,0.0,0.0,0.0,0.0,0.0,0.0,0.0,0.0,0.0,0.0,0.0,0.0,0.0,0.0,0.0,0.0,0.0,-1.2179,0.0,-1.3617,-1.3992,-1.2794,-1.1957,0.0,0.0,0.0,0.0,0.0,0.0,0.0,0.0,0.0,0.0,0.0,0.0,0.0,0.0,0.0,0.0,0.0,0.0,0.0,0.0,0.0,0.0,0.0,0.0,0.0,0.0,0.0,0.0,0.0,0.0,0.0,0.0,0.0,0.0,0.0,0.0,0.0,0.0,0.0,0.0,0.0,0.0,0.0,0.0,0.0,0.0,0.0,0.0,0.0,0.0,0.0,0.0,0.0,0.0,0.0,0.0,0.0,0.0,0.0,0.0,0.0,0.0,0.0,0.0,0.0,0.0,0.0,0.0,0.0,0.0,0.0,0.0,0.0,0.0,0.0,0.0,0.0,0.0,0.0,0.0,0.0,0.0,0.0,0.0,0.0,0.0,0.0,0.0,0.0,0.0,0.0,0.0,0.0,0.0,0.0,0.0,0.0,0.0,0.0,0.0,0.0,0.0,0.0,0.0,0.0,0.0,0.0,0.0,-1.2096,-1.2047,-1.2935,-1.3423,-1.322,-1.2553,-1.1728,0.0,0.0,0.0,0.0,0.0,0.0,0.0,0.0,0.0,0.0,0.0,0.0,0.0,0.0,0.0,0.0,0.0,0.0,0.0,0.0,0.0,0.0,0.0,0.0,0.0,0.0,0.0,0.0,0.0,0.0,0.0,0.0,0.0,0.0,0.0,0.0,0.0,0.0,0.0,0.0,0.0,0.0,0.0,0.0,0.0,0.0,0.0,0.0,0.0,0.0,0.0,0.0,0.0,0.0,0.0,0.0,0.0,0.0,0.0,0.0,0.0,0.0,0.0,0.0,0.0,0.0,0.0,0.0,0.0,0.0,0.0,0.0,0.0,0.0,0.0,0.0,0.0,0.0,0.0,0.0,0.0,0.0,0.0,0.0,0.0,0.0,0.0,0.0,0.0,0.0,0.0,0.0,0.0,0.0,0.0,0.0,0.0,0.0,0.0,0.0,0.0,0.0,0.0,0.0,0.0,0.0,0.0,0.0,0.0,-1.2188,-1.351,-1.4178,-1.408,-1.3374,-1.2593,0.0,0.0,0.0,0.0,0.0,0.0,0.0,0.0,0.0,0.0,0.0,0.0,0.0,0.0,0.0,0.0,0.0,0.0,0.0,0.0,0.0,0.0,0.0,0.0,0.0,0.0,0.0,0.0,0.0,0.0,0.0,0.0,0.0,0.0,0.0,0.0,0.0,0.0,0.0,0.0,0.0,0.0,0.0,0.0,0.0,0.0,0.0,0.0,0.0,0.0,0.0,0.0,0.0,0.0,0.0,0.0,0.0,0.0,0.0,0.0,0.0,0.0,0.0,0.0,0.0,0.0,0.0,0.0,0.0,0.0,0.0,0.0,0.0,0.0,0.0,0.0,0.0,0.0,0.0,0.0,0.0,0.0,0.0,0.0,0.0,0.0,0.0,0.0,0.0,0.0,0.0,0.0,0.0,0.0,0.0,0.0,0.0,0.0,0.0,0.0,0.0,0.0,0.0,0.0,0.0,0.0,0.0,0.0,0.0,-1.2696,-1.3865,-1.4483,-1.4434,-1.3719,-1.3087,-1.2543,0.0,0.0,0.0,0.0,0.0,0.0,0.0,0.0,0.0,0.0,0.0,0.0,0.0,0.0,0.0,0.0,0.0,0.0,0.0,0.0,0.0,0.0,0.0,0.0,0.0,0.0,0.0,0.0,0.0,0.0,0.0,0.0,0.0,0.0,0.0,0.0,0.0,0.0,0.0,0.0,0.0,0.0,0.0,0.0,0.0,0.0,0.0,0.0,0.0,0.0,0.0,0.0,0.0,0.0,0.0,0.0,0.0,0.0,0.0,0.0,0.0,0.0,0.0,0.0,0.0,0.0,0.0,0.0,0.0,0.0,0.0,0.0,0.0,0.0,0.0,0.0,0.0,0.0,0.0,0.0,0.0,0.0,0.0,0.0,0.0,0.0,0.0,0.0,0.0,0.0,0.0,0.0,0.0,0.0,0.0,0.0,0.0,0.0,0.0,0.0,0.0,0.0,0.0,0.0,0.0,0.0,0.0,0.0,-1.3396,-1.4089,-1.445,-1.4399,-1.3737,-1.3333,0.0,0.0,0.0,0.0,0.0,0.0,0.0,0.0,0.0,0.0,0.0,0.0,0.0,0.0,0.0,0.0,0.0,0.0,0.0,0.0,0.0,0.0,0.0,0.0,0.0,0.0,0.0,0.0,0.0,0.0,0.0,0.0,0.0,0.0,0.0,0.0,0.0,0.0,0.0,0.0,0.0,0.0,0.0,0.0,0.0,0.0,0.0,0.0,0.0,0.0,0.0,0.0,0.0,0.0,0.0,0.0,0.0,0.0,0.0,0.0,0.0,0.0,0.0,0.0,0.0,0.0,0.0,0.0,0.0,0.0,0.0,0.0,0.0,0.0,0.0,0.0,0.0,0.0,0.0,0.0,0.0,0.0,0.0,0.0,0.0,0.0,0.0,0.0,0.0,0.0,0.0,0.0,0.0,0.0,0.0,0.0,0.0,0.0,0.0,0.0,0.0,0.0,0.0,0.0,0.0,0.0,0.0,0.0,0.0,-1.4398,-1.4961,-1.5271,-1.5258,-1.5114,-1.4754,0.0,0.0,0.0,0.0,0.0,0.0,0.0,0.0,0.0,0.0,0.0,0.0,0.0,0.0,0.0,0.0,0.0,0.0,0.0,0.0,0.0,0.0,0.0,0.0,0.0,0.0,0.0,0.0,0.0,0.0,0.0,0.0,0.0,0.0,0.0,0.0,0.0,0.0,0.0,0.0,0.0,0.0,0.0,0.0,0.0,0.0,0.0,0.0,0.0,0.0,0.0,0.0,0.0,0.0,0.0,0.0,0.0,0.0,0.0,0.0,0.0,0.0,0.0,0.0,0.0,0.0,0.0,0.0,0.0,0.0,0.0,0.0,0.0,0.0,0.0,0.0,0.0,0.0,0.0,0.0,0.0,0.0,0.0,0.0,0.0,0.0,0.0,0.0,0.0,0.0,0.0,0.0,0.0,0.0,0.0,0.0,0.0,0.0,0.0,0.0,0.0,0.0,0.0,0.0,0.0,0.0,0.0,0.0,-1.6229,-1.5741,-1.6667,-1.6943,-1.6526,-1.5928,-1.5389,0.0,0.0,0.0,0.0,0.0,0.0,0.0,0.0,0.0,0.0,0.0,0.0,0.0,0.0,0.0,0.0,0.0,0.0,0.0,0.0,0.0,0.0,0.0,0.0,0.0,0.0,0.0,0.0,0.0,0.0,0.0,0.0,0.0,0.0,0.0,0.0,0.0,0.0,0.0,0.0,0.0,0.0,0.0,0.0,0.0,0.0,0.0,0.0,0.0,0.0,0.0,0.0,0.0,0.0,0.0,0.0,0.0,0.0,0.0,0.0,0.0,0.0,0.0,0.0,0.0,0.0,0.0,0.0,0.0,0.0,0.0,0.0,0.0,0.0,0.0,0.0,0.0,0.0,0.0,0.0,0.0,0.0,0.0,0.0,0.0,0.0,0.0,0.0,0.0,0.0,0.0,0.0,0.0,0.0,0.0,0.0,0.0,0.0,0.0,0.0,0.0,0.0,0.0,0.0,0.0,0.0,0.0,0.0,-1.7083,-1.7108,-1.8452,-1.872,-1.7794,-1.6474,-1.571,0.0,0.0,0.0,0.0,0.0,0.0,0.0,0.0,0.0,0.0,0.0,0.0,0.0,0.0,0.0,0.0,0.0,0.0,0.0,0.0,0.0,0.0,0.0,0.0,0.0,0.0,0.0,0.0,0.0,0.0,0.0,0.0,0.0,0.0,0.0,0.0,0.0,0.0,0.0,0.0,0.0,0.0,0.0,0.0,0.0,0.0,0.0,0.0,0.0,0.0,0.0,0.0,0.0,0.0,0.0,0.0,0.0,0.0,0.0,0.0,0.0,0.0,0.0,0.0,0.0,0.0,0.0,0.0,0.0,0.0,0.0,0.0,0.0,0.0,0.0,0.0,0.0,0.0,0.0,0.0,0.0,0.0,0.0,0.0,0.0,0.0,0.0,0.0,0.0,0.0,0.0,0.0,0.0,0.0,0.0,0.0,0.0,0.0,0.0,0.0,0.0,0.0,0.0,0.0,0.0,0.0,0.0,0.0,-1.712,-1.7021,-1.7886,-1.8121,-1.7663,-1.7532,-1.7118,0.0,0.0,0.0,0.0,0.0,0.0,0.0,0.0,0.0,0.0,0.0,0.0,0.0,0.0,0.0,0.0,0.0,0.0,0.0,0.0,0.0,0.0,0.0,0.0,0.0,0.0,0.0,0.0,0.0,0.0,0.0,0.0,0.0,0.0,0.0,0.0,0.0,0.0,0.0,0.0,0.0,0.0,0.0,0.0,0.0,0.0,0.0,0.0,-1.2955,0.0,0.0,0.0,0.0,0.0,0.0,0.0,0.0,0.0,0.0,0.0,0.0,0.0,0.0,0.0,0.0,0.0,0.0,0.0,0.0,0.0,0.0,0.0,0.0,0.0,0.0,0.0,0.0,0.0,0.0,0.0,0.0,0.0,0.0,0.0,0.0,0.0,0.0,0.0,0.0,0.0,0.0,0.0,0.0,0.0,0.0,0.0,0.0,0.0,0.0,0.0,0.0,0.0,0.0,0.0,0.0,0.0,0.0,0.0,-1.74,-1.8103,-1.8406,-1.8433,-1.8173,-1.8419,-1.7914,0.0,0.0,0.0,0.0,0.0,0.0,0.0,0.0,0.0,0.0,0.0,0.0,0.0,0.0,0.0,0.0,0.0,0.0,0.0,0.0,0.0,0.0,0.0,0.0,0.0,0.0,0.0,0.0,0.0,0.0,0.0,0.0,0.0,0.0,0.0,0.0,0.0,0.0,0.0,0.0,0.0,0.0,0.0,0.0,0.0,0.0,0.0,0.0,0.0,0.0,0.0,0.0,0.0,0.0,0.0,0.0,0.0,0.0,0.0,0.0,0.0,0.0,0.0,0.0,0.0,0.0,0.0,0.0,0.0,0.0,0.0,0.0,0.0,0.0,0.0,0.0,0.0,0.0,0.0,0.0,0.0,0.0,0.0,0.0,0.0,0.0,0.0,0.0,0.0,0.0,0.0,0.0,0.0,0.0,0.0,0.0,0.0,0.0,0.0,0.0,0.0,0.0,0.0,0.0,0.0,0.0,0.0,-1.7082,-1.7656,-1.9098,-1.902,-1.8836,-1.8628,-1.8871,-1.8191,-1.6462,0.0,0.0,0.0,0.0,0.0,0.0,0.0,0.0,0.0,0.0,0.0,0.0,0.0,0.0,0.0,0.0,0.0,0.0,0.0,0.0,0.0,0.0,0.0,0.0,0.0,0.0,0.0,0.0,0.0,0.0,0.0,0.0,0.0,0.0,0.0,0.0,0.0,0.0,-1.1558,-1.3664,0.0,0.0,0.0,0.0,0.0,0.0,0.0,0.0,-1.6876,0.0,0.0,0.0,0.0,0.0,0.0,0.0,0.0,0.0,0.0,0.0,0.0,0.0,0.0,0.0,0.0,0.0,0.0,0.0,0.0,0.0,0.0,0.0,0.0,0.0,0.0,0.0,0.0,0.0,0.0,0.0,0.0,0.0,0.0,0.0,0.0,0.0,0.0,0.0,0.0,0.0,0.0,0.0,0.0,0.0,0.0,0.0,0.0,0.0,0.0,0.0,0.0,0.0,0.0,0.0,0.0,-1.7996,-1.7298,-1.7321,-1.8197,-1.8194,-1.8055,-1.7816,-1.8057,-1.7629,-1.6424,0.0,0.0,0.0,0.0,0.0,0.0,0.0,0.0,0.0,0.0,0.0,0.0,0.0,0.0,0.0,0.0,0.0,0.0,0.0,0.0,0.0,0.0,0.0,0.0,0.0,0.0,0.0,0.0,0.0,0.0,0.0,0.0,0.0,0.0,0.0,0.0,0.0,0.0,0.0,-1.4897,-1.6289,0.0,0.0,0.0,0.0,0.0,0.0,0.0,0.0,-1.8402,0.0,0.0,0.0,0.0,0.0,0.0,0.0,0.0,0.0,0.0,0.0,0.0,0.0,0.0,0.0,0.0,0.0,0.0,0.0,0.0,0.0,0.0,0.0,0.0,0.0,0.0,0.0,0.0,0.0,0.0,0.0,0.0,0.0,0.0,0.0,0.0,0.0,0.0,0.0,0.0,0.0,0.0,0.0,0.0,0.0,0.0,0.0,0.0,0.0,0.0,0.0,0.0,0.0,0.0,0.0,-1.7338,-1.6759,-1.6876,-1.7942,-1.7596,-1.7457,-1.7576,-1.7397,-1.7007,0.0,0.0,0.0,0.0,0.0,0.0,0.0,0.0,0.0,0.0,0.0,0.0,0.0,0.0,0.0,0.0,0.0,0.0,0.0,0.0,0.0,0.0,0.0,0.0,0.0,0.0,0.0,0.0,0.0,0.0,0.0,0.0,0.0,0.0,0.0,0.0,0.0,0.0,0.0,0.0,-1.5071,-1.6139,-1.784,0.0,0.0,0.0,0.0,0.0,0.0,-1.8391,-1.9013,0.0,0.0,0.0,0.0,0.0,0.0,0.0,0.0,0.0,0.0,0.0,0.0,0.0,0.0,0.0,0.0,0.0,0.0,0.0,0.0,0.0,0.0,0.0,0.0,0.0,0.0,0.0,0.0,0.0,0.0,0.0,0.0,0.0,0.0,0.0,0.0,0.0,0.0,0.0,0.0,0.0,0.0,0.0,0.0,0.0,0.0,0.0,0.0,0.0,0.0,0.0,0.0,0.0,0.0,0.0,-1.6608,-1.6131,-1.6362,-1.7437,-1.688,-1.6736,-1.7086,-1.6642,-1.63,0.0,0.0,0.0,0.0,0.0,0.0,0.0,0.0,0.0,0.0,0.0,0.0,0.0,0.0,0.0,0.0,0.0,0.0,0.0,0.0,0.0,0.0,0.0,0.0,0.0,0.0,0.0,0.0,0.0,0.0,0.0,0.0,0.0,0.0,0.0,0.0,0.0,0.0,0.0,0.0,0.0,-1.6403,-1.833,-1.8569,0.0,0.0,0.0,0.0,-1.8301,-1.8622,0.0,0.0,0.0,0.0,0.0,0.0,0.0,0.0,0.0,0.0,0.0,0.0,0.0,0.0,0.0,0.0,0.0,0.0,0.0,0.0,0.0,0.0,0.0,0.0,0.0,0.0,0.0,0.0,0.0,0.0,0.0,0.0,0.0,0.0,0.0,0.0,0.0,0.0,0.0,0.0,0.0,0.0,0.0,0.0,0.0,0.0,0.0,0.0,0.0,0.0,0.0,0.0,0.0,0.0,0.0,0.0,-1.5833,-1.5855,-1.583,-1.5864,-1.5796,-1.5664,-1.5487,-1.5514,-1.5478,0.0,0.0,0.0,0.0,0.0,0.0,0.0,0.0,0.0,0.0,0.0,0.0,0.0,0.0,0.0,0.0,0.0,0.0,0.0,0.0,0.0,0.0,0.0,0.0,0.0,0.0,0.0,0.0,0.0,0.0,0.0,0.0,0.0,0.0,0.0,0.0,0.0,0.0,0.0,0.0,0.0,-1.8412,-1.8658,-1.8642,-1.8322,0.0,0.0,-1.8354,-1.7461,-1.7306,0.0,0.0,0.0,0.0,0.0,0.0,0.0,0.0,0.0,0.0,0.0,0.0,0.0,0.0,0.0,0.0,0.0,0.0,0.0,0.0,0.0,0.0,0.0,0.0,0.0,0.0,0.0,0.0,0.0,0.0,0.0,0.0,0.0,0.0,0.0,0.0,0.0,0.0,0.0,0.0,0.0,0.0,0.0,0.0,0.0,0.0,0.0,0.0,0.0,0.0,0.0,0.0,0.0,0.0,0.0,-1.3372,-1.5685,-1.5351,-1.5264,-1.5563,-1.5114,-1.4774,-1.4572,-1.4632,-1.4418,0.0,0.0,0.0,0.0,0.0,0.0,0.0,0.0,0.0,0.0,0.0,0.0,0.0,0.0,0.0,0.0,0.0,0.0,0.0,0.0,0.0,0.0,0.0,0.0,0.0,0.0,0.0,0.0,0.0,0.0,0.0,0.0,0.0,0.0,0.0,0.0,0.0,0.0,0.0,0.0,0.0,0.0,-1.863,-1.8247,0.0,0.0,0.0,-1.7788,-1.7857,0.0,0.0,0.0,0.0,0.0,0.0,0.0,0.0,0.0,0.0,0.0,0.0,0.0,0.0,0.0,0.0,0.0,0.0,0.0,0.0,0.0,0.0,0.0,0.0,0.0,0.0,0.0,0.0,0.0,0.0,0.0,0.0,0.0,0.0,0.0,0.0,0.0,0.0,0.0,0.0,0.0,0.0,0.0,0.0,0.0,0.0,0.0,0.0,0.0,0.0,0.0,0.0,0.0,0.0,0.0,0.0,0.0,-1.5427,-1.4903,-1.4828,-1.5244,-1.4465,-1.3957,-1.3801,-1.3797,0.0,0.0,0.0,0.0,0.0,0.0,0.0,0.0,0.0,0.0,0.0,0.0,0.0,0.0,0.0,0.0,0.0,0.0,0.0,0.0,0.0,0.0,0.0,0.0,0.0,0.0,0.0,-0.9921,0.0,0.0,0.0,0.0,0.0,0.0,0.0,0.0,0.0,0.0,0.0,0.0,0.0,0.0,-1.7956,-1.8296,-1.7802,-1.744,0.0,0.0,-1.7114,-1.7674,-1.7699,-1.7832,0.0,0.0,0.0,0.0,0.0,0.0,0.0,0.0,0.0,0.0,0.0,0.0,0.0,0.0,0.0,0.0,0.0,0.0,0.0,0.0,0.0,0.0,0.0,0.0,0.0,0.0,0.0,0.0,0.0,0.0,0.0,0.0,0.0,0.0,0.0,0.0,0.0,0.0,0.0,0.0,0.0,0.0,0.0,0.0,0.0,0.0,0.0,0.0,0.0,0.0,0.0,0.0,0.0,0.0,-1.304,-1.4618,-1.4637,-1.457,-1.4484,-1.3705,-1.3188,-1.2988,-1.2908,-1.254,0.0,0.0,0.0,0.0,0.0,0.0,0.0,0.0,0.0,0.0,0.0,0.0,0.0,0.0,0.0,0.0,0.0,0.0,0.0,0.0,0.0,0.0,0.0,0.0,0.0,0.0,0.0,0.0,0.0,0.0,0.0,0.0,0.0,0.0,0.0,0.0,0.0,0.0,0.0,0.0,0.0,-1.8383,-1.7521,-1.74,-1.6845,0.0,-1.5635,-1.6069,-1.6086,-1.6138,-1.6647,-1.8155,0.0,0.0,0.0,0.0,0.0,0.0,0.0,0.0,0.0,0.0,0.0,0.0,0.0,0.0,0.0,0.0,0.0,0.0,0.0,0.0,0.0,0.0,0.0,0.0,0.0,0.0,0.0,0.0,0.0,0.0,0.0,0.0,0.0,0.0,0.0,0.0,0.0,0.0,0.0,0.0,0.0,0.0,0.0,0.0,0.0,0.0,0.0,0.0,0.0,0.0,0.0,0.0,0.0,-1.3724,-1.5298,-1.5302,-1.5242,-1.5089,-1.3829,-1.2841,-1.2251,-1.2644,-1.2239,0.0,0.0,0.0,0.0,0.0,0.0,0.0,0.0,0.0,0.0,0.0,0.0,0.0,0.0,0.0,0.0,0.0,0.0,0.0,0.0,0.0,0.0,0.0,0.0,0.0,0.0,0.0,0.0,-1.0345,-1.083,-1.1381,0.0,0.0,0.0,0.0,0.0,0.0,0.0,0.0,0.0,0.0,-1.8906,-1.7498,-1.7362,0.0,0.0,-1.5777,-1.6133,-1.6684,-1.7165,-1.7734,-1.852,-1.9007,0.0,0.0,0.0,0.0,0.0,0.0,0.0,0.0,0.0,0.0,0.0,0.0,0.0,0.0,0.0,0.0,0.0,0.0,0.0,0.0,0.0,0.0,0.0,0.0,0.0,0.0,0.0,0.0,0.0,0.0,0.0,0.0,0.0,0.0,0.0,0.0,0.0,0.0,0.0,0.0,0.0,0.0,0.0,0.0,0.0,0.0,0.0,0.0,0.0,0.0,0.0,0.0,-1.4432,-1.5793,-1.5983,-1.5911,-1.5586,-1.3956,-1.2683,-1.186,-1.2047,-1.1618,0.0,0.0,0.0,0.0,0.0,0.0,0.0,0.0,0.0,0.0,0.0,0.0,0.0,0.0,0.0,0.0,0.0,0.0,0.0,0.0,0.0,0.0,0.0,0.0,0.0,0.0,0.0,0.0,-1.1055,-1.1731,-1.2681,0.0,0.0,0.0,0.0,0.0,0.0,0.0,0.0,0.0,0.0,-1.9243,-1.7545,-1.7341,-1.7049,-1.6139,-1.5946,-1.6296,-1.747,-1.8303,-1.8962,-1.9449,0.0,0.0,0.0,0.0,0.0,0.0,0.0,0.0,0.0,0.0,0.0,0.0,0.0,0.0,0.0,0.0,0.0,0.0,0.0,0.0,0.0,0.0,0.0,0.0,0.0,0.0,0.0,-1.3579,0.0,0.0,-1.3541,0.0,0.0,0.0,0.0,0.0,0.0,0.0,0.0,0.0,0.0,0.0,0.0,0.0,0.0,0.0,0.0,0.0,0.0,0.0,0.0,0.0,0.0,-1.498,-1.5806,-1.6531,-1.6465,-1.5626,-1.3971,-1.2676,-1.1824,-1.0939,-1.0513,-1.0606,0.0,0.0,0.0,0.0,0.0,0.0,0.0,0.0,0.0,0.0,0.0,0.0,0.0,0.0,0.0,0.0,0.0,0.0,0.0,0.0,0.0,0.0,0.0,0.0,0.0,0.0,-1.2137,-1.2156,-1.2579,0.0,0.0,0.0,0.0,0.0,0.0,0.0,0.0,0.0,-1.9861,-1.9954,-1.9344,-1.7584,-1.7316,-1.7041,-1.6147,-1.5975,-1.6512,-1.8207,-1.9145,-2.001,0.0,0.0,0.0,0.0,0.0,0.0,0.0,0.0,0.0,0.0,0.0,0.0,0.0,0.0,0.0,0.0,0.0,0.0,0.0,0.0,0.0,0.0,0.0,0.0,0.0,0.0,0.0,-1.6568,-1.5884,0.0,0.0,0.0,0.0,0.0,0.0,0.0,0.0,0.0,0.0,0.0,-1.6795,-1.7263,0.0,0.0,0.0,0.0,0.0,0.0,0.0,0.0,0.0,0.0,0.0,0.0,-1.5729,-1.6528,-1.7256,-1.722,-1.6363,-1.419,-1.2644,-1.1815,-1.0884,-1.0683,-1.1243,0.0,0.0,0.0,0.0,0.0,0.0,0.0,0.0,0.0,0.0,0.0,0.0,0.0,0.0,0.0,0.0,0.0,0.0,0.0,0.0,0.0,0.0,0.0,0.0,0.0,-1.3162,0.0,0.0,0.0,0.0,0.0,0.0,0.0,0.0,0.0,0.0,0.0,-1.9818,-1.9783,-1.9735,-1.9345,-1.8247,-1.8102,-1.7795,0.0,0.0,0.0,0.0,0.0,0.0,0.0,0.0,0.0,0.0,0.0,0.0,0.0,0.0,-2.1437,-2.0309,-1.9296,-1.8751,-1.9233,0.0,0.0,0.0,0.0,0.0,0.0,0.0,0.0,0.0,0.0,0.0,0.0,0.0,0.0,-1.8047,0.0,-1.754,0.0,0.0,0.0,0.0,0.0,0.0,0.0,0.0,-1.8735,-1.8684,-1.8028,-1.8502,-1.8497,0.0,-1.808,-1.8083,0.0,0.0,0.0,0.0,0.0,0.0,0.0,0.0,-1.6811,-1.7297,-1.8003,-1.7968,-1.7092,-1.4707,-1.3007,-1.2169,-1.107,-1.0718,-1.1207,-1.2038,-1.2017,0.0,0.0,0.0,0.0,0.0,0.0,0.0,0.0,0.0,0.0,0.0,0.0,0.0,0.0,0.0,0.0,0.0,0.0,0.0,0.0,0.0,0.0,0.0,-1.398,0.0,0.0,0.0,0.0,0.0,0.0,0.0,0.0,0.0,-1.9831,-1.9821,-1.9762,-1.9747,-1.9735,-1.9451,-1.8638,0.0,0.0,0.0,0.0,0.0,0.0,0.0,-2.0634,-2.1827,-2.1383,-2.1107,-2.1851,-2.2114,-2.1973,-2.1173,0.0,0.0,-2.0828,-2.0026,-1.9686,-2.017,-1.9802,-1.9544,-2.0025,-2.0093,-2.0085,0.0,0.0,0.0,0.0,0.0,0.0,0.0,0.0,-1.9017,-1.8781,0.0,-1.8688,0.0,0.0,0.0,0.0,0.0,-1.9142,0.0,0.0,-2.0188,-2.0166,-1.9541,-1.9508,-1.9574,-1.9686,-1.9649,-1.9668,-1.963,-1.8174,0.0,0.0,0.0,0.0,0.0,0.0,-1.8096,-1.7951,-1.8633,-1.8596,-1.7641,-1.539,-1.3699,-1.2701,-1.1397,-1.0649,-1.0559,-1.146,-1.1886,-1.1707,-1.0989,0.0,0.0,0.0,0.0,0.0,0.0,0.0,0.0,0.0,0.0,0.0,0.0,0.0,0.0,0.0,0.0,0.0,0.0,0.0,0.0,-1.4182,0.0,0.0,0.0,0.0,0.0,0.0,0.0,0.0,0.0,0.0,-1.9888,-1.9896,-1.9866,-1.9811,0.0,0.0,0.0,0.0,-1.8531,-1.8451,-1.8385,-1.8672,-1.9592,-2.0303,-2.0841,-2.1133,0.0,0.0,-2.1101,-2.1581,-2.1802,-2.1024,-2.1611,-2.2325,-2.2214,-2.1548,-2.1066,-2.1051,-2.0866,-2.0828,-2.082,-2.0649,-2.0661,-2.3191,0.0,0.0,0.0,0.0,-2.1799,-2.2096,-2.3097,-2.2058,-2.1363,-2.0965,-2.072,0.0,0.0,0.0,0.0,0.0,0.0,-2.12,-2.1191,-2.0834,-2.0526,-2.0341,-1.9763,-1.9541,-1.9625,-1.9625,-1.9931,-2.0443,-2.0029,-1.9214,-1.8062,0.0,0.0,0.0,0.0,-1.7699,-1.7215,-1.7738,-1.7367,-1.6036,-1.4736,-1.3129,-1.1214,-1.0807,-1.0615,-1.0659,-1.1954,-1.2412,-1.1882,-1.1993,0.0,0.0,0.0,0.0,0.0,0.0,0.0,0.0,0.0,0.0,0.0,0.0,0.0,0.0,0.0,0.0,0.0,0.0,0.0,-1.4501,-1.4557,-1.4885,0.0,0.0,0.0,0.0,0.0,0.0,0.0,0.0,0.0,-1.9814,-1.9818,-1.9832,0.0,0.0,-1.9726,-1.9552,-1.945,-1.9363,-1.9341,-1.927,0.0,-2.0355,-2.0219,-2.0495,-2.1799,-2.2301,-2.2034,-2.0481,-2.0971,-2.1321,-2.0484,-2.0572,-2.0955,-2.1515,-2.1488,-2.1275,-2.1095,-2.066,-2.0231,-2.0076,-2.0021,-2.0027,-2.4091,-2.3055,-2.2968,-2.3188,-2.3613,-2.3064,-2.3389,-2.421,-2.3335,-2.2858,-2.2693,-2.2318,-2.1623,-2.0691,-2.0362,0.0,0.0,0.0,-2.235,-2.2356,-2.1858,-2.1468,-2.1161,-2.0674,-2.0476,-2.0513,-2.0543,-2.0775,-2.1214,-2.1257,-2.0786,-1.9862,0.0,0.0,-1.9012,-1.9004,-1.8581,-1.776,-1.7702,-1.7073,-1.5705,-1.4585,-1.317,-1.1491,-1.1462,-1.1833,-1.2577,-1.3093,-1.3332,-1.3249,-1.2908,-1.2322,0.0,0.0,0.0,0.0,0.0,0.0,0.0,0.0,0.0,0.0,0.0,-1.1461,-1.1543,0.0,0.0,0.0,-1.4661,-1.5339,-1.5233,-1.5458,0.0,0.0,0.0,0.0,0.0,0.0,0.0,-2.0865,-2.076,-2.059,-2.0391,-2.0344,-2.0172,-1.9825,-1.9713,-1.9751,-1.9847,0.0,-1.9714,-1.9714,-1.9647,-1.9759,-2.0242,-1.9931,-2.0001,-2.1017,-2.1337,-2.1088,-2.0031,-2.0301,-2.051,-2.0092,-1.9942,-2.0209,-2.1052,-2.1225,-2.1225,-2.1128,-2.0462,-1.9856,-1.9726,-1.9684,-1.9655,-2.4642,-2.4682,-2.4619,-2.4513,-2.443,-2.4403,-2.441,-2.4334,-2.3436,-2.3528,-2.429,-2.3463,-2.3087,-2.3023,-2.2209,0.0,-2.3107,-2.3088,-2.3125,-2.3169,-2.3104,-2.2689,-2.2005,-2.1918,-2.19,-2.1904,-2.1958,-2.1992,-2.2016,-2.2057,-2.2135,-2.22,-2.2257,-2.2167,-2.189,-2.1152,-2.0194,-1.9006,-1.8256,-1.7318,-1.6142,-1.4669,-1.3591,-1.2904,-1.2833,-1.3587,-1.5207,-1.4401,-1.427,-1.5089,-1.3706,-1.2834,-1.2679,0.0,0.0,0.0,0.0,0.0,0.0,0.0,0.0,0.0,0.0,0.0,0.0,0.0,0.0,0.0,-1.5122,0.0,-1.5821,-1.6641,0.0,0.0,0.0,-1.8972,-1.9901,-2.0648,-2.139,-2.2214,0.0,0.0,-2.137,-2.1161,-2.0756,-1.9909,-1.9753,-1.9735,-1.9776,-1.9744,-1.9686,-1.9705,-1.9629,-1.9592,-1.9657,-1.9592,-1.9554,-1.9603,-1.9485,-1.9605,-1.9554,-1.9647,-1.972,-1.9732,-1.9746,-2.009,-2.0887,-2.1118,-2.1148,-2.1401,-2.0659,-1.9969,-2.0,-1.9897,-1.9801,-2.4135,-2.4682,-2.4686,-2.467,-2.4613,-2.453,-2.4478,-2.445,-2.423,-2.4136,-2.4154,-2.395,-2.3831,-2.3823,-2.3768,-2.3787,-2.3915,-2.3925,-2.3906,-2.3831,-2.3217,-2.2868,-2.2719,-2.211,-2.185,-2.1904,-2.1902,-2.2268,-2.2867,-2.2912,-2.3251,-2.386,-2.3914,-2.3275,-2.2008,-2.1643,-2.042,-1.8357,-1.7962,-1.67,-1.4603,-1.3591,-1.3285,-1.3688,-1.3117,-1.3222,-1.4091,-1.3848,-1.3846,-1.4197,-1.3751,-1.3258,-1.2794,-1.1859,0.0,0.0,0.0,0.0,0.0,0.0,0.0,0.0,0.0,-1.2638,-1.2242,0.0,-1.4407,0.0,-1.5988,-1.6601,-1.6756,-1.6929,0.0,0.0,-1.9329,-2.0017,-2.1531,-2.1746,-2.191,-2.2257,-2.222,-2.2112,-2.2045,-2.1357,-2.083,-2.0692,-2.0157,-1.9776,-1.9726,-1.9725,-1.9664,-1.9647,-1.9625,-1.9592,-1.9583,-1.9637,-1.9596,-1.9497,-1.9619,-1.9691,-1.9536,-1.9612,-1.972,-1.9748,-2.023,-2.0891,-2.1671,-2.1816,-2.2026,-2.2585,-2.2187,-2.1651,-2.1545,-2.1022,-2.0606,-2.3224,-2.3618,-2.3628,-2.3628,-2.366,-2.4301,-2.4578,-2.4578,-2.4519,-2.4434,-2.4375,-2.4284,-2.4201,-2.4105,-2.421,-2.4191,-2.4077,-2.4067,-2.4095,-2.4075,-2.3617,-2.3445,-2.352,-2.3079,-2.2895,-2.2931,-2.2948,-2.3196,-2.3629,-2.3674,-2.3931,-2.4411,-2.443,-2.394,-2.3052,-2.2595,-2.1311,-1.9207,-1.7871,-1.6357,-1.4649,-1.4122,-1.4277,-1.4988,-1.4478,-1.4714,-1.5783,-1.5332,-1.5012,-1.4921,-1.4485,-1.4116,-1.378,-1.2697,-1.2247,0.0,0.0,0.0,0.0,0.0,0.0,0.0,0.0,0.0,0.0,0.0,-1.5165,-1.5941,-1.6764,-1.7324,-1.7449,-1.819,-1.9096,-2.0062,-2.0546,-2.1344,-2.2647,-2.2712,-2.2843,-2.3326,-2.3302,-2.3148,-2.2867,-2.2013,-2.1494,-2.1549,-2.0864,-2.0326,-2.0244,-1.9952,-1.9753,-2.0048,-1.9815,-1.9583,-1.9555,-1.9601,-1.9569,-1.9488,-1.9546,-1.9582,-1.9434,-1.9485,-1.9527,-1.9578,-2.0187,-2.0848,-2.1358,-2.1742,-2.2181,-2.2869,-2.2937,-2.2563,-2.2095,-2.1667,-2.1347,-2.206,-2.1985,-2.2182,-2.2281,-2.2393,-2.3863,-2.4463,-2.4392,-2.4262,-2.4328,-2.4495,-2.4491,-2.4339,-2.4103,-2.4113,-2.4036,-2.3926,-2.3917,-2.3976,-2.4065,-2.4016,-2.4074,-2.418,-2.417,-2.4199,-2.4209,-2.4256,-2.4257,-2.4192,-2.4266,-2.4294,-2.4303,-2.4303,-2.4284,-2.4257,-2.3545,-2.2284,-2.0497,-1.792,-1.622,-1.5472,-1.5356,-1.5619,-1.6206,-1.602,-1.6637,-1.815,-1.7369,-1.6689,-1.6317,-1.5479,-1.5044,-1.5107,-1.3751,-1.3605,0.0,-1.3796,0.0,0.0,0.0,0.0,0.0,0.0,0.0,0.0,-1.6027,-1.5949,-1.6584,-1.7608,-1.8219,-1.8181,-1.9832,-2.0899,-2.0917,-2.173,-2.2615,-2.3399,-2.3564,-2.3864,-2.4586,-2.4667,-2.4395,-2.3707,-2.2928,-2.2445,-2.2389,-2.1704,-2.1227,-2.1246,-2.0588,-2.0294,-2.0885,-2.0382,-2.0038,-1.9838,-1.9814,-1.9859,-1.9656,-1.9641,-1.9491,-1.9357,-1.9329,-1.9295,-1.9378,-2.0092,-2.0717,-2.0675,-2.1406,-2.2167,-2.2875,-2.2944,-2.2736,-2.2295,-2.2127,-2.2034,-2.0736,-2.0317,-2.161,-2.2134,-2.2205,-2.2974,-2.3097,-2.2755,-2.2717,-2.2986,-2.3439,-2.4062,-2.4266,-2.4113,-2.4228,-2.419,-2.4074,-2.4065,-2.4016,-2.3937,-2.3926,-2.3987,-2.4113,-2.4074,-2.4094,-2.4199,-2.417,-2.4153,-2.4192,-2.4201,-2.4238,-2.4284,-2.4303,-2.4257,-2.4174,0.0,0.0,0.0,-1.7964,-1.6555,-1.6263,-1.5646,-1.5536,-1.6028,-1.5948,0.0,-1.6971,-1.6796,-1.6734,-1.6886,-1.6006,0.0,0.0,0.0,0.0,0.0,0.0,0.0,0.0,0.0,0.0,0.0,-1.643,-1.5859,-1.5555,-1.6513,-1.7244,-1.7414,-1.8682,-1.9569,-1.9687,-2.0698,-2.1671,-2.2382,-2.27,-2.3178,-2.4011,-2.4081,-2.4163,-2.4329,-2.4452,-2.4489,-2.4284,-2.3699,-2.3271,-2.3168,-2.2529,-2.2285,-2.2813,-2.2085,-2.1667,-2.1767,-2.1504,-2.1266,-2.0662,-2.1053,-2.113,-2.0692,-2.0409,-2.0105,-1.9519,-1.936,-1.9299,-1.9344,-2.0526,-2.1528,-2.1535,-2.221,-2.275,-2.2967,-2.2498,-2.2245,-2.2813,-2.2939,-2.2769,-1.9727,0.0,-2.0258,-2.0622,0.0,-2.1056,-2.1034,-2.0775,-2.1395,-2.1898,-2.2292,-2.2749,-2.2849,-2.2674,-2.2821,-2.304,-2.3313,-2.3304,-2.3533,-2.3887,-2.3867,-2.3926,-2.4045,-2.3987,-2.3806,-2.3546,-2.393,-2.3894,-2.3584,-2.4007,-2.4228,-2.4266,-2.4247,-2.4026,-2.3538,-2.2337,-2.1319,-2.0505,-1.8837,-1.77,-1.7125,-1.6637,-1.6243,-1.5965,-1.5846,0.0,0.0,0.0,0.0,0.0,0.0,0.0,0.0,0.0,0.0,-1.6553,-1.6,-1.5892,-1.6454,-1.6967,-1.7586,-1.8257,-1.8137,-1.7524,-1.6388,-1.7701,-1.8607,-1.8667,-1.9752,-2.0468,-2.0566,-2.1453,-2.2213,-2.267,-2.3234,-2.3786,-2.4152,-2.4265,-2.4247,-2.4309,-2.4413,-2.4512,-2.4512,-2.3908,-2.3525,-2.3487,-2.3051,-2.2834,-2.3123,-2.2497,-2.1895,-2.186,-2.195,-2.1872,-2.1516,-2.1676,-2.1714,-2.0942,-2.0674,-2.0311,-1.951,-1.9663,-1.9854,-1.9899,-2.1086,-2.2065,-2.1579,-2.209,-2.2658,-2.2626,-2.2389,-2.21,-2.2319,-2.2657,-2.2867,-1.9004,-1.8922,-1.9038,-1.9084,-1.9093,-1.9262,-1.9193,-1.9088,0.0,0.0,0.0,-2.1453,-2.1442,-2.1205,-2.1327,-2.1717,-2.2269,-2.2325,-2.2822,-2.3676,-2.3626,-2.3667,-2.3766,-2.3708,-2.3289,-2.2656,-2.3305,-2.3315,-2.2722,-2.3537,-2.396,-2.396,-2.396,-2.3446,-2.242,-2.1086,-2.0363,-2.0248,-1.9612,-1.884,-1.7949,-1.7672,-1.7082,-1.6127,-1.5985,-1.5858,-1.5701,-1.6323,-1.6483,-1.6072,-1.6601,-1.7028,-1.7222,-1.6775,-1.712,-1.84,-1.7986,-1.7775,-1.8074,-1.8962,-1.9394,-1.9225,-1.9571,-1.9236,-1.7844,-1.8885,-1.9634,-1.9676,-2.0585,-2.1185,-2.1185,-2.212,-2.2736,-2.2707,-2.3546,-2.4106,-2.4124,-2.4172,-2.4207,-2.4222,-2.433,-2.4437,-2.4417,-2.3997,-2.3568,-2.344,-2.3256,-2.3162,-2.3044,-2.2653,-2.2265,-2.2108,-2.2398,-2.2483,-2.2264,-2.2375,-2.2025,-2.1378,-2.103,-2.0558,-1.9975,-2.0094,-2.0403,-2.0363,-2.1597,-2.2048,-2.1477,-2.1855,-2.2269,-2.2302,-2.224,-2.2071,-2.152,-2.1991,-2.255,-1.8801,-1.8596,-1.8904,-1.9022,-1.9013,-1.8978,-1.8822,-1.8682,-1.9917,-2.0433,-2.0418,-2.1124,-2.1336,-2.1214,-2.1278,-2.136,-2.1468,-2.1592,-2.2083,-2.2854,-2.2854,-2.2856,-2.288,-2.2885,-2.2496,-2.1817,-2.1835,-2.1835,-2.189,-2.2611,-2.2995,-2.2995,-2.2995,-2.2255,-2.0841,-2.0512,-2.0074,-1.9408,-1.9273,-1.9046,-1.8724,-1.8085,-1.7471,-1.687,-1.6831,-1.6652,-1.636,-1.7037,-1.7519,-1.7654,-1.751,-1.7521,-1.7774,-1.7736,-1.8065,-1.8712,-1.9177,-1.9591,-1.9959,-2.0412,-2.0583,-2.0371,-2.0263,-1.9891,-1.9209,-1.9411,-1.9603,-1.9677,-2.0995,-2.1867,-2.1919,-2.2767,-2.333,-2.3348,-2.3665,-2.3858,-2.3876,-2.3878,-2.3905,-2.3898,-2.4033,-2.4164,-2.4181,-2.4137,-2.3809,-2.3301,-2.3006,-2.3003,-2.2932,-2.3465,-2.3583,-2.322,-2.3631,-2.3761,-2.3196,-2.3456,-2.3254,-2.2721,-2.1898,-2.1316,-2.076,-2.0616,-2.0607,-2.0809,-2.1709,-2.221,-2.1967,-2.2105,-2.2225,-2.2228,-2.1869,-2.1328,-2.1075,-2.1615,-2.2034,-1.8615,-1.8516,-1.8634,-1.8689,-1.8716,-1.8652,-1.857,-1.8501,-1.9044,-1.9306,-1.9313,-1.9661,-1.9801,-1.9741,-1.9761,-2.0043,-2.0474,-2.056,-2.1048,-2.1853,-2.1891,-2.1913,-2.1936,-2.1933,-2.1576,-2.0944,-2.1316,-2.1298,-2.1043,-2.1762,-2.2145,-2.2109,-2.1717,-2.1115,-2.0439,-1.9933,-1.9525,-1.915,-1.915,-1.899,-1.868,-1.836,-1.7721,-1.6819,-1.6782,-1.6475,-1.5883,-1.655,-1.7004,-1.7118,-1.7434,-1.7658,-1.7786,-1.7939,-1.8106,-1.8339,-1.8558,-1.8862,-1.9274,-2.0323,-2.1099,-2.1532,-2.1275,-2.0963,-2.0584,-2.0715,-2.083,-2.0875,-2.1946,-2.2601,-2.261,-2.3141,-2.3494,-2.3494,-2.3664,-2.3804,-2.3804,-2.3804,-2.3804,-2.3822,-2.3979,-2.4117,-2.4101,-2.3842,-2.3342,-2.2595,-2.2352,-2.23,-2.2562,-2.334,-2.3823,-2.3488,-2.3869,-2.3988,-2.3609,-2.3724,-2.3575,-2.2806,-2.2358,-2.1692,-2.0935,-2.0634,-2.0693,-2.0409,-2.107,-2.1494,-2.1356,-2.1722,-2.197,-2.205,-2.1883,-2.1472,-2.1088,-2.1141,-2.152,-1.9087,-1.8978,-1.8911,-1.893,-1.8962,-1.8921,-1.8892,-1.888,-1.8752,-1.8668,-1.8691,-1.8553,-1.8465,-1.8494,-1.8522,-1.8898,-1.9463,-1.9544,-2.0041,-2.0863,-2.0925,-2.0927,-2.1006,-2.0997,-2.064,-2.0084,-2.0599,-2.0599,-2.0182,-2.0844,-2.1243,-2.117,-2.0626,-2.0218,-2.0036,-1.9378,-1.9018,-1.8973,-1.8964,-1.8842,-1.8615,-1.8508,-1.7963,-1.6982,-1.6876,-1.6499,-1.5831,-1.6334,-1.665,-1.6677,-1.7274,-1.762,-1.7627,-1.778,-1.7932,-1.8031,-1.8039,-1.8319,-1.904,-2.0236,-2.1383,-2.2324,-2.2142,-2.1909,-2.1824,-2.1951,-2.1981,-2.198,-2.2579,-2.3084,-2.3109,-2.3319,-2.3494,-2.3517,-2.3685,-2.3804,-2.3804,-2.3804,-2.3804,-2.3813,-2.3943,-2.4024,-2.3916,-2.3446,-2.2647,-2.1757,-2.1516,-2.173,-2.2215,-2.2986,-2.3577,-2.3599,-2.3771,-2.3891,-2.381,-2.3738,-2.3355,-2.2581,-2.2219,-2.1509,-2.0653,-2.0671,-2.0663,-2.0137,-2.0459,-2.0806,-2.0628,-2.1019,-2.1438,-2.1493,-2.1432,-2.1356,-2.0858,-2.0753,-2.1019,-2.0818,-2.0439,-2.0343,-2.0387,-2.0349,-2.0343,-2.0326,-2.0256,-1.9704,-1.9408,-1.9359,-1.87,-1.8458,-1.8426,-1.8566,-1.8677,-1.878,-1.8794,-1.9304,-2.0021,-2.0045,-2.0036,-2.0103,-2.0103,-1.9701,-1.9048,-1.9111,-1.9146,-1.9084,-1.9792,-2.0151,-2.0141,-2.007,-1.9648,-1.9039,-1.8878,-1.8734,-1.856,-1.8569,-1.8643,-1.8825,-1.8522,-1.8136,-1.7791,-1.765,-1.7449,-1.7034,-1.7318,-1.739,-1.7383,-1.7329,-1.7362,-1.7346,-1.7472,-1.777,-1.8244,-1.867,-1.9559,-2.0832,-2.1105,-2.154,-2.2359,-2.2449,-2.247,-2.2609,-2.2728,-2.2506,-2.2159,-2.2608,-2.3093,-2.3111,-2.3327,-2.3485,-2.3539,-2.3694,-2.3804,-2.3804,-2.3804,-2.3804,-2.3804,-2.3843,-2.3843,-2.3764,-2.3159,-2.2096,-2.0679,-2.0998,-2.1394,-2.1619,-2.2638,-2.3491,-2.3414,-2.3606,-2.3768,-2.3747,-2.3631,-2.3111,-2.2335,-2.1576,-2.0951,-2.053,-2.02,-2.0074,-1.9952,-2.0332,-2.0447,-2.0353,-2.0511,-2.0552,-2.0625,-2.0633,-2.0549,-2.0495,-2.0526,-2.0729,-2.1214,-2.0978,-2.0657,-2.0512,-2.048,-2.0535,-2.0535,-2.0492,-2.0192,-2.0039,-1.9996,-1.9701,-1.9386,-1.9063,-1.9105,-1.9129,-1.9132,-1.9161,-1.9076,-1.901,-1.8981,-1.9012,-1.9109,-1.9117,-1.8951,-1.8705,-1.8724,-1.8706,-1.8759,-1.9072,-1.9233,-1.9206,-1.9084,-1.8915,-1.8778,-1.8432,-1.8296,-1.8369,-1.8151,-1.8071,-1.8162,-1.803,-1.7833,-1.7568,-1.7399,-1.728,-1.7126,-1.7175,-1.7199,-1.7216,-1.7134,-1.7117,-1.7125,-1.7167,-1.7289,-1.7533,-1.7935,-1.8837,-2.0364,-2.0518,-2.1121,-2.2412,-2.248,-2.2561,-2.2738,-2.2782,-2.272,-2.2571,-2.287,-2.3144,-2.3217,-2.3401,-2.3539,-2.3611,-2.3738,-2.3804,-2.3804,-2.3804,-2.3804,-2.3795,-2.3816,-2.3846,-2.3635,-2.2736,-2.1378,-2.0047,-2.0219,-2.0804,-2.1258,-2.2159,-2.2838,-2.3218,-2.3369,-2.3378,-2.3325,-2.2932,-2.2493,-2.2055,-2.1406,-2.0741,-2.011,-1.9878,-1.964,-1.9326,-1.9394,-1.9398,-1.9109,-1.9638,-1.9921,-1.9899,-1.9886,-1.9821,-1.9412,-1.9734,-1.986,-2.167,-2.1606,-2.1203,-2.1023,-2.0982,-2.104,-2.1065,-2.1039,-2.1022,-2.0903,-2.0665,-2.045,-2.0231,-2.0013,-1.9855,-1.97,-1.953,-1.9491,-1.9056,-1.8397,-1.8316,-1.8357,-1.8445,-1.8428,-1.8467,-1.8517,-1.8566,-1.8528,-1.8404,-1.8469,-1.8461,-1.8364,-1.8188,-1.8226,-1.8391,-1.8005,-1.7864,-1.7975,-1.7715,-1.7574,-1.7489,-1.7442,-1.7365,-1.724,-1.7093,-1.6985,-1.6968,-1.696,-1.6993,-1.6993,-1.696,-1.6942,-1.6934,-1.6942,-1.6993,-1.7068,-1.7296,-1.8052,-1.947,-1.9672,-2.0442,-2.1896,-2.218,-2.2346,-2.2616,-2.2764,-2.2833,-2.2876,-2.3003,-2.3135,-2.3241,-2.3369,-2.3485,-2.358,-2.3685,-2.3771,-2.3771,-2.3792,-2.3804,-2.3795,-2.3846,-2.3678,-2.3168,-2.2186,-2.098,-1.9575,-1.9749,-2.0416,-2.1177,-2.1839,-2.2526,-2.3212,-2.3117,-2.2849,-2.2766,-2.2441,-2.1961,-2.1285,-2.0688,-2.0153,-1.9517,-1.925,-1.9129,-1.8769,-1.842,-1.836,-1.8574,-1.9011,-1.9267,-1.9211,-1.9194,-1.9122,-1.8703,-1.9032,-1.9015,-2.2537,-2.2511,-2.2431,-2.2318,-2.2395,-2.2413,-2.2431,-2.226,-2.2401,-2.2057,-2.1285,-2.0619,-2.0636,-2.1225,-2.0737,-2.0128,-1.9604,-1.9486,-1.9113,-1.8487,-1.8388,-1.8319,-1.8328,-1.8319,-1.8328,-1.831,-1.8339,-1.8161,-1.7881,-1.798,-1.7866,-1.7602,-1.7602,-1.7641,-1.7687,-1.7618,-1.7517,-1.7399,-1.7319,-1.7183,-1.6952,-1.6809,-1.6885,-1.7035,-1.6901,-1.6781,-1.6823,-1.6925,-1.6993,-1.6993,-1.6858,-1.6815,-1.6815,-1.6815,-1.6933,-1.7224,-1.7288,-1.7723,-1.8626,-1.8892,-1.9622,-2.0992,-2.1472,-2.1815,-2.2528,-2.2756,-2.2868,-2.2902,-2.3011,-2.3086,-2.3126,-2.3289,-2.3369,-2.3383,-2.358,-2.3691,-2.3721,-2.3783,-2.3804,-2.3825,-2.3867,-2.3353,-2.2035,-2.1662,-2.0806,-1.9743,-1.979,-2.0463,-2.1101,-2.1887,-2.2511,-2.2937,-2.2754,-2.2256,-2.2059,-2.1699,-2.1092,-2.0491,-1.9982,-1.9461,-1.8831,-1.8333,-1.8336,-1.8345,-1.8336,-1.8328,-1.8328,-1.8371,-1.8476,-1.8511,-1.8545,-1.8391,-1.8423,-1.8423,-1.8458,-2.2499,-2.2542,-2.2451,-2.2468,-2.2574,-2.259,-2.2528,-2.2362,-2.2415,-2.2252,-2.197,-2.1663,-2.1732,-2.2015,-2.1875,-2.1387,-2.0699,-2.0168,-1.9621,-1.9121,-1.8893,-1.8579,-1.8222,-1.8584,-1.8547,-1.816,-1.8168,-1.8027,-1.7783,-1.7808,-1.7664,-1.7383,-1.7215,-1.724,-1.7368,-1.706,-1.6876,-1.6994,-1.6799,-1.6633,-1.6588,-1.6471,-1.6455,-1.6633,-1.6596,-1.6551,-1.6551,-1.6596,-1.6607,-1.6623,-1.6607,-1.6599,-1.6625,-1.6633,-1.6738,-1.6967,-1.7101,-1.7585,-1.8427,-1.8709,-1.9512,-2.1036,-2.1353,-2.1738,-2.2434,-2.2712,-2.2816,-2.2893,-2.2936,-2.3028,-2.3208,-2.3345,-2.3462,-2.3558,-2.3682,-2.3771,-2.3822,-2.3855,-2.3867,-2.3926,-2.3919,-2.3358,-2.2155,-2.1625,-2.096,-1.9558,-1.9432,-1.9935,-2.0526,-2.095,-2.1368,-2.1866,-2.1783,-2.1343,-2.0714,-2.061,-2.0269,-1.9831,-1.9351,-1.902,-1.8489,-1.8397,-1.8406,-1.8445,-1.8417,-1.8357,-1.8357,-1.8299,-1.829,-1.8348,-1.8348,-1.8368,-1.8426,-1.8406,-1.8426,-2.2335,-2.2332,-2.2296,-2.2321,-2.242,-2.2434,-2.2364,-2.2206,-2.22,-2.2217,-2.2183,-2.2192,-2.222,-2.2276,-2.2268,-2.205,-2.1554,-2.0858,-2.0153,-1.9487,-1.9423,-1.9219,-1.901,-1.9251,-1.9162,-1.8702,-1.8466,-1.8102,-1.7502,-1.7471,-1.7264,-1.6918,-1.6755,-1.6765,-1.6893,-1.6554,-1.6455,-1.6591,-1.6386,-1.6281,-1.6289,-1.6166,-1.606,-1.6037,-1.6136,-1.6246,-1.6371,-1.6336,-1.6316,-1.6344,-1.6293,-1.6305,-1.6359,-1.6463,-1.6581,-1.6797,-1.6942,-1.7313,-1.7996,-1.8268,-1.9092,-2.0713,-2.102,-2.1447,-2.2442,-2.2703,-2.2816,-2.2893,-2.2961,-2.3052,-2.3256,-2.3407,-2.353,-2.3634,-2.3716,-2.3786,-2.3834,-2.3894,-2.3974,-2.4014,-2.4025,-2.3425,-2.2374,-2.1898,-2.1067,-1.9764,-1.9435,-1.9563,-2.0178,-2.03,-2.048,-2.1149,-2.1051,-2.0688,-2.0247,-2.0037,-1.9754,-1.9305,-1.9175,-1.8767,-1.8552,-1.8513,-1.8485,-1.8524,-1.8505,-1.8445,-1.8377,-1.8299,-1.8319,-1.8357,-1.8406,-1.8426,-1.8426,-1.8417,-1.8377,-2.211,-2.1998,-2.1998,-2.2032,-2.2128,-2.2111,-2.2086,-2.2132,-2.1995,-2.1966,-2.2074,-2.2003,-2.194,-2.1961,-2.1853,-2.182,-2.1781,-2.1269,-2.0539,-1.9689,-1.9866,-2.0162,-2.0365,-2.0145,-1.9976,-1.979,-1.928,-1.8234,-1.709,-1.7025,-1.6738,-1.6254,-1.6199,-1.6254,-1.6214,-1.626,-1.6276,-1.6327,-1.6269,-1.6205,-1.6113,-1.6043,-1.5787,-1.5425,-1.5662,-1.5939,-1.6183,-1.6171,-1.6131,-1.6088,-1.5896,-1.5875,-1.6052,-1.6219,-1.6448,-1.6686,-1.6789,-1.6976,-1.7281,-1.7419,-1.8252,-1.9791,-2.0245,-2.102,-2.2261,-2.2756,-2.2893,-2.2919,-2.302,-2.316,-2.3289,-2.3439,-2.3508,-2.353,-2.3664,-2.3744,-2.3753,-2.3882,-2.401,-2.4072,-2.4084,-2.3775,-2.3052,-2.2271,-2.14,-2.0549,-1.979,-1.9502,-2.0083,-2.0091,-2.0518,-2.0962,-2.068,-2.0065,-1.9822,-1.9597,-1.921,-1.8887,-1.8904,-1.8732,-1.8648,-1.861,-1.8544,-1.8563,-1.8572,-1.8505,-1.8397,-1.8359,-1.8379,-1.8417,-1.8445,-1.8454,-1.8426,-1.8385,-1.8272,-2.1653,-2.1645,-2.1623,-2.1752,-2.1996,-2.1832,-2.2178,-2.281,-2.1882,-2.1738,-2.2145,-2.1627,-2.1438,-2.156,-2.1438,-2.1415,-2.1529,-2.11,-2.0942,-2.0983,-2.065,-2.0469,-2.0515,-2.0521,-2.0261,-1.9692,-1.8917,-1.8113,-1.7371,-1.6871,-1.6402,-1.5983,-1.5943,-1.5913,-1.5989,-1.6307,-1.6481,-1.642,-1.6699,-1.6826,-1.6683,-1.6343,-1.5964,-1.5634,-1.5716,-1.5562,-1.4975,-1.5293,-1.5397,-1.5211,-1.5144,-1.5241,-1.5492,-1.5917,-1.6191,-1.6328,-1.6535,-1.6712,-1.6842,-1.6992,-1.7677,-1.9055,-1.9805,-2.0754,-2.2055,-2.2651,-2.291,-2.297,-2.3095,-2.3232,-2.3407,-2.3544,-2.3643,-2.3625,-2.3759,-2.3819,-2.3835,-2.4001,-2.4125,-2.4162,-2.42,-2.3879,-2.3187,-2.2394,-2.1648,-2.0811,-1.9985,-1.9648,-1.9687,-1.976,-1.9641,-1.992,-1.9611,-1.9271,-1.8556,-1.8548,-1.878,-1.836,-1.8269,-1.8744,-1.8733,-1.8639,-1.8573,-1.8535,-1.8563,-1.8505,-1.8408,-1.8419,-1.8439,-1.8487,-1.8524,-1.8494,-1.8426,-1.8333,-1.8197,-2.1543,-2.1332,-2.1576,-2.1827,-2.2092,-2.1867,-2.2411,-2.3192,-2.2319,-2.2036,-2.2149,-2.154,-2.1109,-2.1015,-2.0716,-2.0626,-2.0724,-2.0361,-2.0649,-2.1206,-2.0708,-2.0449,-2.0644,-2.0827,-2.05,-1.9788,-1.909,-1.8337,-1.7582,-1.7034,-1.6563,-1.622,-1.6151,-1.618,-1.6173,-1.6525,-1.6666,-1.6608,-1.6778,-1.6884,-1.6697,-1.6254,-1.5764,-1.5437,-1.532,-1.4838,-1.4079,-1.4478,-1.4638,-1.4543,-1.4585,-1.4717,-1.4902,-1.5337,-1.5725,-1.5924,-1.6113,-1.6297,-1.6512,-1.6693,-1.7423,-1.8799,-1.9524,-2.052,-2.1798,-2.2571,-2.2816,-2.3026,-2.3208,-2.3383,-2.3531,-2.362,-2.3716,-2.3828,-2.3885,-2.3832,-2.3728,-2.3732,-2.3759,-2.3796,-2.4045,-2.398,-2.3555,-2.2852,-2.2057,-2.1246,-2.0452,-1.9926,-1.9807,-1.9571,-1.9482,-1.9448,-1.9515,-1.8633,-1.7046,-1.7329,-1.8199,-1.7914,-1.7545,-1.8287,-1.8762,-1.8641,-1.8556,-1.8467,-1.8448,-1.8316,-1.8225,-1.8388,-1.8467,-1.8535,-1.8563,-1.8465,-1.8365,-1.821,-1.8078,-2.1728,-2.115,-2.1796,-2.2131,-2.2213,-2.2123,-2.266,-2.3399,-2.306,-2.2563,-2.2099,-2.1541,-2.0981,-2.0357,-1.9889,-1.9705,-1.9619,-1.9411,-1.9632,-1.999,-1.9801,-1.9813,-2.0597,-2.0798,-2.0535,-1.9963,-1.9508,-1.8738,-1.7625,-1.7221,-1.6985,-1.6577,-1.6576,-1.6725,-1.6618,-1.6732,-1.6782,-1.6649,-1.6626,-1.6652,-1.6566,-1.5854,-1.528,-1.489,-1.4635,-1.4169,-1.3483,-1.3567,-1.384,-1.4113,-1.4299,-1.4365,-1.4365,-1.4655,-1.5145,-1.5477,-1.5558,-1.5824,-1.6176,-1.648,-1.731,-1.8808,-1.9489,-2.0285,-2.1928,-2.2508,-2.2806,-2.3156,-2.3353,-2.3549,-2.368,-2.3756,-2.3858,-2.3978,-2.3899,-2.3591,-2.3032,-2.2727,-2.198,-2.2219,-2.318,-2.3186,-2.1905,-2.1337,-2.0661,-2.0171,-1.9444,-1.9467,-1.9287,-1.877,-1.9463,-1.9465,-1.92,-1.8304,-1.683,-1.8001,-1.8397,-1.584,-1.5914,-1.7073,-1.8329,-1.8503,-1.8528,-1.8439,-1.8379,-1.8225,-1.8225,-1.8439,-1.8528,-1.8547,-1.8517,-1.8417,-1.8304,-1.8189,-1.8057,-2.1514,-2.1241,-2.19,-2.2013,-2.1846,-2.2044,-2.2859,-2.3724,-2.2824,-2.2331,-2.1954,-2.1181,-2.0436,-1.976,-1.9339,-1.9104,-1.8903,-1.8493,-1.8673,-1.9077,-1.819,-1.8569,-1.9594,-2.0081,-1.9993,-1.9493,-1.9004,-1.8352,-1.7434,-1.7008,-1.655,-1.6138,-1.637,-1.6351,-1.6215,-1.6623,-1.665,-1.6509,-1.6811,-1.6857,-1.6595,-1.5886,-1.5301,-1.4808,-1.4451,-1.3712,-1.2621,-1.233,-1.2696,-1.3584,-1.403,-1.4063,-1.3791,-1.4375,-1.4738,-1.4742,-1.4878,-1.5136,-1.5647,-1.6122,-1.7128,-1.8507,-1.9404,-2.0833,-2.2182,-2.2513,-2.2931,-2.3374,-2.3543,-2.3285,-2.3685,-2.3637,-2.3828,-2.4174,-2.2842,-2.2372,-2.175,-1.9627,-1.7859,-1.7685,-1.5616,-1.4691,-1.4376,-1.3768,-1.3061,-1.3128,-1.4529,-1.6188,-1.6063,-1.6924,-1.7206,-1.8303,-1.8317,-1.7671,-1.7462,-1.8684,-1.7916,-1.428,-1.4007,-1.5333,-1.6869,-1.8151,-1.8338,-1.8478,-1.8498,-1.8379,-1.8489,-1.867,-1.8643,-1.8643,-1.8604,-1.8556,-1.8419,-1.8299,-1.8113,-2.1257,-2.1053,-2.1986,-2.2211,-2.2081,-2.2273,-2.2947,-2.3608,-2.3012,-2.2423,-2.1949,-2.0995,-2.0027,-1.925,-1.8609,-1.8164,-1.788,-1.745,-1.7588,-1.7767,-1.6678,-1.7024,-1.8268,-1.8851,-1.8881,-1.8761,-1.8245,-1.7772,-1.7302,-1.679,-1.6464,-1.6323,-1.6336,-1.6374,-1.6401,-1.6454,-1.6494,-1.6204,-1.6253,-1.6083,-1.5834,-1.4858,-1.4264,-1.3779,-1.3408,-1.2683,-1.1972,-1.1735,-1.1944,-1.26,-1.3092,-1.33,-1.3138,-1.3463,-1.3753,-1.3691,-1.3768,-1.4031,-1.4608,-1.4915,-1.611,-1.7958,-1.8968,-1.8944,-1.9227,-1.9386,-1.9261,-1.7303,-1.7438,-1.7594,-1.8014,-1.8288,-1.8271,-1.7499,-1.7585,-1.7917,-1.9173,-1.7198,-1.487,-1.3116,-1.1262,-0.9756,-0.9721,-0.9045,-0.8607,-0.8989,-1.0708,-1.1615,-1.2062,-1.345,-1.457,-1.5184,-1.5356,-1.4341,-1.2551,-1.2933,-1.3741,-1.0767,-1.2253,-1.3588,-1.4353,-1.6427,-1.8432,-1.8671,-1.8633,-1.8623,-1.8744,-1.8834,-1.8878,-1.886,-1.8807,-1.8716,-1.8585,-1.8421,-1.8225,-2.0828,-2.0703,-2.1984,-2.2562,-2.2557,-2.2594,-2.2849,-2.3296,-2.3157,-2.2658,-2.1887,-2.0898,-1.9908,-1.8816,-1.7974,-1.7154,-1.6667,-1.6392,-1.6411,-1.6243,-1.556,-1.5647,-1.6979,-1.7451,-1.7572,-1.7605,-1.7218,-1.7014,-1.676,-1.6456,-1.6421,-1.6272,-1.6292,-1.6459,-1.6266,-1.6194,-1.6058,-1.5706,-1.4975,-1.4653,-1.4354,-1.349,-1.2849,-1.2647,-1.1934,-1.1643,-1.1433,-1.1312,-1.1261,-1.132,-1.1945,-1.237,-1.2346,-1.2203,-1.2312,-1.2433,-1.2495,-1.2633,-1.3148,-1.292,-1.3716,-1.6382,-1.6387,-1.6028,-1.5731,-1.4984,-1.3131,-1.0732,-0.895,-1.0469,-1.1217,-1.0865,-1.1292,-1.1346,-1.0283,-1.1214,-1.3658,-1.4203,-1.2163,-0.8762,-0.8467,-0.8265,-0.8323,-0.8198,-0.7452,-0.3906,-0.5896,-0.7609,-0.8361,-0.9589,-1.0375,-1.0868,-1.0755,-1.0374,-0.8274,-0.635,-0.7021,-0.6794,-0.9956,-1.1573,-1.1098,-1.3251,-1.716,-1.8928,-1.8895,-1.8869,-1.8912,-1.899,-1.8924,-1.909,-1.9022,-1.8895,-1.8753,-1.8586,-1.8402,-2.0009,-2.0756,-2.1733,-2.2294,-2.2494,-2.2538,-2.2415,-2.226,-2.248,-2.1949,-2.1195,-2.0792,-1.9826,-1.8508,-1.7591,-1.6848,-1.6125,-1.5641,-1.5351,-1.5175,-1.4569,-1.4541,-1.5389,-1.5985,-1.6219,-1.6157,-1.6219,-1.5984,-1.5688,-1.565,-1.5567,-1.5496,-1.5567,-1.5567,-1.5394,-1.5045,-1.4835,-1.4756,-1.3866,-1.3467,-1.343,-1.2598,-1.1994,-1.1846,-1.1011,-1.0618,-1.0466,-1.0016,-0.9684,-1.0008,-1.1076,-1.1762,-1.1576,-1.1553,-1.1616,-1.1591,-1.1211,-1.121,-1.1598,-1.0952,-1.0568,-1.2352,-1.3478,-1.3957,-1.4253,-1.1478,-0.9492,-0.8048,-0.8275,-0.8362,-0.9221,-1.0202,-0.9592,-0.8811,-0.7642,-0.6979,-0.7921,-0.6734,-0.5328,-0.3586,-0.1251,0.0892,0.0692,0.0337,0.059,0.0995,-0.0896,-0.3359,-0.4725,-0.5788,-0.6333,-0.6874,-0.8075,-0.7906,-0.6108,-0.4408,-0.4612,-0.507,-0.7719,-0.9747,-0.9268,-1.0726,-1.4911,-1.7577,-1.9148,-1.8815,-1.7506,-1.8567,-1.8393,-1.8797,-1.9243,-1.9159,-1.903,-1.8815,-1.8577,-1.9027,-2.0019,-2.0788,-2.1212,-2.1363,-2.1397,-2.1198,-2.1024,-2.0982,-2.0877,-2.046,-1.9874,-1.91,-1.8407,-1.7199,-1.6234,-1.5648,-1.4937,-1.449,-1.4236,-1.3819,-1.3778,-1.4029,-1.4516,-1.4739,-1.4971,-1.5033,-1.4909,-1.4852,-1.476,-1.4755,-1.4726,-1.4801,-1.4595,-1.4256,-1.3878,-1.3564,-1.3145,-1.2294,-1.1805,-1.1777,-1.1175,-1.0614,-1.0462,-0.9865,-0.9562,-0.9399,-0.9096,-0.8728,-0.8813,-0.9552,-1.0233,-1.0217,-1.0171,-1.0157,-1.0056,-0.9832,-0.9644,-0.9715,-0.9186,-0.9166,-1.0639,-1.12,-1.0751,-1.0447,-0.8265,-0.5962,-0.4241,-0.3595,-0.4053,-0.5079,-0.51,-0.5172,-0.4623,-0.361,-0.2551,-0.2214,-0.2207,-0.1535,-0.0,0.1941,0.3008,0.3907,0.4128,0.4117,0.2474,0.2632,0.0395,-0.1003,-0.197,-0.2499,-0.3429,-0.5356,-0.562,-0.4051,-0.3296,-0.3594,-0.4345,-0.5893,-0.7434,-0.7839,-1.009,-1.2963,-1.425,-1.5006,-1.5463,-1.4747,-1.614,-1.7668,-1.8854,-1.9272,-1.9345,-1.9231,-1.8862,-1.8664,-1.8037,-1.8857,-1.9553,-1.9857,-1.994,-1.9946,-1.9845,-1.9647,-1.9459,-1.9794,-1.9851,-1.8615,-1.8414,-1.8091,-1.6726,-1.5753,-1.5048,-1.4366,-1.3799,-1.3557,-1.3258,-1.3226,-1.3362,-1.3452,-1.3674,-1.4335,-1.4097,-1.4019,-1.4077,-1.3978,-1.3936,-1.4025,-1.4035,-1.3721,-1.3195,-1.2807,-1.2439,-1.1909,-1.1015,-1.0498,-1.0261,-0.9736,-0.9249,-0.889,-0.8682,-0.8521,-0.8355,-0.815,-0.7937,-0.7714,-0.7658,-0.7909,-0.8195,-0.8359,-0.827,-0.8313,-0.8184,-0.8057,-0.7937,-0.7342,-0.7564,-1.0392,-0.8941,-0.7428,-0.6071,-0.5555,-0.3992,-0.1808,-0.07,-0.0484,0.0278,-0.0812,-0.0327,0.0437,0.0808,0.1687,0.1789,-0.0331,0.0084,0.1908,0.2658,0.2995,0.3353,0.3492,0.3812,0.413,0.4242,0.3923,0.2334,0.1136,0.015,-0.0494,-0.2395,-0.3251,-0.1953,-0.0668,-0.1158,-0.1917,-0.3397,-0.3976,-0.4749,-0.51,-0.6482,-0.8781,-0.9702,-1.0543,-1.1534,-1.2393,-1.4449,-1.7502,-1.8318,-1.7367,-1.7745,-1.8649,-1.867,-1.7399,-1.7585,-1.8292,-1.8804,-1.9064,-1.9107,-1.8838,-1.8644,-1.8797,-1.9131,-1.9236,-1.8561,-1.809,-1.7812,-1.671,-1.5399,-1.4383,-1.3726,-1.3333,-1.3169,-1.2891,-1.2881,-1.2974,-1.2827,-1.2958,-1.3104,-1.3142,-1.319,-1.3253,-1.3113,-1.3205,-1.3157,-1.3205,-1.2885,-1.2253,-1.1756,-1.1488,-1.1078,-1.0308,-0.997,-0.9952,-0.9333,-0.8616,-0.8096,-0.7777,-0.761,-0.7551,-0.7176,-0.6804,-0.665,-0.6534,-0.6477,-0.6597,-0.7042,-0.7381,-0.7439,-0.6905,-0.6603,-0.645,-0.5206,-0.4235,-0.4053,-0.4154,-0.358,-0.3174,-0.3518,-0.3439,-0.2979,-0.2009,-0.1898,-0.207,-0.1453,-0.1286,-0.0948,-0.0334,0.0277,0.0385,0.0366,0.0436,0.1995,0.2286,0.2394,0.262,0.2742,0.2939,0.3186,0.3409,0.352,0.2796,0.2011,0.1405,0.0973,0.0433,0.0,0.0183,0.1511,0.1982,0.1578,0.073,0.085,0.0641,0.1701,0.0637,-0.3138,-0.5755,-0.7172,-0.8057,-0.8717,-1.0056,-1.2237,-1.3488,-1.4932,-1.532,-1.5949,-1.8229,-1.6983,-1.6996,-1.7385,-1.762,-1.7775,-1.7814,-1.7595,-1.739,-1.754,-1.7972,-1.8081,-1.7578,-1.7472,-1.7413,-1.6305,-1.5009,-1.4098,-1.3708,-1.3488,-1.3301,-1.3044,-1.2819,-1.2731,-1.2494,-1.2292,-1.2224,-1.222,-1.2471,-1.273,-1.272,-1.2681,-1.2725,-1.2774,-1.2358,-1.1584,-1.1116,-1.069,-1.0324,-0.9755,-0.9449,-0.9649,-0.8844,-0.8037,-0.7509,-0.7125,-0.691,-0.6642,-0.6534,-0.6157,-0.5884,-0.5775,-0.5668,-0.569,-0.5808,-0.6185,-0.6311,-0.5937,-0.5434,-0.5303,-0.4325,-0.4097,-0.3554,-0.3226,-0.3228,-0.3178,-0.3677,-0.3811,-0.3584,-0.347,-0.3074,-0.2852,-0.2573,-0.2348,-0.2067,-0.151,-0.1064,-0.0617,-0.0112,0.0493,0.1119,0.1471,0.1657,0.1818,0.194,0.2011,0.2241,0.2519,0.2684,0.2792,0.2449,0.1886,0.1031,0.0537,0.0553,0.0509,0.1585,0.2818,0.2951,0.3173,0.3306,0.3434,0.3274,0.2532,0.0355,-0.1739,-0.349,-0.4315,-0.4868,-0.5943,-0.748,-1.0917,-1.3317,-1.2818,-1.3481,-1.6338,-1.648,-1.6441,-1.6524,-1.6586,-1.6586,-1.6586,-1.6477,-1.6316,-1.6301,-1.6842,-1.7368,-1.6503,-1.6554,-1.6887,-1.5979,-1.4709,-1.4023,-1.3789,-1.3594,-1.3185,-1.3002,-1.2768,-1.2468,-1.2179,-1.1881,-1.1619,-1.1573,-1.1778,-1.217,-1.222,-1.2224,-1.2224,-1.2328,-1.1914,-1.1044,-1.0677,-1.0123,-0.9618,-0.9215,-0.9061,-0.8893,-0.8256,-0.7566,-0.7039,-0.6756,-0.6485,-0.6164,-0.6,-0.567,-0.5338,-0.5171,-0.5117,-0.5115,-0.4952,-0.4897,-0.4952,-0.5062,-0.4675,-0.4345,-0.4457,-0.4234,-0.385,-0.4354,-0.4411,-0.4356,-0.4135,-0.4081,-0.3795,-0.3683,-0.3573,-0.3354,-0.313,-0.296,-0.2681,-0.2515,-0.2127,-0.1457,-0.0897,-0.0617,0.0,0.0617,0.0951,0.1057,0.1168,0.1288,0.1514,0.1848,0.2099,0.2206,0.22,0.1632,0.0578,0.0051,0.0243,0.0415,0.0812,0.1744,0.2148,0.2547,0.2903,0.3083,0.3213,0.2504,0.2023,0.2196,0.0592,-0.0202,-0.104,-0.1555,-0.3978,-0.9151,-1.1449,-1.0663,-1.3038,-1.664,-1.5791,-1.555,-1.5768,-1.5851,-1.5851,-1.5846,-1.5851,-1.5783,-1.5768,-1.6093,-1.6708,-1.6056,-1.5999,-1.6115,-1.5472,-1.4412,-1.3761,-1.3547,-1.3233,-1.2715,-1.2552,-1.2405,-1.202,-1.1873,-1.1606,-1.1319,-1.1297,-1.1372,-1.1525,-1.153,-1.1477,-1.1536,-1.1567,-1.1167,-1.0655,-1.0336,-0.9928,-0.9517,-0.9465,-0.9249,-0.8834,-0.8371,-0.7836,-0.7351,-0.6923,-0.6552,-0.6059,-0.5837,-0.5454,-0.4959,-0.4737,-0.4627,-0.4572,-0.4572,-0.4236,-0.4072,-0.4019,-0.4079,-0.369,-0.3909,-0.4128,-0.3962,-0.4239,-0.4575,-0.4634,-0.452,-0.4298,-0.4021,-0.3964,-0.3909,-0.3742,-0.3629,-0.3515,-0.3236,-0.2959,-0.2572,-0.2071,-0.1569,-0.1289,-0.0953,-0.028,0.0056,0.028,0.0392,0.0561,0.0841,0.1118,0.1378,0.1574,0.1565,0.1145,0.0053,-0.0204,-0.0,0.0047,0.046,0.0915,0.141,0.202,0.2512,0.2755,0.2985,0.3216,0.304,0.3439,0.2956,0.0854,0.0525,0.1987,-0.1272,-0.7462,-0.8745,-0.8232,-1.1989,-1.7117,-1.5284,-1.5172,-1.5391,-1.5541,-1.5541,-1.5624,-1.5576,-1.5444,-1.5357,-1.5642,-1.5994,-1.5541,-1.5303,-1.5162,-1.472,-1.4245,-1.3687,-1.3521,-1.3351,-1.2788,-1.2662,-1.2455,-1.2188,-1.1793,-1.1393,-1.1088,-1.0865,-1.0773,-1.093,-1.1308,-1.1464,-1.1141,-1.1315,-1.1164,-1.0455,-1.0142,-0.9884,-0.9681,-0.9469,-0.9145,-0.8626,-0.8203,-0.7774,-0.7238,-0.6923,-0.6492,-0.6112,-0.5891,-0.5561,-0.5122,-0.4954,-0.4954,-0.4901,-0.4739,-0.4462,-0.4182,-0.4019,-0.3688,-0.319,-0.3407,-0.3627,-0.385,-0.4127,-0.4405,-0.4575,-0.452,-0.4406,-0.4296,-0.4296,-0.413,-0.3909,-0.3909,-0.3687,-0.3463,-0.3294,-0.3018,-0.2631,-0.2241,-0.1906,-0.157,-0.1234,-0.0785,-0.0336,-0.0112,0.0112,0.0449,0.0614,0.0772,0.0967,0.1047,0.0373,-0.0599,-0.0522,-0.0199,-0.0244,-0.0095,0.0383,0.0947,0.1727,0.2187,0.2438,0.271,0.3035,0.3177,0.3168,0.2354,0.104,0.0147,-0.0209,-0.3,-0.6232,-0.7817,-0.9646,-1.3751,-1.7096,-1.4878,-1.4885,-1.5094,-1.5235,-1.5235,-1.5376,-1.5269,-1.5088,-1.5001,-1.5167,-1.5352,-1.5015,-1.4602,-1.4295,-1.4048,-1.3784,-1.3348,-1.3347,-1.3189,-1.3007,-1.2843,-1.2512,-1.2084,-1.1632,-1.1296,-1.0852,-1.0728,-1.0609,-1.0798,-1.1169,-1.1377,-1.0946,-1.1088,-1.0946,-1.048,-1.0029,-0.9673,-0.958,-0.9372,-0.9001,-0.858,-0.8253,-0.7777,-0.7348,-0.6972,-0.6596,-0.6107,-0.6,-0.578,-0.5119,-0.495,-0.4785,-0.4565,-0.4239,-0.3964,-0.3684,-0.3407,-0.3077,-0.2799,-0.2909,-0.335,-0.3793,-0.4068,-0.4343,-0.4291,-0.4294,-0.4185,-0.4127,-0.3904,-0.3793,-0.3738,-0.3852,-0.3688,-0.3577,-0.3522,-0.3355,-0.3134,-0.2742,-0.2298,-0.1852,-0.1571,-0.1346,-0.0953,-0.0561,-0.028,0.0056,0.0167,0.022,0.0376,0.0519,0.0208,-0.0536,-0.0905,-0.0566,-0.036,-0.0304,0.005,0.0591,0.1374,0.1858,0.2163,0.2562,0.293,0.2989,0.2876,0.1196,-0.0495,-0.1681,-0.3035,-0.575,-0.8257,-1.0055,-1.2511,-1.6134,-1.5708,-1.451,-1.4556,-1.4656,-1.477,-1.4761,-1.4624,-1.4628,-1.4711,-1.4596,-1.4605,-1.4697,-1.4419,-1.3997,-1.3631,-1.3485,-1.3113,-1.2478,-1.2724,-1.2494,-1.2189,-1.2068,-1.2105,-1.1853,-1.167,-1.1499,-1.1066,-1.0819,-1.0718,-1.0716,-1.1045,-1.1165,-1.1027,-1.0892,-1.0572,-1.0236,-0.9942,-0.9574,-0.9397,-0.9207,-0.901,-0.8738,-0.8459,-0.8071,-0.7684,-0.7413,-0.7033,-0.6263,-0.6128,-0.5736,-0.4908,-0.4732,-0.4345,-0.407,-0.3739,-0.3408,-0.3129,-0.2795,-0.252,-0.2355,-0.2521,-0.3077,-0.3739,-0.4121,-0.4113,-0.3898,-0.3461,-0.3407,-0.3683,-0.357,-0.3404,-0.3459,-0.3626,-0.3742,-0.3579,-0.3634,-0.3633,-0.3411,-0.3187,-0.2687,-0.2188,-0.1908,-0.1738,-0.1624,-0.1288,-0.0729,-0.0392,-0.0276,-0.0218,-0.0054,0.0105,0.031,-0.0157,-0.101,-0.0961,-0.0547,-0.027,0.0104,0.0662,0.1442,0.1704,0.1835,0.228,0.3008,0.2494,0.2136,0.0041,-0.2434,-0.4884,-0.7011,-0.8495,-1.0527,-1.327,-1.3616,-1.5083,-1.2654,-1.3885,-1.3881,-1.3928,-1.4181,-1.4561,-1.4542,-1.4424,-1.4231,-1.3994,-1.3884,-1.3988,-1.3756,-1.3459,-1.3094,-1.2907,-1.2667,-1.2312,-1.2289,-1.2131,-1.2123,-1.2093,-1.2031,-1.1878,-1.1646,-1.1407,-1.1107,-1.0968,-1.0795,-1.0666,-1.0925,-1.1048,-1.0925,-1.0755,-1.0483,-1.0186,-0.9907,-0.9636,-0.9418,-0.9158,-0.8969,-0.8789,-0.8613,-0.8272,-0.7732,-0.79,-0.7436,-0.6676,-0.6585,-0.6041,-0.5438,-0.5083,-0.4593,-0.3982,-0.3646,-0.3307,-0.2972,-0.2639,-0.2358,-0.2244,-0.2244,-0.241,-0.2793,-0.3281,-0.3549,-0.3288,-0.2967,-0.3134,-0.3297,-0.3347,-0.3238,-0.3515,-0.3904,-0.4075,-0.3745,-0.3635,-0.3801,-0.3688,-0.3409,-0.3131,-0.2578,-0.2355,-0.2241,-0.2127,-0.1958,-0.1399,-0.0895,-0.077,-0.0597,-0.0431,-0.0321,-0.0158,0.0,-0.0749,-0.1196,-0.0834,-0.0326,0.0158,0.0836,0.1506,0.1735,0.2004,0.2624,0.308,0.2394,0.0772,-0.1921,-0.4993,-0.8721,-1.1044,-1.2424,-1.476,-1.7573,-1.6944,-1.4788,-1.0506,-1.3373,-1.3287,-1.3437,-1.3761,-1.4198,-1.4423,-1.4234,-1.3808,-1.3434,-1.3266,-1.3329,-1.3216,-1.3038,-1.2736,-1.2548,-1.2359,-1.2216,-1.212,-1.2054,-1.2046,-1.1984,-1.1999,-1.1851,-1.1737,-1.1545,-1.1274,-1.1048,-1.0921,-1.0787,-1.0787,-1.0832,-1.0833,-1.0777,-1.0502,-1.0241,-0.9891,-0.968,-0.9487,-0.9285,-0.8943,-0.877,-0.8692,-0.8382,-0.7949,-0.8026,-0.7736,-0.7164,-0.6964,-0.6441,-0.5857,-0.5358,-0.5004,-0.4412,-0.3877,-0.3517,-0.3176,-0.2838,-0.2493,-0.2363,-0.241,-0.2185,-0.2513,-0.2725,-0.278,-0.2568,-0.2356,-0.2409,-0.3128,-0.3181,-0.3236,-0.3458,-0.3849,-0.385,-0.3465,-0.3801,-0.3967,-0.3744,-0.3466,-0.3299,-0.2967,-0.2799,-0.2465,-0.2184,-0.2015,-0.1735,-0.1288,-0.1057,-0.0936,-0.0823,-0.0709,-0.065,-0.0487,-0.0492,-0.083,-0.1064,-0.022,0.0596,0.1138,0.172,0.2066,0.2452,0.3041,0.3236,0.2813,0.0413,-0.3604,-0.6726,-0.939,-1.2874,-1.6266,-1.77,-1.8358,-1.6312,-1.3568,-0.9608,-1.3149,-1.2704,-1.3222,-1.3446,-1.3588,-1.4194,-1.4103,-1.3446,-1.2874,-1.2769,-1.2915,-1.2862,-1.2683,-1.2498,-1.2305,-1.2178,-1.2058,-1.1934,-1.1806,-1.1747,-1.1806,-1.1747,-1.1736,-1.1622,-1.1567,-1.1531,-1.1305,-1.1138,-1.1003,-1.084,-1.0776,-1.0664,-1.0607,-1.0488,-1.0325,-0.9768,-0.9418,-0.9395,-0.927,-0.9001,-0.8794,-0.8871,-0.8558,-0.8183,-0.8161,-0.7969,-0.7466,-0.7267,-0.6662,-0.5707,-0.5466,-0.4813,-0.356,-0.3257,-0.2815,-0.2219,-0.2111,-0.1971,-0.1864,-0.2582,-0.2628,-0.2347,-0.2395,-0.2286,-0.1958,-0.1681,-0.1793,-0.2736,-0.2514,-0.2735,-0.318,-0.3626,-0.3518,-0.363,-0.3965,-0.4022,-0.3801,-0.369,-0.3523,-0.3359,-0.3025,-0.2635,-0.2242,-0.1961,-0.1848,-0.1624,-0.1399,-0.1228,-0.1113,-0.0998,-0.0935,-0.0771,-0.0609,-0.0668,-0.0729,0.0224,0.1004,0.1564,0.2107,0.2562,0.2802,0.3145,0.3185,0.3005,0.0341,-0.3413,-0.6526,-0.949,-1.2682,-1.5505,-1.6549,-1.6683,-1.4778,-1.2132,-0.8062,-1.2462,-1.2312,-1.247,-1.2544,-1.2674,-1.3453,-1.3445,-1.2842,-1.2451,-1.2336,-1.2363,-1.2243,-1.212,-1.2054,-1.1992,-1.1868,-1.1868,-1.1747,-1.1622,-1.1743,-1.1677,-1.1619,-1.1622,-1.1622,-1.156,-1.1376,-1.1247,-1.1118,-1.073,-1.0744,-1.0744,-1.0621,-1.0491,-1.0382,-1.0283,-0.9965,-0.9797,-0.9674,-0.9481,-0.9246,-0.901,-0.8986,-0.8753,-0.8174,-0.8335,-0.8097,-0.7526,-0.7421,-0.6748,-0.5626,-0.5434,-0.4694,-0.3526,-0.3101,-0.2706,-0.2207,-0.2087,-0.1914,-0.1974,-0.228,-0.2297,-0.207,-0.1958,-0.1847,-0.1402,-0.1234,-0.1735,-0.2403,-0.2458,-0.2957,-0.3903,-0.4021,-0.4022,-0.4075,-0.4244,-0.4133,-0.3967,-0.3913,-0.3802,-0.3752,-0.3477,-0.3137,-0.28,-0.2185,-0.1906,-0.1737,-0.1456,-0.1344,-0.1229,-0.1174,-0.1114,-0.0948,-0.0783,-0.0783,-0.0505,0.0168,0.084,0.1397,0.2404,0.3399,0.3534,0.3391,0.3049,0.2835,-0.0105,-0.312,-0.6126,-0.9078,-1.1709,-1.3952,-1.4861,-1.4066,-1.1616,-0.9187,-0.6273,-1.2058,-1.1919,-1.2062,-1.2058,-1.212,-1.2674,-1.2666,-1.2297,-1.2116,-1.2062,-1.2062,-1.1934,-1.1872,-1.1872,-1.1743,-1.1681,-1.1806,-1.1685,-1.1622,-1.1681,-1.1626,-1.1622,-1.1622,-1.156,-1.1494,-1.1247,-1.1185,-1.1059,-1.0741,-1.0678,-1.0614,-1.0491,-1.0301,-1.0168,-1.0082,-0.9936,-0.9866,-0.9699,-0.9534,-0.9219,-0.9039,-0.891,-0.8763,-0.8452,-0.8389,-0.8358,-0.7869,-0.7396,-0.7005,-0.6017,-0.5366,-0.4803,-0.3796,-0.3134,-0.2729,-0.2399,-0.2165,-0.2117,-0.2202,-0.2113,-0.2139,-0.1796,-0.1628,-0.1459,-0.1178,-0.1122,-0.1736,-0.2293,-0.2626,-0.3404,-0.4127,-0.4245,-0.4301,-0.4353,-0.4244,-0.4135,-0.4079,-0.4024,-0.3968,-0.3919,-0.3645,-0.3474,-0.3135,-0.2576,-0.2017,-0.1794,-0.157,-0.1402,-0.1347,-0.1291,-0.1291,-0.1178,-0.1009,-0.0897,-0.0673,-0.0224,0.0504,0.1174,0.235,0.3589,0.3755,0.3495,0.3012,0.2458,0.0217,-0.2303,-0.5631,-0.8585,-1.1011,-1.236,-1.2929,-1.1351,-0.8519,-0.5809,-0.3207,-1.1911,-1.1695,-1.1919,-1.1937,-1.1806,-1.1981,-1.1915,-1.1853,-1.1802,-1.193,-1.2058,-1.1872,-1.1872,-1.1937,-1.1868,-1.1743,-1.1747,-1.1626,-1.1626,-1.1626,-1.1622,-1.1622,-1.1622,-1.156,-1.1432,-1.1306,-1.1185,-1.0996,-1.0804,-1.0618,-1.0495,-1.0301,-1.0114,-0.9993,-0.9862,-0.9795,-0.9792,-0.9646,-0.9558,-0.9241,-0.9048,-0.8931,-0.8754,-0.8537,-0.8482,-0.8323,-0.8014,-0.7847,-0.7149,-0.6355,-0.5785,-0.4735,-0.3849,-0.3203,-0.2723,-0.2353,-0.2262,-0.2293,-0.2297,-0.2203,-0.2086,-0.1796,-0.1684,-0.1459,-0.1235,-0.1234,-0.1736,-0.2348,-0.2737,-0.3515,-0.4184,-0.4296,-0.4354,-0.4299,-0.4192,-0.4135,-0.4079,-0.4079,-0.4022,-0.386,-0.3532,-0.3195,-0.2688,-0.2185,-0.185,-0.1626,-0.1346,-0.1234,-0.1178,-0.1347,-0.1347,-0.1403,-0.1235,-0.1066,-0.0785,-0.0449,0.0224,0.0951,0.2069,0.3137,0.3307,0.3137,0.2291,0.1506,0.0835,-0.1408,-0.4766,-0.7581,-1.0089,-1.0753,-0.9351,-0.7774,-0.4659,-0.2052,0.0467,-1.1677,-1.1608,-1.1681,-1.1689,-1.1685,-1.1677,-1.1685,-1.1681,-1.1681,-1.1689,-1.1755,-1.1685,-1.1747,-1.1751,-1.1685,-1.1685,-1.1622,-1.1626,-1.1622,-1.1622,-1.1622,-1.1622,-1.1622,-1.156,-1.1435,-1.1251,-1.1062,-1.0933,-1.0681,-1.0498,-1.0304,-1.0114,-0.9923,-0.9865,-0.974,-0.967,-0.9609,-0.9545,-0.9481,-0.9288,-0.9044,-0.891,-0.8745,-0.8559,-0.8243,-0.7979,-0.7591,-0.7654,-0.6868,-0.5751,-0.5756,-0.5024,-0.342,-0.3134,-0.292,-0.2306,-0.225,-0.2262,-0.218,-0.2208,-0.2073,-0.1852,-0.174,-0.1684,-0.1459,-0.1458,-0.1737,-0.2237,-0.2737,-0.3349,-0.4016,-0.4298,-0.4408,-0.4354,-0.4244,-0.4133,-0.4076,-0.4075,-0.4075,-0.3914,-0.3531,-0.2971,-0.2409,-0.1962,-0.1627,-0.1346,-0.1122,-0.0953,-0.0953,-0.1122,-0.1291,-0.1403,-0.1347,-0.1122,-0.1009,-0.0729,-0.0,0.0783,0.1733,0.2349,0.2406,0.2069,0.1283,0.0278,-0.0888,-0.2134,-0.3855,-0.621,-0.793,-0.5231,-0.3648,-0.2437,-0.1004,0.0657,0.1906,-1.1622,-1.1622,-1.1622,-1.1622,-1.1622,-1.1622,-1.1622,-1.1622,-1.1622,-1.1622,-1.1622,-1.1622,-1.1622,-1.1622,-1.1622,-1.1622,-1.1622,-1.1622,-1.1622,-1.1622,-1.1622,-1.1622,-1.1622,-1.156,-1.1369,-1.1188,-1.1066,-1.0937,-1.0621,-1.0368,-1.0177,-1.005,-0.9859,-0.9737,-0.9609,-0.9414,-0.9283,-0.9283,-0.9218,-0.9151,-0.8891,-0.8565,-0.8304,-0.8104,-0.7584,-0.7195,-0.6806,-0.6933,-0.6338,-0.5286,-0.5488,-0.4823,-0.3358,-0.2957,-0.2888,-0.2387,-0.2334,-0.232,-0.2254,-0.2208,-0.2039,-0.1852,-0.1797,-0.1684,-0.1572,-0.1459,-0.1792,-0.218,-0.2569,-0.307,-0.3684,-0.4244,-0.4353,-0.4462,-0.4296,-0.4073,-0.4072,-0.407,-0.4019,-0.3914,-0.3526,-0.2911,-0.2353,-0.1851,-0.1403,-0.1122,-0.0785,-0.0505,-0.0561,-0.0729,-0.1009,-0.1234,-0.1178,-0.1122,-0.101,-0.1009,-0.056,0.0056,0.0726,0.1229,0.1342,0.0781,-0.0167,-0.1499,-0.2889,-0.3842,-0.4563,-0.3954,-0.4359,-0.2229,-0.1339,-0.1208,-0.0923,0.0276,0.1289,-1.1622,-1.1622,-1.1622,-1.1622,-1.1622,-1.1622,-1.1622,-1.1622,-1.1622,-1.1622,-1.1622,-1.1622,-1.1622,-1.1622,-1.1622,-1.1622,-1.1622,-1.1622,-1.1622,-1.1622,-1.1622,-1.1622,-1.1622,-1.156,-1.1432,-1.1251,-1.1062,-1.087,-1.0618,-1.0364,-1.0174,-0.9983,-0.9667,-0.9475,-0.9218,-0.8821,-0.8557,-0.8363,-0.8428,-0.8366,-0.8044,-0.7526,-0.7005,-0.68,-0.6535,-0.6272,-0.6081,-0.6015,-0.5943,-0.535,-0.4954,-0.449,-0.3557,-0.2824,-0.2689,-0.2502,-0.2459,-0.2402,-0.2291,-0.2197,-0.2037,-0.1852,-0.1684,-0.1628,-0.1459,-0.1347,-0.1569,-0.2124,-0.257,-0.2959,-0.3516,-0.3739,-0.3849,-0.3792,-0.3681,-0.3627,-0.3683,-0.3737,-0.3795,-0.3634,-0.3359,-0.2799,-0.2464,-0.1962,-0.1514,-0.1066,-0.0617,-0.028,-0.0112,-0.028,-0.0561,-0.0897,-0.1066,-0.1066,-0.1235,-0.1234,-0.1122,-0.0616,-0.0112,-0.0112,-0.0168,-0.0836,-0.1667,-0.2944,-0.4116,-0.4727,-0.5156,-0.4512,-0.3904,-0.3291,-0.2344,-0.1454,-0.0672,0.0168,0.0617,-1.1622,-1.1622,-1.1622,-1.1622,-1.1622,-1.1622,-1.1622,-1.1622,-1.1622,-1.1622,-1.1622,-1.1622,-1.1622,-1.1622,-1.1622,-1.1622,-1.1622,-1.1622,-1.1622,-1.1622,-1.1622,-1.1622,-1.156,-1.1498,-1.1369,-1.131,-1.1122,-1.0741,-1.0298,-1.0171,-1.011,-0.9728,-0.9338,-0.8812,-0.8495,-0.8032,-0.764,-0.7379,-0.7251,-0.7447,-0.7447,-0.7326,-0.7003,-0.6537,-0.6139,-0.5751,-0.5556,-0.5686,-0.5291,-0.4764,-0.4959,-0.4557,-0.3758,-0.3227,-0.286,-0.2667,-0.2528,-0.2461,-0.2401,-0.2212,-0.2047,-0.1973,-0.1858,-0.1573,-0.1403,-0.1235,-0.1457,-0.2014,-0.2515,-0.2904,-0.3125,-0.318,-0.3235,-0.318,-0.307,-0.3126,-0.3183,-0.335,-0.3461,-0.3352,-0.3134,-0.28,-0.2464,-0.2129,-0.1681,-0.1177,-0.0673,-0.0224,0.0168,0.0168,-0.0,-0.0336,-0.0841,-0.1009,-0.129,-0.1571,-0.1514,-0.1458,-0.1008,-0.1232,-0.1624,-0.2287,-0.2947,-0.4062,-0.5126,-0.5289,-0.5232,-0.5013,-0.4458,-0.3683,-0.2849,-0.1735,-0.112,-0.0392,-0.0112,-1.1622,-1.1622,-1.1622,-1.1622,-1.1622,-1.1622,-1.1622,-1.1622,-1.1622,-1.1622,-1.1622,-1.1622,-1.1622,-1.1622,-1.1622,-1.156,-1.156,-1.1622,-1.1622,-1.1622,-1.1622,-1.1622,-1.156,-1.1306,-1.0919,-1.073,-1.0475,-1.0094,-0.9719,-0.9719,-0.9594,-0.9075,-0.8479,-0.8091,-0.7707,-0.7183,-0.6726,-0.6463,-0.6205,-0.6334,-0.6658,-0.6402,-0.621,-0.5747,-0.542,-0.5028,-0.4962,-0.5027,-0.4764,-0.4432,-0.4493,-0.4357,-0.3758,-0.336,-0.307,-0.2877,-0.2671,-0.2524,-0.2478,-0.2359,-0.2133,-0.2139,-0.2067,-0.1845,-0.149,-0.1373,-0.1123,-0.1624,-0.1958,-0.2347,-0.2514,-0.2624,-0.2847,-0.2847,-0.257,-0.246,-0.2737,-0.3071,-0.3236,-0.3403,-0.313,-0.2802,-0.2522,-0.2188,-0.1626,-0.0392,-0.0,0.0112,0.0449,0.0729,0.0505,0.0112,-0.0448,-0.1008,-0.1456,-0.1793,-0.2075,-0.1963,-0.185,-0.2184,-0.2517,-0.3404,-0.4236,-0.4792,-0.5067,-0.5011,-0.5009,-0.4736,-0.4073,-0.3131,-0.2462,-0.1792,-0.1233,0.0,0.0,-1.1501,-1.156,-1.1564,-1.1556,-1.1622,-1.1622,-1.1622,-1.1622,-1.1622,-1.1622,-1.1622,-1.1622,-1.1622,-1.1622,-1.1622,-1.1556,-1.1556,-1.1556,-1.1556,-1.156,-1.1622,-1.1435,-1.1118,-1.0863,-1.0408,-0.9958,-0.964,-0.9195,-0.8748,-0.8944,-0.8874,-0.8094,-0.7705,-0.7447,-0.7053,-0.6599,-0.6143,-0.5811,-0.5549,-0.5286,-0.5153,-0.502,-0.5087,-0.4891,-0.4496,-0.4233,-0.4167,-0.4167,-0.4167,-0.4099,-0.3961,-0.396,-0.3892,-0.3692,-0.3378,-0.3189,-0.2967,-0.2925,-0.2905,-0.2695,-0.2582,-0.2475,-0.2327,-0.2069,-0.1705,-0.1397,-0.1143,-0.1189,-0.1528,-0.1744,-0.1967,-0.2071,-0.2295,-0.2347,-0.207,-0.1959,-0.2404,-0.2736,-0.2957,-0.3234,-0.3187,-0.2859,-0.2129,-0.1906,-0.1121,0.0056,0.0673,0.0841,0.1009,0.1178,0.1178,0.056,-0.0168,-0.0783,-0.1623,-0.1961,-0.2356,-0.2524,-0.2523,-0.2912,-0.3355,-0.3964,-0.4403,-0.473,-0.4895,-0.4728,-0.4398,-0.407,-0.3297,-0.2576,-0.2296,-0.1792,-0.0896,0.0,0.0,-1.1247,-1.1369,-1.1369,-1.1432,-1.156,-1.1622,-1.1622,-1.1622,-1.1622,-1.1622,-1.1622,-1.1622,-1.1622,-1.1622,-1.1622,-1.1556,-1.1432,-1.1428,-1.1428,-1.1369,-1.1237,-1.1055,-1.0737,-1.0155,-0.9894,-0.9381,-0.8868,-0.8678,-0.8166,-0.8358,-0.8417,-0.7832,-0.7246,-0.6726,-0.6135,-0.5679,-0.5223,-0.4957,-0.4622,-0.4291,-0.4422,-0.4422,-0.4556,-0.4291,-0.396,-0.3694,-0.3493,-0.3426,-0.3428,-0.3494,-0.3694,-0.3962,-0.4029,-0.402,-0.3834,-0.3563,-0.3327,-0.3295,-0.3258,-0.3026,-0.2923,-0.2917,-0.2637,-0.2185,-0.1815,-0.139,-0.1191,-0.1059,-0.1286,-0.1324,-0.1432,-0.1358,-0.1465,-0.1403,-0.1233,-0.1737,-0.2239,-0.2293,-0.2402,-0.2907,-0.3307,-0.2183,-0.0671,-0.0448,-0.028,0.0784,0.1458,0.1627,0.1683,0.174,0.1744,0.0953,0.0168,-0.1121,-0.219,-0.2244,-0.2527,-0.2807,-0.3028,-0.3136,-0.3523,-0.419,-0.4574,-0.4453,-0.4395,-0.4284,-0.39,-0.3292,-0.2905,-0.2296,-0.2239,-0.1792,-0.0784,0.0,0.0]}]]